     2              OBSERVATION DATA    GPS                 RINEX VERSION / TYPE
ASRINEXO V2.2.0 UX USGS 15-AUG-94 13:59                     PGM / RUN BY / DATE
                                                            COMMENT
Original Marker Name: BNK2                                  COMMENT
Campaign Name: USGS-So. Cal Monit                           COMMENT
4-Character Station Name: BRIN                              COMMENT
6-Character Antenna Code: ASHL12                            COMMENT
Vertical Measurement Point: BBE                             COMMENT
Vertical Offset to Rinex Ref. Point: 0.0595                 COMMENT
Radial Measurement Point: EGP                               COMMENT
Radial Offset to Rinex Ref. Point: 0.1424                   COMMENT
Antenna Height from Field Measurement: 1.2880 m             COMMENT
Additional Antenna Identification Info.:                    COMMENT
Original Ashtech L1/L2 (700228ABC)                          COMMENT
Original XYZ: -2666864.7600 -4267875.7600 3905567.1000      COMMENT
New XYZ position is based on association with SCEC monument COMMENT
E1D0R7W7+0011. Position of that monument is believed to be  COMMENT
valid to within 1 m horizontally; vertical accuracy         COMMENT
should be no worse than 3-times this value.                 COMMENT
                                                            COMMENT
Revised Rinex header created by UCSD GPS archive for        COMMENT
GSAC on 08-Jul-2000 (2000:190) 01:40:03 GMT                 COMMENT
For assistance contact dagnew@ucsd.edu                      COMMENT
or anderson@python.ucsd.edu                                 COMMENT
                                                            COMMENT
BRINK 2 1967                                                MARKER NAME
                                                            MARKER NUMBER
WKG US GEOLOGICAL SURVEY                                    OBSERVER / AGENCY
764 ASHTECH L-XII 6A                                        REC # / TYPE / VERS
598 ASHTECH GEODETIC L                                      ANT # / TYPE
 -2414401.0820 -4710205.5048  3548085.7428                  APPROX POSITION XYZ
        1.2206        0.0000        0.0000                  ANTENNA: DELTA H/E/N
     1     2     0                                          WAVELENGTH FACT L1/2
     3    C1    L1    L2                                    # / TYPES OF OBSERV
    30                                                      INTERVAL
  1991     5     6    18    33    0.000000                  TIME OF FIRST OBS
  1991     5     7     1    23    0.000000                  TIME OF LAST OBS
                                                            END OF HEADER
 91  5  6 18 33  0.0000000  0  2 14 18
  24307989.131      113782.986 5     88662.380 5
  20775570.268       13345.295 8     10398.623 9
 91  5  6 18 33 30.0000000  0  3 19 14 18
  20839429.366      -21462.309 7    -16723.842 9
  23730656.905      230713.846 5    179777.391 2
  20178809.101       28201.407 8     21974.769 9
 91  5  6 18 34  0.0000000  0  4 19 11 14 18
  21737060.147      -30643.413 7    -23877.957 9
  25103238.690     -153455.484 4   -119575.347 2
  24652487.534      348633.966 5    271663.242 2
  21081288.128       44480.793 8     34659.965 9
 91  5  6 18 34 30.0000000  0  4 19 11 14 18
  21135974.466      -38522.247 7    -30017.295 9
  24490572.626     -222258.632 4   -173188.020 2
  24075557.335      467714.877 5    364453.588 4
  20485096.867       62325.298 8     48564.741 9
 91  5  6 18 35  0.0000000  0  4 19 11 14 18
  21134754.618      -44942.972 7    -35020.452 9
  24477765.798     -289565.201 5   -225634.458 2
  24098452.492      588079.991 5    458244.644 3
  20488820.883       81885.971 8     63806.782 9
 91  5  6 18 35 30.0000000  0  4 19 11 14 18
  21133813.868      -49880.561 7    -38867.916 9
  24465242.562     -355350.162 5   -276895.276 2
  24121618.650      709760.712 5    553060.833 3
  20492871.384      103190.554 8     80407.719 9
 91  5  6 18 36  0.0000000  0  4 19 11 14 18
  21133145.324      -53399.225 7    -41609.715 9
  24453006.539     -419674.734 5   -327018.079 2
  24145000.363      832690.193 5    648850.091 2
  20497248.047      126175.273 8     98317.850 9
 91  5  6 18 36 30.0000000  0  4 19 11 14 18
  21132742.110      -55543.550 7    -43280.606 9
  24441032.828     -482579.159 5   -376034.322 2
  24168633.306      956821.207 5    745575.614 4
  20501931.406      150797.154 8    117503.688 9
 91  5  6 18 37  0.0000000  0  4 19 11 14 18
  21132572.424      -56390.834 7    -43940.809 9
  24429320.835     -544137.471 5   -424001.616 2
  24192469.204     1082073.920 5    843175.192 3
  20506913.661      176980.078 8    137905.924 9
 91  5  6 18 37 30.0000000  0  4 19 11 14 18
  21132641.379      -56028.215 7    -43658.243 9
  24417849.874     -604433.003 4   -470984.957 2
  24216493.373     1208358.474 5    941578.779 3
  20512177.711      204637.213 8    159456.907 9
 91  5  6 18 38  0.0000000  0  4 19 11 14 18
  21132930.677      -54512.610 7    -42477.252 9
  24406602.859     -663518.921 5   -517025.733 2
  24240714.502     1335615.793 5   1040740.371 3
  20517711.585      233713.509 8    182113.713 9
 91  5  6 18 38 30.0000000  0  4 19 11 14 18
  21133427.136      -51902.055 7    -40443.049 9
  24395574.391     -721449.834 5   -562166.578
  24265120.307     1463784.415 5   1140612.095 3
  20523502.676      264151.236 8    205831.368 9
 91  5  6 18 39  0.0000000  0  5 19 11 14  2 18
  21134121.149      -48255.174 7    -37601.311 9
  24384761.181     -778280.754 5   -606450.206 1
  24289662.520     1592803.702 5   1241146.665 3
  24777588.529     -175738.150 4   -136938.680 3
  20529544.691      295892.943 8    230565.125 9
 91  5  6 18 39 30.0000000  0  5 19 11 14  2 18
  21135002.542      -43618.931 7    -33988.648 9
  24374149.127     -834055.128 5   -649910.618 2
  24314365.711     1722624.275 5   1342305.613 3
  24762455.308     -255342.038 4   -198967.543 1
  20535822.643      328892.500 8    256279.016 9
 91  5  6 18 40  0.0000000  0  5 19 11 14  2 18
  21136072.205      -38026.489 7    -29630.903 9
  24363726.845     -888802.016 5   -692570.773 1
  24339210.415     1853210.386 5   1444061.061 3
  24747476.180     -334044.027 4   -260293.610 3
  20542336.539      363118.030 8    282948.222 9
 91  5  6 18 40 30.0000000  0  5 19 11 14  2 18
  21137310.647      -31504.845 7    -24549.099 9
  24353503.923     -942545.143 4   -734448.367 2
  24364196.021     1984531.959 4   1546389.632 2
  24732668.231     -411869.300 4   -320936.482 2
  20549076.467      398543.094 8    310552.133 9
 91  5  6 18 41  0.0000000  0  5 19 11 14  2 18
  21138726.863      -24083.516 7    -18766.237 9
  24343461.175     -995310.441 5   -775563.958 2
  24389320.425     2116557.278 4   1649266.557 4
  24718021.574     -488845.505 4   -380917.780 2
  20556041.250      435139.020 8    339068.401 9
 91  5  6 18 41 30.0010000  0  5 19 11 14  2 18
  21140305.273      -15780.940 7    -12296.695 9
  24333601.299    -1047114.377 5   -815930.546 1
  24414568.948     2249270.019 4   1752679.168 2
  24703515.813     -564991.771 4   -440252.377 4
  20563224.575      472889.205 8    368484.093 9
 91  5  6 18 42  0.0010000  0  5 19 11 14  2 18
  21142043.472       -6613.889 7     -5153.539 9
  24323927.299    -1097966.322 5   -855555.246 2
  24439964.965     2382641.910 4   1856605.368 3
  24689180.337     -640317.501 4   -498947.617 1
  20570623.153      511775.909 8    398785.375 9
 91  5  6 18 42 30.0010000  0  5 19 11 14  2 18
  21143952.247        3386.836 7      2639.231 9
  24314422.977    -1147894.986 5   -894460.521 3
  24465461.714     2516644.422 5   1961022.972 1
  24675008.849     -714854.347 4   -557028.082 1
  20578236.980      551770.647 8    429950.065 9
 91  5  6 18 43  0.0010000  0  5 19 11 14  2 18
  21146007.027       14190.088 7     11057.361 9
  24305091.037    -1196928.426 5   -932668.618 1
  24491064.586     2651243.736 4   2065905.644 3
  24660940.484     -788631.918 3   -614516.892 2
  20586051.972      592842.578 8    461954.132 9
 91  5  6 18 43 30.0010000  0  5 19 11 14  2 18
  21148208.102       25774.371 7     20084.073 9
  24295927.875    -1245084.369 5   -970192.529 2
  24516793.074     2786415.640 5   2171234.446 2
  24647078.982     -861669.536 4   -671429.139 3
  20594072.319      634971.084 8    494781.496 9
 91  5  6 18 44  0.0010000  0  5 19 11 14  2 18
  21150559.972       38124.402 7     29707.484 9
  24286929.609    -1292374.688 5  -1007041.906 2
  24542618.401     2922141.780 4   2276995.128 2
  24633308.919     -933980.850 4   -727775.388 4
  20602283.633      678141.306 8    528420.582 9
 91  5  6 18 44 30.0010000  0  5 19 11 14  2 18
  21153054.245       51222.410 7     39913.718 9
  24278084.530    -1338814.005 5  -1043228.203 4
  24568544.748     3058402.343 4   2383172.264
  24619685.744    -1005582.498 4   -783568.652 2
  20610694.917      722335.965 8    562857.947 9
 91  5  6 18 45  0.0010000  0  5 19 11 14  2 18
  21155684.325       65046.837 7     50686.007 9
  24269411.240    -1384419.739 5  -1078764.939 3
  24594576.931     3195173.127 4   2489746.968 4
  24606181.893    -1076493.537 4   -838823.711 2
  20619295.361      767534.785 8    598077.764 9
 91  5  6 18 45 30.0010000  0  5 19 11 14  2 18
  21158446.014       79575.751 7     62007.234 9
  24260887.541    -1429210.670 5  -1113666.735 3
  24620690.946     3332429.832 4   2596700.272 2
  24592819.249    -1146734.308 4   -893556.559 2
  20628083.474      813716.059 8    634063.119 9
 91  5  6 18 46  0.0010000  0  5 19 11 14  2 18
  21161345.306       94794.073 7     73865.681 9
  24252524.830    -1473197.925 5  -1147942.299 3
  24646903.607     3470154.915 4   2704018.589 2
  24579569.019    -1216317.277 4   -947777.278 3
  20637055.364      860866.026 8    670803.320 9
 91  5  6 18 46 30.0010000  0  5 19 11 14  2 18
  21164367.510      110692.213 7     86253.830 9
  24244302.418    -1516387.996 5  -1181596.678 2
  24673211.590     3608336.068 5   2811692.276 4
  24566453.401    -1285251.034 4  -1001491.601 2
  20646209.530      908975.278 8    708290.984 9
 91  5  6 18 47  0.0010000  0  5 19 11 14  2 18
  21167520.432      127254.183 7     99159.278 8
  24236233.202    -1558792.928 5  -1214639.267 1
  24699572.038     3746955.068 4   2919707.117 2
  24553459.794    -1353549.827 4  -1054711.657 3
  20655546.260      958028.826 7    746514.490 9
 91  5  6 18 47 30.0010000  0  5 19 11 14  2 18
  21170794.163      144458.744 7    112565.431 9
  24228311.789    -1600430.580 5  -1247083.955 2
  24726037.116     3885987.940 4   3028044.460 2
  24540578.610    -1421232.986 4  -1107451.521 1
  20665055.076     1008005.733 8    785457.488 9
 91  5  6 18 48  0.0010000  0  5 19 11 14  2 18
  21174189.914      162293.784 7    126462.875 9
  24220532.177    -1641309.553 5  -1278937.461 2
  24752569.056     4025420.198 4   3136693.028 2
  24527821.245    -1488310.727 4  -1159719.613 3
  20674739.572     1058894.459 7    825110.993 9
 91  5  6 18 48 30.0010000  0  5 19 11 14  2 18
  21177703.184      180757.062 7    140849.841 9
  24212897.357    -1681428.993 5  -1310199.142 2
  24779183.124     4165246.789 4   3245648.850 2
  24515173.894    -1554784.176 5  -1211517.331 2
  20684595.254     1110693.862 8    865474.108 9
 91  5  6 18 49  0.0010000  0  5 19 11 14  2 18
  21181336.363      199848.657 7    155726.422 9
  24205399.854    -1720785.238 5  -1340866.139 4
  24805864.359     4305465.790 5   3354910.439 2
  24502621.586    -1620651.152 4  -1262842.429 3
  20694626.608     1163404.297 8    906547.134 9
 91  5  6 18 49 30.0010000  0  5 19 11 14  2 18
  21185087.366      219567.299 7    171091.597 9
  24198060.327    -1759376.271 5  -1370936.906 3
  24832623.832     4446073.056 5   3464474.592 2
  24490199.989    -1685911.256 4  -1313694.678 2
  20704829.148     1217024.870 8    948329.344 9
 91  5  6 18 50  0.0010000  0  5 19 11 14  2 18
  21188953.496      239896.988 7    186932.928 9
  24190862.618    -1797214.461 5  -1400420.982 3
  24859452.861     4587050.320 5   3574327.034 2
  24477910.298    -1750578.442 5  -1364084.910 2
  20715203.459     1271540.090 7    990808.681 9
 91  5  6 18 50 30.0010000  0  5 19 11 14  2 18
  21192937.434      260835.646 7    203248.776 9
  24183800.402    -1834298.467 5  -1429317.415 4
  24886351.141     4728393.075 5   3684464.300 2
  24465716.539    -1814653.610 5  -1414013.811 2
  20725745.668     1326948.124 8   1033983.730 9
 91  5  6 18 51  0.0010000  0  5 19 11 14  2 18
  21197037.397      282372.702 7    220030.908 9
  24176888.990    -1870635.364 5  -1457631.648 2
  24913308.177     4870088.381 4   3794876.295 2
  24453627.107    -1878145.498 4  -1463488.196 4
  20736460.547     1383239.325 8   1077846.945 9
 91  5  6 18 51 30.0010000  0  5 19 11 14  2 18
  21201246.180      304490.613 7    237265.650 9
  24170117.878    -1906239.174 5  -1485374.657 4
  24940330.868     5012115.646 4   3905546.916 1
  24441655.795    -1941069.942 4  -1512520.435 2
  20747335.819     1440396.612 8   1122385.032 9
 91  5  6 18 52  0.0010000  0  5 19 11 14  2 18
  21205562.596      327175.021 7    254941.812 9
  24163479.274    -1941120.973 5  -1512555.058 3
  24967417.716     5154458.452 4   4016463.426 2
  24429785.512    -2003439.221 5  -1561120.081 3
  20758374.775     1498406.130 7   1167587.193 9
 91  5  6 18 52 30.0010000  0  5 19 11 14  2 18
  21209989.629      350426.080 7    273059.524 8
  24156981.267    -1975277.484 5  -1539170.318 3
  24994570.822     5297114.375 4   4127623.922 2
  24418017.757    -2065251.725 5  -1609285.892 2
  20769575.921     1557267.979 7   1213453.506 9
 91  5  6 18 53  0.0010000  0  4 19 11  2 18
  21214512.298      374200.382 7    291584.970 9
  24150610.384    -2008748.505 5  -1565251.473 3
  24406353.734    -2126549.600 5  -1657050.630 2
  20780931.764     1616939.199 7   1259950.502 9
 91  5  6 18 53 30.0010000  0  4 19 11  2 18
  21219129.399      398469.245 7    310495.764 9
  24144366.906    -2041559.487 5  -1590818.293 2
  24394801.830    -2187359.784 5  -1704434.972 3
  20792436.596     1677391.756 7   1307056.324 9
 91  5  6 18 54  0.0010000  0  4 19 11  2 18
  21223840.644      423211.632 7    329775.554 9
  24138246.643    -2073728.284 5  -1615884.712 4
  24383293.097    -2247701.339 5  -1751454.538 2
  20804083.229     1738605.542 7   1354755.319 9
 91  5  6 18 54 30.0010000  0  4 19 11  2 18
  21228633.721      448417.493 7    349416.476 9
  24132240.296    -2105261.692 5  -1640456.000 2
  24371914.473    -2307582.966 5  -1798115.760 2
  20815874.673     1800570.401 7   1403039.568 9
 91  5  6 18 55  0.0010000  0  4 19 11  2 18
  21233523.342      474078.690 7    369412.205 9
  24126362.871    -2136164.599 5  -1664536.007 2
  24360601.209    -2367011.419 5  -1844423.386 3
  20827811.206     1863278.030 8   1451902.604 9
 91  5  6 18 55 30.0010000  0  4 19 11  2 18
  21238487.004      500186.310 7    389755.799 9
  24120598.453    -2166442.692 5  -1688129.135 2
  24349369.778    -2425993.976 5  -1890384.002 2
  20839878.154     1926719.640 7   1501337.559 9
 91  5  6 18 56  0.0010000  0  4 19 11  2 18
  21243534.610      526731.335 7    410440.231 9
  24114955.463    -2196101.284 5  -1711239.579 3
  24338232.490    -2484537.697 5  -1936002.697 3
  20852091.701     1990887.221 7   1551338.209 9
 91  5  6 18 56 30.0010000  0  4 19 11  2 18
  21248670.654      553700.779 7    431455.373 9
  24109430.593    -2225150.342 5  -1733874.991 1
  24327175.544    -2542654.109 5  -1981288.388 2
  20864438.952     2055767.855 7   1601894.481 9
 91  5  6 18 57  0.0010000  0  4 19 11  2 18
  21253882.842      581095.850 7    452802.177 9
  24104013.338    -2253585.617 5  -1756032.153 2
  24316195.649    -2600341.200 5  -2026239.573 2
  20876920.211     2121362.370 7   1653007.022 9
 91  5  6 18 57 30.0010000  0  4 19 11  2 18
  21259177.780      608909.796 7    474475.382 9
  24098716.909    -2281410.910 5  -1777714.014 3
  24305305.683    -2657604.069 5  -2070860.194 2
  20889536.073     2187663.942 7   1704670.507 9
 91  5  6 18 58  0.0010000  0  4 19 11  2 18
  21264552.455      637138.076 7    496471.456 9
  24093542.789    -2308627.126 5  -1798921.327 2
  24294492.473    -2714445.187 5  -2115152.160 3
  20902286.249     2254669.188 7   1756882.319 9
 91  5  6 18 58 30.0010000  0  4 19 11  2 18
  21269996.391      665780.435 7    518790.171 9
  24088481.694    -2335231.835 5  -1819652.025 3
  24283734.422    -2770863.465 5  -2159114.674 3
  20915172.825     2322377.598 7   1809642.053 9
 91  5  6 18 59  0.0010000  0  4 19 11  2 18
  21275525.763      694830.340 7    541426.467 9
  24083529.121    -2361227.775 5  -1839908.443 3
  24273091.185    -2826863.577 5  -2202751.318 2
  20928187.721     2390782.888 7   1862944.808 9
 91  5  6 18 59 30.0010000  0  4 19 11  2 18
  21281131.576      724279.657 7    564373.981 9
  24078696.763    -2386619.887 5  -1859694.296 1
  24262520.507    -2882451.973 5  -2246067.146 3
  20941335.116     2459877.428 7   1916784.640 9
 91  5  6 19  0  0.0010000  0  4 19 11  2 18
  21286813.550      754130.939 7    587634.718 9
  24073982.526    -2411402.620 5  -1879005.326 3
  24252008.286    -2937625.403 5  -2289059.611 3
  20954615.622     2529663.335 7   1971163.214 9
 91  5  6 19  0 30.0010000  0  4 19 11  2 18
  21292568.064      784394.014 7    611216.326 9
  24069381.915    -2435563.487 5  -1897831.792 3
  24241593.193    -2992372.317 5  -2331719.774 3
  20968031.332     2600150.654 8   2026088.323 9
 91  5  6 19  1  0.0010000  0  4 19 11  2 18
  21298410.118      815077.628 7    635125.638 8
  24064904.216    -2459090.049 5  -1916163.998 2
  24231269.845    -3046682.198 5  -2374039.367 4
  20981578.651     2671348.523 7   2081567.110 9
 91  5  6 19  1 30.0010000  0  4 19 11  2 18
  21304334.615      846190.176 7    659369.175 9
  24060553.327    -2481971.049 5  -1933993.178 2
  24221003.446    -3100545.067 5  -2416010.650 2
  20995265.381     2743264.910 7   2137605.784 9
 91  5  6 19  2  0.0010000  0  5 19 16 11  2 18
  21310325.964      877718.107 7    683936.389 9
  25124574.621       -4537.261 5     -3535.211 2
  24056321.152    -2504217.140 5  -1951327.575 1
  24210841.687    -3153974.058 5  -2457643.379 3
  21009084.313     2815886.361 8   2194193.854 9
 91  5  6 19  2 30.0010000  0  5 19 16 11  2 18
  21316405.158      909649.373 7    708817.896 9
  25119463.156      -31371.741 4    -24445.129 2
  24052203.206    -2525837.491 5  -1968174.440 3
  24200769.255    -3206979.479 5  -2498946.498 2
  21023036.957     2889200.345 8   2251321.562 9
 91  5  6 19  3  0.0010000  0  5 19 16 11  2 18
  21322554.204      941967.447 7    734000.815 9
  25114483.605      -57566.602 5    -44856.675 3
  24048208.476    -2546845.183 5  -1984543.884 3
  24190740.301    -3259575.814 5  -2539930.403 3
  21037116.709     2963190.828 8   2308976.413 9
 91  5  6 19  3 30.0010000  0  5 19 16 11  2 18
  21328775.495      974653.112 7    759470.159 9
  25109614.672      -83139.892 5    -64783.921 2
  24044319.860    -2567256.556 5  -2000448.701 3
  24180809.975    -3311781.054 5  -2580609.562 2
  21051323.271     3037838.571 7   2367143.426 9
 91  5  6 19  4  0.0010000  0  5 19 16 11  2 18
  21335066.342     1007703.942 7    785224.056 9
  25104871.057     -108092.283 5    -84227.281 1
  24040551.468    -2587071.038 5  -2015888.397 3
  24170960.593    -3363596.722 5  -2620985.163 3
  21065649.752     3113140.886 7   2425820.477 9
 91  5  6 19  4 30.0010000  0  5 19 16 11  2 18
  21341419.539     1041104.187 7    811250.206 9
  25100238.670     -132436.395 5   -103196.675 1
  24036894.601    -2606301.428 5  -2030872.953 3
  24161164.276    -3415036.871 5  -2661068.626 2
  21080101.848     3189081.799 7   2484995.144 9
 91  5  6 19  5  0.0010000  0  5 19 16 11  2 18
  21347844.692     1074849.806 7    837545.494 8
  25095714.500     -156174.640 5   -121693.964 3
  24033345.959    -2624948.869 5  -2045403.272 3
  24151445.299    -3466104.255 5  -2700861.652 3
  21094673.861     3265657.767 7   2544664.657 9
 91  5  6 19  5 30.0020000  0  5 19 16 11  2 18
  21354327.704     1108944.641 7    864112.899 9
  25091312.947     -179304.089 4   -139716.860 2
  24029911.838    -2643008.332 5  -2059475.433 4
  24141796.187    -3516796.201 5  -2740361.659 3
  21109365.788     3342873.308 8   2604832.541 9
 91  5  6 19  6  0.0020000  0  5 19 16 11  2 18
  21360882.372     1143383.140 7    890948.097 9
  25087037.609     -201824.263 5   -157265.007 4
  24026588.340    -2660479.611 5  -2073089.265 3
  24132223.809    -3567111.760 5  -2779568.350 4
  21124181.232     3420719.268 7   2665491.655 9
 91  5  6 19  6 30.0020000  0  5 19 16 11  2 18
  21367499.687     1178157.049 7    918044.645 9
  25082857.296     -223742.820 5   -174344.366 3
  24023372.169    -2677368.859 5  -2086249.568 2
  24122730.279    -3617060.689 5  -2818489.391 2
  21139113.898     3499189.292 7   2726637.057 9
 91  5  6 19  7  0.0020000  0  5 19 16 11  2 18
  21374179.063     1213261.585 7    945398.845 9
  25078802.005     -245062.709 5   -190957.192 2
  24020267.513    -2693678.419 5  -2098958.162 2
  24113286.815    -3666646.470 5  -2857127.418 3
  21154163.175     3578278.414 7   2788264.881 9
 91  5  6 19  7 30.0020000  0  5 19 16 11  2 18
  21380927.996     1248699.735 7    973012.984 9
  25074859.739     -265779.473 5   -207100.120 2
  24017272.288    -2709402.387 5  -2111210.425 2
  24103920.707    -3715864.674 5  -2895479.053 2
  21169332.972     3657989.394 7   2850377.252 9
 91  5  6 19  8  0.0020000  0  5 19 16 11  2 18
  21387731.478     1284464.993 7   1000882.024 9
  25071035.280     -285897.288 5   -222776.273 3
  24014396.675    -2724544.386 5  -2123009.287 2
  24094620.544    -3764720.025 5  -2933547.924 4
  21184616.100     3738315.286 7   2912968.772 9
 91  5  6 19  8 30.0020000  0  5 19 16 11  2 18
  21394595.530     1320561.173 7   1029008.907 8
  25067316.656     -305411.369 5   -237981.977 1
  24011624.202    -2739098.006 5  -2134349.607 4
  24085385.435    -3813208.183 5  -2971330.671 4
  21200022.129     3819259.559 7   2976042.152 9
 91  5  6 19  9  0.0020000  0  5 19 16 11  2 18
  21401531.529     1357000.936 7   1057403.536 9
  25063726.343     -324306.977 5   -252705.811 1
  24008973.732    -2753047.838 5  -2145219.483 2
  24076236.068    -3861314.933 5  -3008816.213 2
  21215542.388     3900834.326 7   3039606.816 9
 91  5  6 19  9 30.0020000  0  5 19 16 11  2 18
  21408530.785     1393784.717 7   1086066.217 9
  25060240.357     -342581.574 5   -266945.740 2
  24006431.192    -2766390.534 5  -2155616.202 2
  24067158.656    -3909038.609 5  -3046003.273 4
  21231187.651     3983040.486 8   3103663.470 9
 91  5  6 19 10  0.0020000  0  5 19 16 11  2 18
  21415591.492     1430886.577 7   1114976.743 9
  25056890.473     -360259.981 5   -280721.082 2
  24004000.472    -2779149.347 5  -2165558.016 3
  24058142.390    -3956403.862 5  -3082911.048 3
  21246945.643     4065851.359 7   3168191.328 9
 91  5  6 19 10 30.0020000  0  5 19 16 11  2 18
  21422717.262     1468309.814 7   1144137.705 9
  25053635.031     -377336.778 5   -294027.657 1
  24001679.480    -2791318.143 5  -2175040.030 3
  24049193.291    -4003406.084 5  -3119535.930 3
  21262820.254     4149270.045 7   3233192.821 9
 91  5  6 19 11  0.0020000  0  5 19 16 11  2 18
  21429896.090     1506060.439 7   1173553.780 9
  25050496.199     -393804.326 5   -306859.503 1
  23999485.900    -2802888.385 6  -2184055.673 4
  24040320.029    -4050038.331 5  -3155872.499 3
  21278811.188     4233302.090 8   3298672.245 9
 91  5  6 19 11 30.0020000  0  5 19 16 11  2 18
  21437142.075     1544140.336 7   1203226.420 9
  25047479.693     -409659.450 5   -319214.133 2
  23997394.553    -2813855.878 5  -2192601.618 2
  24031517.825    -4096297.881 5  -3191919.148 3
  21294917.539     4317948.043 7   3364630.034 9
 91  5  6 19 12  0.0020000  0  5 19 16 11  2 18
  21444452.512     1582548.640 7   1233154.978 9
  25044575.000     -424900.886 5   -331090.576 3
  23995424.013    -2824218.310 6  -2200676.116 4
  24022793.563    -4142183.966 5  -3227674.284 3
  21311142.603     4403207.249 7   3431065.693 9
 91  5  6 19 12 30.0020000  0  5 19 16 11  2 18
  21451824.409     1621274.276 7   1263330.804 9
  25041794.726     -439537.574 5   -342495.750 2
  23993564.099    -2833984.070 5  -2208285.686 2
  24014122.070    -4187706.552 5  -3263146.668 2
  21327481.294     4489068.275 8   3497970.308 9
 91  5  6 19 13  0.0020000  0  5 19 16 11  2 18
  21459247.871     1660308.058 7   1293746.742 8
  25039109.783     -453578.171 4   -353436.443 2
  23991819.906    -2843159.648 6  -2215435.334 3
  24005526.721    -4232873.809 5  -3298341.696 2
  21343933.002     4575521.506 8   3565336.375 9
 91  5  6 19 13 30.0020000  0  5 19 16 11  2 18
  21466738.490     1699640.871 7   1324395.691 8
  25036561.546     -467029.577 4   -363918.039 2
  23990181.244    -2851751.905 6  -2222130.512 3
  23997005.422    -4277693.220 6  -3333265.645 5
  21360498.031     4662557.626 8   3633156.641 9
 91  5  6 19 14  0.0020000  0  5 19 16 11  2 18
  21474278.564     1739263.746 7   1355270.651 9
  25034117.939     -479899.488 5   -373946.539 2
  23988652.299    -2859767.158 6  -2228376.047 4
  23988531.186    -4322172.739 5  -3367925.249 2
  21377168.590     4750166.502 8   3701423.202 9
 91  5  6 19 14 30.0020000  0  5 19 16 11  2 18
  21481867.210     1779164.503 7   1386362.148 9
  25031772.368     -492198.304 4   -383530.044 2
  23987238.779    -2867215.068 6  -2234179.524 3
  23980141.793    -4366323.681 5  -3402328.325 4
  21393942.883     4838335.167 8   3770125.967 9
 91  5  6 19 15  0.0020000  0  5 19 16 11  2 18
  21489510.719     1819342.010 7   1417669.287 9
  25029542.204     -503925.782 4   -392668.336 1
  23985927.788    -2874094.297 5  -2239539.865 2
  23971804.568    -4410146.248 6  -3436476.009 4
  21410829.895     4927062.368 8   3839263.951 9
 91  5  6 19 15 30.0020000  0  5 19 16 11  2 18
  21497208.795     1859785.421 7   1449183.624 9
  25027404.387     -515091.315 4   -401368.757 2
  23984727.117    -2880413.654 6  -2244463.941 3
  23963515.601    -4453650.464 5  -3470375.641 4
  21427819.130     5016336.250 7   3908827.915 9
 91  5  6 19 16  0.0020000  0  5 19 16 11  2 18
  21504954.231     1900487.186 7   1480899.275 9
  25025387.683     -525700.936 4   -409635.975 3
  23983629.280    -2886177.642 5  -2248955.273 3
  23955290.502    -4496842.367 5  -3504031.432 3
  21444908.800     5106149.088 8   3978811.856 9
 91  5  6 19 16 30.0020000  0  5 19 16 11  2 18
  21512755.430     1941466.094 7   1512830.871 9
  25023493.592     -535734.528 4   -417454.319 3
  23982646.859    -2891365.259 5  -2252997.469 4
  23947145.438    -4539702.340 5  -3537429.039 4
  21462105.492     5196519.078 8   4049229.940 9
 91  5  6 19 17  0.0020000  0  5 19 16 11  2 18
  21520605.498     1982730.363 7   1544984.835 9
  25021692.442     -545181.563 4   -424815.671 2
  23981767.865    -2895965.765 5  -2256582.195 3
  23939056.433    -4582220.906 5  -3570560.162 4
  21479410.114     5287453.460 8   4120087.804 9
 91  5  6 19 17 30.0020000  0  5 19 16 11  2 18
  21528515.219     2024288.708 7   1577367.964 9
  25020019.001     -554033.043 5   -431712.885 2
  23981008.493    -2899967.998 6  -2259700.767 3
  23931026.497    -4624388.613 6  -3603417.846 4
  21496824.760     5378959.881 8   4191391.415 9
 91  5  6 19 18  0.0020000  0  5 19 16 11  2 18
  21536474.106     2066124.715 7   1609967.420 9
  25018428.606     -562303.548 5   -438157.414 2
  23980356.745    -2903386.024 6  -2262364.081 2
  23923061.005    -4666220.313 5  -3636013.725 3
  21514341.934     5471022.032 8   4263128.065 9
 91  5  6 19 18 30.0020000  0  5 19 16 11  2 18
  21544485.466     2108218.587 7   1642767.812 9
  25016964.419     -570011.669 4   -444163.748 2
  23979816.216    -2906237.280 6  -2264585.752 3
  23915164.476    -4707735.434 6  -3668362.937 4
  21531962.536     5563618.767 8   4335281.277 9
 91  5  6 19 19  0.0020000  0  5 19 16 11  2 18
  21552548.383     2150575.889 7   1675773.482 9
  25015607.551     -577150.192 4   -449726.204 1
  23979381.217    -2908513.731 6  -2266359.528 4
  23907331.501    -4748927.271 6  -3700460.733 4
  21549687.158     5656755.474 7   4407855.238 9
 91  5  6 19 19 30.0020000  0  5 19 16 11  2 18
  21560655.065     2193180.167 7   1708971.594 9
  25014351.423     -583734.669 5   -454856.947 2
  23979052.943    -2910229.519 6  -2267696.435 3
  23899544.088    -4789810.662 6  -3732317.667 3
  21567507.722     5750415.051 7   4480836.627 9
 91  5  6 19 20  0.0020000  0  5 19 16 11  2 18
  21568811.227     2236024.299 7   1742356.597 8
  25013214.315     -589770.214 5   -459559.978 4
  23978835.897    -2911389.697 5  -2268600.392 4
  23891828.928    -4830392.128 6  -3763939.360 5
  21585431.416     5844589.062 7   4554218.877 9
 91  5  6 19 20 30.0020000  0  5 19 16 11  2 18
  21577007.847     2279118.589 7   1775936.539 9
  25012163.236     -595245.728 4   -463826.572 2
  23978716.276    -2911981.721 6  -2269061.632 3
  23884168.335    -4870660.568 6  -3795317.134 4
  21603451.645     5939286.965 7   4628009.361 9
 91  5  6 19 21  0.0020000  0  5 19 16 11  2 18
  21585255.736     2322478.451 7   1809723.419 9
  25011238.078     -600145.160 4   -467644.300 2
  23978713.283    -2911988.186 6  -2269066.572 4
  23876561.105    -4910599.888 6  -3826438.452 4
  21621572.597     6034522.938 7   4702219.113 9
 91  5  6 19 21 30.0020000  0  5 19 16 11  2 18
  21593559.989     2366108.881 7   1843721.132 9
  25010413.354     -604461.571 5   -471007.714 2
  23978834.999    -2911401.038 6  -2268609.002 2
  23869017.419    -4950203.285 5  -3857298.013 5
  21639794.280     6130302.498 7   4776852.433 9
 91  5  6 19 22  0.0020000  0  5 19 16 11  2 18
  21601914.002     2410002.636 7   1877924.038 8
  25009689.955     -608201.567 4   -473922.009 4
  23979054.147    -2910226.339 5  -2267693.521 3
  23861551.989    -4989478.036 6  -3887901.502 3
  21658126.589     6226616.252 7   4851902.011 9
 91  5  6 19 22 30.0020000  0  5 19 16 11  2 18
  21610309.694     2454143.721 7   1912319.673 9
  25009087.068     -611379.786 4   -476398.516 2
  23979390.518    -2908477.405 6  -2266330.670 2
  23854135.429    -5028438.840 6  -3918260.325 4
  21676554.237     6323447.200 7   4927354.588 9
 91  5  6 19 23  0.0020000  0  5 19 16 11  2 18
  21618758.444     2498522.034 7   1946900.146 9
  25008599.011     -614005.135 5   -478444.234 2
  23979827.907    -2906162.470 6  -2264526.725 3
  23846783.015    -5067095.132 6  -3948381.891 5
  21695076.308     6420784.780 7   5003201.941 9
 91  5  6 19 23 30.0020000  0  5 19 16 11  2 18
  21627250.662     2543142.387 7   1981669.232 9
  25008201.487     -616071.549 5   -480054.397 3
  23980377.127    -2903274.349 6  -2262276.162 4
  23839482.472    -5105441.024 6  -3978261.579 4
  21713693.422     6518633.053 7   5079447.243 9
 91  5  6 19 24  0.0020000  0  5 19 16 11  2 18
  21635782.161     2587995.034 7   2016619.330 9
  25007911.586     -617587.530 5   -481235.662 3
  23981036.370    -2899821.094 6  -2259585.215 3
  23832243.083    -5143485.122 6  -4007906.106 3
  21732413.667     6616980.815 7   5156081.750 9
 91  5  6 19 24 30.0030000  0  5 19 16 11  2 18
  21644363.117     2633073.438 7   2051745.333 9
  25007727.210     -618561.161 5   -481994.327 2
  23981798.450    -2895808.725 6  -2256458.605 3
  23825060.655    -5181236.758 6  -4037322.749 4
  21751220.546     6715821.866 7   5233100.632 9
 91  5  6 19 25  0.0030000  0  5 19 16 11  2 18
  21652981.256     2678384.172 7   2087052.389 9
  25007653.466     -618981.103 5   -482321.558 2
  23982667.846    -2891225.829 6  -2252887.457 4
  23817934.589    -5218682.875 6  -4066501.319 4
  21770123.355     6815159.375 7   5310506.363 9
 91  5  6 19 25 30.0030000  0  5 19 16 11  2 18
  21661653.648     2723948.468 7   2122557.012 9
  25007667.854     -618825.851 4   -482200.576 3
  23983656.863    -2886049.826 6  -2248854.124 4
  23810871.177    -5255803.443 6  -4095426.223 4
  21789126.598     6915015.382 7   5388316.122 9
 91  5  6 19 26  0.0030000  0  5 19 16 11  2 18
  21670380.912     2769786.998 7   2158275.349 8
  25007824.940     -618074.625 5   -481615.150 3
  23984757.100    -2880258.470 6  -2244341.287 4
  23803872.523    -5292577.317 6  -4124080.966 4
  21808232.074     7015409.003 7   5466544.801 9
 91  5  6 19 26 30.0030000  0  5 19 16 11  2 18
  21679152.534     2815891.498 7   2194200.915 9
  25008072.271     -616734.075 5   -480570.558 2
  23985974.252    -2873858.149 6  -2239353.945 3
  23796941.017    -5329011.953 6  -4152471.394 5
  21827435.881     7116330.465 7   5545184.783 9
 91  5  6 19 27  0.0030000  0  5 19 16 11  2 18
  21687968.829     2862236.758 7   2230314.103 9
  25008440.113     -614828.475 5   -479085.651 2
  23987306.830    -2866872.160 6  -2233910.240 2
  23790061.382    -5365131.948 6  -4180616.653 5
  21846735.918     7217753.830 7   5624215.853 9
 91  5  6 19 27 30.0030000  0  5 19 16 11  2 18
  21696832.798     2908807.878 7   2266603.267 9
  25008904.498     -612372.529 5   -477171.927 3
  23988744.640    -2859313.517 6  -2228020.275 4
  23783252.194    -5400951.207 6  -4208527.546 5
  21866126.495     7319663.282 7   5703625.688 9
 91  5  6 19 28  0.0030000  0  5 19 16 11  2 18
  21705737.531     2955601.048 7   2303065.465 8
  25009480.399     -609369.067 5   -474831.523 2
  23990288.566    -2851184.118 6  -2221685.616 3
  23776487.983    -5436473.016 6  -4236206.666 4
  21885611.208     7422053.793 7   5783410.377 9
 91  5  6 19 28 30.0030000  0  5 19 16 11  2 18
  21714682.739     3002623.896 7   2339706.626 8
  25010162.127     -605809.549 5   -472057.840 2
  23991944.923    -2842474.359 6  -2214898.703 2
  23769789.115    -5471688.747 6  -4263647.298 5
  21905188.555     7524931.176 7   5863574.445 9
 91  5  6 19 29  0.0030000  0  5 19 16 11  2 18
  21723678.911     3049880.698 7   2376530.093 9
  25010931.995     -601689.113 5   -468847.106 3
  23993713.398    -2833178.946 6  -2207655.407 5
  23763149.918    -5506594.168 6  -4290846.117 5
  21924858.833     7628298.567 7   5944120.332 9
 91  5  6 19 29 30.0030000  0  5 19 16 11  2 18
  21732713.752     3097372.882 7   2413536.967 9
  25011836.170     -597004.464 5   -465196.703 2
  23995596.695    -2823294.072 6  -2199952.832 4
  23756558.377    -5541186.781 6  -4317801.204 5
  21944623.857     7732156.840 7   6025048.729 9
 91  5  6 19 30  0.0030000  0  5 19 16 11  2 18
  21741799.863     3145105.430 7   2450731.140 8
  25012823.381     -591750.914 5   -461103.002 3
  23997590.915    -2812813.361 6  -2191785.942 5
  23750044.787    -5575460.966 6  -4344508.153 5
  21964479.404     7836509.023 7   6106361.991 9
 91  5  6 19 30 30.0030000  0  5 19 16 11  2 18
  21750922.845     3193068.345 7   2488104.820 8
  25013938.310     -585937.286 5   -456572.873 2
  23999695.760    -2801744.832 6  -2183161.046 3
  23743583.059    -5609426.041 6  -4370974.256 5
  21984430.892     7941344.659 7   6188051.963 9
 91  5  6 19 31  0.0030000  0  5 19 16 11  2 18
  21760098.894     3241258.937 7   2525655.913 8
  25015143.178     -579565.780 5   -451608.060 2
  24001910.323    -2790089.913 6  -2174079.193 3
  23737170.802    -5643083.646 6  -4397200.752 5
  22004471.420     8046659.379 7   6270115.264 9
 91  5  6 19 31 30.0030000  0  5 19 16 11  2 18
  21769310.018     3289677.295 7   2563384.486 9
  25016462.563     -572635.227 5   -446207.604 2
  24004241.507    -2777845.993 6  -2164538.374 3
  23730826.592    -5676433.075 6  -4423187.134 4
  22024602.786     8152452.313 7   6352551.181 9
 91  5  6 19 32  0.0030000  0  5 19 16 11  2 18
  21778565.814     3338316.032 7   2601284.772 9
  25017890.776     -565152.448 5   -440376.819 4
  24006684.816    -2765019.071 6  -2154543.293 3
  23724531.844    -5709481.277 6  -4448938.778 5
  22044823.784     8258714.824 7   6435352.996 9
 91  5  6 19 32 30.0030000  0  5 19 16 11  2 18
  21787859.075     3387164.456 7   2639348.471 9
  25019410.122     -557128.276 5   -434124.202 2
  24009240.549    -2751618.397 6  -2144101.133 4
  23718305.458    -5742238.551 6  -4474464.210 4
  22065132.923     8365434.787 7   6518511.276 9
 91  5  6 19 33  0.0030000  0  5 19 16 11  2 18
  21797197.019     3436213.491 7   2677568.471 9
  25021051.787     -548570.187 5   -427455.544 2
  24011892.214    -2737651.613 6  -2133217.818 4
  23712120.438    -5774712.928 6  -4499768.734 5
  22085524.811     8472601.590 7   6602017.748 9
 91  5  6 19 33 30.0030000  0  5 19 16 11  2 18
  21806566.730     3485466.138 7   2715947.139 9
  25022776.191     -539475.214 5   -420368.532 3
  24014658.397    -2723114.200 6  -2121889.918 4
  23705998.378    -5806901.383 6  -4524850.452 5
  22106003.034     8580216.539 7   6685873.419 8
 91  5  6 19 34  0.0030000  0  5 19 16 11  2 18
  21815985.310     3534944.761 7   2754501.886 9
  25024611.518     -529819.601 5   -412844.625 3
  24017540.606    -2707982.152 6  -2110098.607 3
  23699932.081    -5838780.418 6  -4549691.085 5
  22126572.391     8688300.914 7   6770094.884 9
 91  5  6 19 34 30.0030000  0  5 19 16 11  2 18
  21825446.757     3584671.946 7   2793250.333 9
  25026564.668     -519580.750 5   -404866.321 3
  24020533.431    -2692231.637 6  -2097825.415 3
  23693932.033    -5870327.155 6  -4574272.765 4
  22147231.687     8796875.829 7   6854698.579 9
 91  5  6 19 35  0.0030000  0  5 19 16 11  2 18
  21834955.878     3634643.922 7   2832189.516 8
  25028628.444     -508761.903 5   -396436.032 4
  24023654.569    -2675865.055 6  -2085072.201 5
  23687986.551    -5901545.017 6  -4598598.183 5
  22167986.923     8905935.864 7   6939680.298 9
 91  5  6 19 35 30.0030000  0  5 19 16 11  2 18
  21844507.264     3684830.614 7   2871296.014 9
  25030785.448     -497393.160 5   -387577.243 3
  24026879.735    -2658910.824 6  -2071861.016 3
  23682104.319    -5932463.467 6  -4622690.305 6
  22188826.697     9015449.629 7   7025015.568 9
 91  5  6 19 36  0.0030000  0  5 19 16 11  2 18
  21854095.521     3735217.744 7   2910558.683 9
  25033048.881     -485487.765 5   -378300.299 2
  24030214.926    -2641381.743 6  -2058201.944 4
  23676273.660    -5963096.225 6  -4646559.824 6
  22209750.713     9125401.619 7   7110692.310 9
 91  5  6 19 36 30.0030000  0  5 19 16 11  2 18
  21863723.060     3785800.911 7   2949974.118 9
  25035415.445     -473049.558 5   -368608.207 3
  24033661.047    -2623280.834 6  -2044097.274 3
  23670496.355    -5993447.070 6  -4670209.653 5
  22230758.070     9235786.103 7   7196706.058 9
 91  5  6 19 37  0.0030000  0  5 19 16 11  2 18
  21873382.069     3836582.938 7   2989544.502 9
  25037881.239     -460076.077 5   -358498.995 2
  24037210.884    -2604603.789 6  -2029543.690 2
  23664776.916    -6023512.434 6  -4693637.048 6
  22251844.573     9346604.109 7   7283057.616 9
 91  5  6 19 37 30.0030000  0  5 19 16 11  2 18
  21883085.158     3887569.268 7   3029274.093 8
  25040449.553     -446560.936 5   -347967.706 3
  24040877.646    -2585344.437 6  -2014536.326 3
  23659114.433    -6053286.892 6  -4716837.763 5
  22273016.215     9457859.136 7   7369749.713 8
 91  5  6 19 38  0.0030000  0  5 19 16 11  2 18
  21892826.009     3938763.285 7   3069165.518 9
  25043137.498     -432500.379 5   -337011.434 4
  24044650.531    -2565497.572 6  -1999071.195 3
  23653496.929    -6082766.466 6  -4739808.682 5
  22294271.200     9569553.652 7   7456784.269 8
 91  5  6 19 38 30.0030000  0  5 19 16 11  2 18
  21902611.542     3990169.394 7   3109222.197 9
  25045908.775     -417889.268 5   -325626.184 4
  24048541.537    -2545057.569 6  -1983143.854 4
  23647946.268    -6111946.068 6  -4762545.886 5
  22315610.426     9681690.496 7   7544163.495 9
 91  5  6 19 39  0.0030000  0  5 19 16 11  2 18
  21912436.634     4041779.821 7   3149438.089 9
  25048797.877     -402735.639 5   -313818.200 3
  24052551.562    -2524031.395 6  -1966759.787 3
  23642457.372    -6140833.433 6  -4785055.362 5
  22337030.899     9794259.831 7   7631879.721 8
 91  5  6 19 39 30.0030000  0  5 19 16 11  2 18
  21922297.411     4093606.853 7   3189822.758 9
  25051783.208     -387026.851 5   -301577.599 1
  24056651.822    -2502405.286 6  -1949908.197 4
  23637012.537    -6169415.339 6  -4807326.827 5
  22358535.309     9907272.680 7   7719941.535 9
 91  5  6 19 40  0.0030000  0  5 19 16 11  2 18
  21932195.655     4145654.022 7   3230378.974 9
  25054885.464     -370758.830 5   -288901.218 3
  24060891.196    -2480174.553 6  -1932585.509 3
  23631633.063    -6197688.428 6  -4829357.648 6
  22380124.858    10020730.783 7   7808350.310 8
 91  5  6 19 40 30.0030000  0  5 19 16 11  2 18
  21942142.174     4197920.626 7   3271106.172 8
  25058086.052     -353932.621 5   -275789.951 3
  24065233.988    -2457339.085 6  -1914791.568 4
  23626315.344    -6225653.026 6  -4851148.098 6
  22401802.251    10134631.679 7   7897104.111 8
 91  5  6 19 41  0.0030000  0  5 19 16 11  2 18
  21952133.052     4250399.029 7   3311998.408 9
  25061392.162     -336555.779 5   -262249.586 3
  24069699.690    -2433905.547 6  -1896531.614 3
  23621047.385    -6253316.433 6  -4872703.844 5
  22423558.493    10248965.767 7   7986195.461 9
 91  5  6 19 41 30.0030000  0  5 19 16 11  2 18
  21962150.620     4303071.465 7   3353041.851 9
  25064796.603     -318645.166 5   -248293.292 3
  24074267.328    -2409889.997 6  -1877818.156 3
  23615834.002    -6280695.445 6  -4894037.985 5
  22445392.677    10363714.485 7   8075609.897 8
 91  5  6 19 42  0.0030000  0  6 19  6 16 11  2 18
  21972210.758     4355932.256 7   3394232.060 8
  25330743.392      -40346.996 4    -31438.967 2
  25068305.973     -300206.611 5   -233925.637 3
  24078945.296    -2385297.099 6  -1858654.803 2
  23610675.770    -6307795.790 6  -4915154.987 5
  22467308.405    10478870.317 7   8165341.568 8
 91  5  6 19 42 30.0040000  0  6 19  6 16 11  2 18
  21982308.966     4408978.178 7   3435566.513 9
  25327216.637      -58911.821 4    -45905.309 3
  25071910.676     -281245.084 5   -219150.451 3
  24083730.881    -2360130.316 6  -1839044.271 2
  23605570.302    -6334622.702 6  -4936058.917 5
  22489299.086    10594430.097 7   8255387.977 8
 91  5  6 19 43  0.0040000  0  6 19  6 16 11  2 18
  21992436.549     4462207.368 7   3477043.778 8
  25323685.376      -77440.629 4    -60343.113 2
  25075625.705     -261759.078 5   -203966.597 3
  24088633.084    -2334388.576 6  -1818985.719 3
  23600520.296    -6361172.644 6  -4956747.044 6
  22511362.905    10710386.102 7   8345743.152 9
 91  5  6 19 43 30.0040000  0  6 19  6 16 11  2 18
  22002599.216     4515621.393 7   3518665.075 8
  25320167.612      -95935.084 4    -74754.144 2
  25079426.476     -241748.611 5   -188374.042 2
  24093638.722    -2308070.314 6  -1798477.977 4
  23595512.563    -6387446.521 6  -4977220.033 5
  22533506.176    10826740.462 7   8436408.725 8
 91  5  6 19 44  0.0040000  0  6 19  6 16 11  2 18
  22012802.358     4569218.896 7   3560429.339 9
  25316665.738     -114397.355 4    -89140.095 2
  25083343.562     -221214.669 5   -172373.604 4
  24098762.176    -2281175.822 6  -1777521.158 4
  23590568.690    -6413445.012 6  -4997478.433 5
  22555724.701    10943489.695 7   8527382.005 8
 91  5  6 19 44 30.0040000  0  6 19  6 16 11  2 18
  22023035.166     4623010.990 7   3602345.237 9
  25313151.569     -132817.273 4   -103493.112 3
  25087351.789     -200146.685 5   -155957.045 2
  24103985.157    -2253693.249 6  -1756106.171 4
  23585681.468    -6439157.041 6  -5017513.637 6
  22578017.563    11060643.170 7   8618670.259 8
 91  5  6 19 45  0.0040000  0  6 19  6 16 11  2 18
  22033306.661     4676989.347 6   3644406.270 9
  25309641.004     -151204.414 4   -117820.549 2
  25091449.048     -178553.181 5   -139130.962 2
  24109330.159    -2225630.644 6  -1734239.147 5
  23580841.319    -6464591.261 6  -5037332.338 5
  22600385.976    11178190.171 7   8710265.158 8
 91  5  6 19 45 30.0040000  0  6 19  6 16 11  2 18
  22043616.825     4731164.930 7   3686620.986 9
  25306172.704     -169548.071 4   -132114.092 3
  25095662.935     -156423.355 5   -121886.942 3
  24114783.683    -2196975.925 6  -1711910.763 4
  23576051.836    -6489736.123 6  -5056925.585 6
  22622831.738    11296139.875 7   8802173.855 7
 91  5  6 19 46  0.0040000  0  6 19  6 16 11  2 18
  22053964.159     4785543.325 7   3728993.739 9
  25302684.318     -187843.521 4   -146370.061 2
  25099992.841     -133751.127 5   -104220.304 3
  24120349.631    -2167722.711 6  -1689116.015 4
  23571327.111    -6514585.363 6  -5076288.470 5
  22645355.449    11414496.846 7   8894399.902 7
 91  5  6 19 46 30.0040000  0  6 19  6 16 11  2 18
  22064351.069     4840116.428 7   3771518.217 9
  25299207.624     -206099.283 4   -160595.103 1
  25104398.890     -110544.593 5    -86137.326 2
  24126029.494    -2137878.109 6  -1665860.471 3
  23566653.044    -6539146.752 6  -5095427.043 6
  22667950.201    11533251.290 7   8986935.670 8
 91  5  6 19 47  0.0040000  0  6 19  6 16 11  2 18
  22074767.061     4894874.862 7   3814187.104 9
  25295730.633     -224325.469 4   -174797.148 2
  25108918.260      -86813.061 5    -67645.232 3
  24131815.794    -2107450.573 6  -1642150.668 3
  23562033.248    -6563429.264 6  -5114348.330 6
  22690623.504    11652391.869 7   9079772.317 8
 91  5  6 19 47 30.0040000  0  6 19  6 16 11  2 18
  22085225.613     4949815.299 7   3856997.813 8
  25292281.815     -242526.845 4   -188979.853 3
  25113525.764      -62560.727 4    -48747.327 2
  24137718.409    -2076443.430 6  -1617989.222 3
  23557464.405    -6587436.715 6  -5133055.274 6
  22713366.966    11771912.470 7   9172905.081 7
 91  5  6 19 48  0.0040000  0  6 19  6 16 11  2 18
  22095718.350     5004943.592 7   3899954.910 8
  25288822.510     -260697.850 4   -203138.868 3
  25118251.099      -37781.699 5    -29438.991 2
  24143727.147    -2044849.711 6  -1593370.713 4
  23552954.030    -6611162.801 6  -5151542.967 6
  22736188.963    11891817.453 7   9266337.377 7
 91  5  6 19 48 30.0040000  0  6 19  6 16 11  2 18
  22106242.865     5060258.001 7   3943057.027 8
  25285368.301     -278841.234 4   -217276.349 3
  25123063.965      -12478.123 5     -9721.968 4
  24149851.309    -2012670.495 6  -1568295.987 5
  23548488.624    -6634609.511 6  -5169812.987 7
  22759075.421    12012103.349 7   9360066.470 8
 91  5  6 19 49  0.0040000  0  6 19  6 16 11  2 18
  22116805.159     5115767.753 7   3986311.367 9
  25281921.892     -296948.546 4   -231385.782 2
  25127990.153       13359.608 5     10411.275 2
  24156087.284    -1979896.201 6  -1542757.555 5
  23544074.775    -6657767.169 6  -5187857.759 6
  22782041.024    12132777.706 7   9454098.274 8
 91  5  6 19 49 30.0040000  0  6 19  6 16 11  2 18
  22127406.419     5171472.363 7   4029717.523 9
  25278485.970     -315021.060 5   -245468.055 2
  25132987.991       39729.896 5     30959.532 3
  24162441.389    -1946526.631 6  -1516755.279 4
  23539731.686    -6680635.985 6  -5205677.452 6
  22805074.971    12253837.706 7   9548430.576 7
 91  5  6 19 50  0.0040000  0  6 19  6 16 11  2 18
  22138043.347     5227377.103 7   4073279.639 8
  25275050.947     -333054.058 4   -259519.566 2
  25138115.345       66637.961 5     51926.805 3
  24168904.618    -1912556.102 6  -1490284.717 4
  23535430.260    -6703210.618 6  -5223267.932 6
  22828187.174    12375286.933 7   9643066.167 7
 91  5  6 19 50 30.0040000  0  6 19  6 16 11  2 18
  22148719.556     5283480.743 7   4116996.735 9
  25271616.823     -351050.018 4   -273542.178 3
  25143341.930       94082.254 5     73311.924 2
  24175480.566    -1877985.530 6  -1463346.580 4
  23531196.889    -6725492.463 7  -5240630.257 6
  22851369.823    12497121.095 7   9738001.714 8
 91  5  6 19 51  0.0040000  0  6 19  6 16 11  2 18
  22159438.344     5339789.790 7   4160873.894 8
  25268213.882     -369002.940 5   -287531.307 3
  25148656.045      122069.158 5     95119.888 3
  24182177.628    -1842807.332 6  -1435934.985 4
  23527004.291    -6747474.593 6  -5257759.050 6
  22874627.421    12619345.561 7   9833241.386 7
 91  5  6 19 51 30.0040000  0  6 19  6 16 11  2 18
  22170194.597     5396303.456 6   4204910.483 9
  25264801.945     -386914.473 5   -301488.154 3
  25154092.180      150597.233 5    117349.504 3
  24188985.011    -1807022.110 6  -1408050.384 4
  23522882.148    -6769157.807 6  -5274654.911 5
  22897962.969    12741957.727 7   9928783.161 7
 91  5  6 19 52  0.0040000  0  6 19  6 16 11  2 18
  22180982.627     5453023.109 7   4249107.587 8
  25261401.997     -404783.889 4   -315412.228 4
  25159634.151      179667.359 5    140001.516 2
  24195906.622    -1770628.325 6  -1379691.590 3
  23518810.664    -6790540.680 7  -5291316.749 6
  22921367.166    12864956.448 7  10024626.137 8
 91  5  6 19 52 30.0040000  0  6 19  6 16 11  2 18
  22191816.525     5509947.780 7   4293464.438 8
  25257999.947     -422612.854 4   -329304.747 2
  25165258.252      209277.943 5    163074.687 3
  24202951.746    -1733626.191 6  -1350858.723 4
  23514800.045    -6811623.866 7  -5307745.069 6
  22944845.117    12988338.785 7  10120768.048 7
 91  5  6 19 53  0.0040000  0  6 19  6 16 11  2 18
  22202685.498     5567092.004 7   4337992.370 8
  25254627.282     -440387.470 4   -343154.927 2
  25171006.475      239443.656 5    186580.376 2
  24210111.387    -1696000.857 6  -1321540.275 4
  23510851.776    -6832392.909 7  -5323928.594 6
  22968399.508    13112117.902 7  10217219.123 7
 91  5  6 19 53 30.0040000  0  6 19  6 16 11  2 18
  22213604.544     5624462.049 7   4382696.266 9
  25251248.623     -458102.618 4   -356958.762 2
  25176841.340      270169.851 4    210522.806 1
  24217392.447    -1657745.998 6  -1291731.286 4
  23506958.973    -6852841.355 6  -5339862.317 7
  22992033.350    13236297.402 7  10313982.191 7
 91  5  6 19 54  0.0040000  0  6 19  6 16 11  2 18
  22224568.847     5682059.097 7   4427577.040 9
  25247893.348     -475757.787 4   -370715.867 2
  25182797.012      301457.487 5    234902.788 4
  24224794.925    -1618859.672 6  -1261430.240 4
  23503125.221    -6872968.265 7  -5355545.485 6
  23015737.333    13360876.304 7  10411056.474 7
 91  5  6 19 54 30.0040000  0  6 19  6 16 11  2 18
  22235571.236     5739875.436 7   4472628.691 9
  25244535.969     -493361.593 4   -384432.942 3
  25188861.817      333298.262 5    259713.701 4
  24232312.217    -1579349.748 6  -1230643.263 4
  23499357.431    -6892781.187 7  -5370983.993 6
  23039519.572    13485844.675 7  10508434.236 7
 91  5  6 19 55  0.0040000  0  6 19  6 16 11  2 18
  22246611.395     5797902.523 6   4517844.565 8
  25241198.083     -510923.232 4   -398117.167 3
  25195023.446      365683.291 5    284948.727 4
  24239945.239    -1539224.363 6  -1199376.733 5
  23495639.706    -6912288.734 6  -5386184.556 7
  23063374.054    13611192.011 7  10606107.289 7
 91  5  6 19 55 30.0040000  0  6 19  6 16 11  2 18
  22257695.922     5856136.638 7   4563221.750 8
  25237861.689     -528447.224 4   -411772.053 3
  25201291.808      398607.638 5    310604.034 2
  24247696.966    -1498487.400 6  -1167633.628 3
  23491985.534    -6931494.437 6  -5401149.908 6
  23087297.797    13736912.420 7  10704071.056 6
 91  5  6 19 56  0.0040000  0  6 19  6 16 11  2 18
  22268814.023     5914580.915 7   4608762.712 9
  25234542.692     -545931.035 5   -425395.588 3
  25207658.503      432073.948 5    336681.592 3
  24255567.416    -1457135.223 6  -1135411.133 4
  23488388.626    -6950395.196 6  -5415877.660 6
  23111290.188    13863006.968 7  10802326.357 7
 91  5  6 19 56 30.0040000  0  6 19  6 16 11  2 18
  22279977.695     5973239.926 7   4654470.984 9
  25231206.298     -563371.429 4   -438985.319 2
  25214124.725      466085.910 5    363184.359 2
  24263551.196    -1415163.532 6  -1102705.908 5
  23484853.177    -6968987.017 6  -5430364.677 6
  23135359.021    13989477.766 7  10900874.826 6
 91  5  6 19 57  0.0040000  0  6 19  6 16 11  2 18
  22291177.035     6032103.038 7   4700338.310 8
  25227904.385     -580779.423 4   -452549.838 3
  25220714.764      500632.766 5    390103.950 2
  24271653.986    -1372582.416 6  -1069525.794 4
  23481368.089    -6987280.254 7  -5444619.007 7
  23159494.120    14116312.083 7  10999706.570 7
 91  5  6 19 57 30.0040000  0  6 19  6 16 11  2 18
  22302419.853     6091185.257 6   4746376.375 8
  25224613.867     -598140.779 4   -466077.978 4
  25227389.342      535728.600 5    417451.296 4
  24279883.588    -1329376.884 6  -1035859.134 4
  23477949.251    -7005259.895 6  -5458628.997 6
  23183700.259    14243523.360 7  11098832.043 6
 91  5  6 19 58  0.0040000  0  6 19  6 16 11  2 18
  22313705.240     6150484.241 7   4792583.336 8
  25221309.555     -615458.809 5   -479572.366 2
  25234166.753      571369.696 5    445223.512 4
  24288218.719    -1285549.484 6  -1001707.892 5
  23474591.280    -7022928.656 7  -5472396.746 6
  23207981.051    14371105.895 7  11198246.815 7
 91  5  6 19 58 30.0040000  0  6 19  6 16 11  2 18
  22325028.704     6209993.354 7   4838954.034 9
  25218016.027     -632740.875 4   -493038.749 4
  25241057.783      607549.073 5    473415.164 4
  24296679.762    -1241106.948 6   -967077.332 5
  23471289.367    -7040292.635 7  -5485926.998 6
  23232329.296    14499051.514 7  11297944.494 7
 91  5  6 19 59  0.0040000  0  6 19  6 16 11  2 18
  22336395.933     6269708.592 7   4885485.347 9
  25214738.702     -649991.932 4   -506480.914 1
  25248033.953      644261.980 5    502022.552 4
  24305250.821    -1196053.546 6   -931970.774 4
  23468037.519    -7057356.785 7  -5499223.618 6
  23256742.596    14627353.433 7  11397919.825 6
 91  5  6 19 59 30.0040000  0  6 19  6 16 11  2 18
  22347793.743     6329623.854 7   4932172.540 8
  25211461.368     -667218.504 5   -519904.051 1
  25255113.550      681501.338 4    531040.149 3
  24313934.311    -1150394.839 6   -896392.535 5
  23464850.420    -7074126.776 7  -5512291.016 6
  23281224.544    14756003.553 7  11498166.473 7
 91  5  6 20  0  0.0050000  0  6 19  6 16 11  2 18
  22359238.018     6389760.585 7   4979032.292 8
  25208188.835     -684402.427 5   -533293.901 2
  25262313.966      719287.389 5    560483.766 2
  24322751.211    -1104110.020 6   -860326.458 2
  23461719.993    -7090583.596 7  -5525114.388 7
  23305776.943    14885023.343 7  11598701.169 6
 91  5  6 20  0 30.0050000  0  6 19  6 16 11  2 18
  22370721.875     6450109.266 7   5026057.190 8
  25204920.200     -701548.822 4   -546654.559 3
  25269607.311      757611.287 5    590346.457 2
  24331668.839    -1057207.550 6   -823779.058 4
  23458643.817    -7106732.163 7  -5537697.570 7
  23330394.105    15014396.973 7  11699511.591 6
 91  5  6 20  1  0.0050000  0  6 19  6 16 11  2 18
  22382248.294     6510673.367 7   5073249.965 8
  25201668.047     -718657.676 4   -559985.959 3
  25276992.104      796474.345 5    620629.252 3
  24340719.866    -1009684.826 6   -786748.318 5
  23455625.208    -7122571.433 7  -5550039.722 6
  23355086.206    15144127.657 7  11800600.241 6
 91  5  6 20  1 30.0050000  0  6 19  6 16 11  2 18
  22393816.680     6571442.215 7   5120602.269 8
  25198411.103     -735740.586 4   -573297.168 4
  25284482.714      835865.555 4    651323.644 3
  24349870.734     -961552.953 6   -749242.967 5
  23452668.958    -7138112.651 7  -5562149.636 6
  23379835.274    15274201.823 7  11901956.526 7
 91  5  6 20  2  0.0050000  0  6 19  6 16 11  2 18
  22405415.953     6632429.850 7   5168125.060 9
  25195178.738     -752784.202 5   -586577.730 3
  25292098.347      875796.721 5    682438.748 3
  24359150.507     -912798.146 6   -711252.198 5
  23449769.666    -7153341.950 7  -5574016.502 6
  23404654.492    15404631.535 7  12003589.874 6
 91  5  6 20  2 30.0050000  0  6 19  6 16 11  2 18
  22417060.789     6693630.932 7   5215814.171 8
  25191937.081     -769794.928 5   -599832.679 3
  25299801.816      916262.263 5    713970.280 3
  24368551.402     -863426.004 6   -672780.365 4
  23446928.229    -7168264.952 7  -5585644.685 7
  23429539.663    15535408.967 7  12105494.170 6
 91  5  6 20  3  0.0050000  0  6 19  6 16 11  2 18
  22428749.704     6755050.320 7   5263673.393 8
  25188711.016     -786768.283 5   -613058.514 2
  25307602.412      957266.468 5    745921.496 3
  24378058.420     -813431.763 6   -633823.806 3
  23444150.050    -7182876.644 7  -5597030.285 7
  23454490.194    15666536.789 6  12207671.504 6
 91  5  6 20  3 30.0050000  0  6 19  6 16 11  2 18
  22440481.477     6816683.442 7   5311699.167 8
  25185486.748     -803709.549 5   -626259.369 3
  25315506.436      998803.264 5    778287.745 3
  24387686.857     -762820.278 6   -594386.269 4
  23441432.135    -7197181.757 7  -5608176.997 7
  23479514.172    15798007.791 7  12310116.243 6
 91  5  6 20  4  0.0050000  0  6 19  6 16 11  2 18
  22452252.530     6878534.600 6   5359894.829 9
  25182266.982     -820614.931 5   -639432.250 2
  25323509.097     1040876.235 5    811071.786 4
  24397442.698     -711587.422 6   -554464.562 5
  23438765.776    -7211175.832 7  -5619081.330 7
  23504595.405    15929824.964 6  12412830.714 6
 91  5  6 20  4 30.0050000  0  6 19  6 16 11  2 18
  22464060.158     6940614.166 7   5408268.481 9
  25179058.602     -837475.134 5   -652569.930 2
  25331613.388     1083494.549 5    844280.747 2
  24407311.869     -659723.426 6   -514051.034 4
  23436163.582    -7224849.567 7  -5629736.057 7
  23529749.789    16061995.366 7  12515820.434 6
 91  5  6 20  5  0.0050000  0  6 19  6 16 11  2 18
  22475922.642     7002931.515 7   5456827.408 8
  25175858.014     -854281.779 5   -665665.860 2
  25339840.895     1126666.433 5    877921.108 2
  24417302.153     -607219.617 6   -473138.946 5
  23433624.942    -7238193.782 7  -5640134.017 6
  23554966.837    16194525.743 6  12619090.641 6
 91  5  6 20  5 30.0050000  0  6 19  6 16 11  2 18
  22487824.101     7065481.207 7   5505567.398 8
  25172661.326     -871040.831 4   -678724.732 3
  25348152.643     1170384.789 5    911987.301 2
  24427409.058     -554081.688 6   -431732.777 4
  23431145.057    -7251213.932 7  -5650279.463 7
  23580253.128    16327408.409 6  12722635.373 6
 91  5  6 20  6  0.0050000  0  6 19  6 16 11  2 18
  22499767.832     7128266.329 7   5554490.829 8
  25169485.029     -887749.518 5   -691744.368 3
  25356585.505     1214651.947 5    946481.094 3
  24437644.867     -500306.406 6   -389829.936 5
  23428736.525    -7263906.938 7  -5660169.988 7
  23605607.474    16460644.572 6  12826455.543 6
 91  5  6 20  6 30.0050000  0  6 19  6 16 11  2 18
  22511760.433     7191280.778 7   5603592.955 8
  25166314.420     -904414.804 5   -704730.152 3
  25365099.605     1259460.877 5    981397.069 2
  24448002.400     -445900.623 6   -347435.801 5
  23426379.254    -7276279.222 7  -5669810.606 6
  23631029.876    16594225.753 6  12930544.571 6
 91  5  6 20  7  0.0050000  0  6 19  6 16 11  2 18
  22523797.096     7254536.923 7   5652883.426 8
  25163152.807     -921025.452 5   -717673.390 2
  25373732.429     1304822.660 5   1016743.814 2
  24458472.051     -390852.843 6   -304541.407 5
  23424088.843    -7288318.982 7  -5679192.113 7
  23656519.130    16728161.257 6  13034909.677 6
 91  5  6 20  7 30.0050000  0  6 19  6 16 11  2 18
  22535886.834     7318041.705 7   5702367.629 9
  25160004.090     -937575.381 5   -730569.270 3
  25382467.188     1350742.324 5   1052525.252 2
  24469067.317     -335157.017 6   -261142.032 5
  23421861.079    -7300019.950 7  -5688309.635 6
  23682072.845    16862455.051 6  13139553.963 6
 91  5  6 20  8  0.0050000  0  6 19  6 16 11  2 18
  22548018.827     7381798.715 7   5752048.386 8
  25156864.063     -954061.157 5   -743415.164 3
  25391307.765     1397222.955 5   1088743.820 3
  24479798.093     -278809.586 6   -217234.944 5
  23419693.587    -7311378.212 7  -5697160.108 7
  23707692.810    16997109.322 6  13244479.138 6
 91  5  6 20  8 30.0050000  0  6 19  6 16 11  2 18
  22560192.501     7445802.315 7   5801921.294 8
  25153745.029     -970489.359 5   -756216.210 4
  25400266.462     1444257.637 5   1125394.144 3
  24490638.281     -221817.067 6   -172825.148 4
  23417598.933    -7322399.905 7  -5705748.327 7
  23733384.119    17132115.812 6  13349678.791 6
 91  5  6 20  9  0.0050000  0  6 19  6 16 11  2 18
  22572421.334     7510047.825 7   5851982.693 8
  25150625.087     -986865.293 5   -768976.517 2
  25409326.790     1491839.335 5   1162470.674 3
  24501604.696     -164184.514 6   -127916.647 4
  23415563.042    -7333090.107 7  -5714078.246 7
  23759144.689    17267466.914 6  13455146.949 6
 91  5  6 20  9 30.0050000  0  6 19  6 16 11  2 18
  22584694.840     7574538.795 7   5902235.371 9
  25147517.735    -1003186.437 5   -781694.106 3
  25418469.561     1539970.649 5   1199975.498 3
  24512701.211     -105909.305 6    -82507.382 4
  23413596.106    -7343445.690 7  -5722147.429 8
  23784963.709    17403163.787 6  13560884.540 5
 91  5  6 20 10  0.0050000  0  6 19  6 16 11  2 18
  22597013.917     7639265.715 6   5952671.888 9
  25144427.476    -1019462.405 5   -794376.528 3
  25427742.737     1588641.261 5   1237900.533 3
  24523908.352      -47001.325 6    -36605.057 4
  23411681.032    -7353476.350 7  -5729963.427 8
  23810849.292    17539194.424 6  13666882.212 6
 91  5  6 20 10 30.0050000  0  6 19  6 16 11  2 18
  22609372.859     7704215.894 7   6003282.383 8
  25141334.512    -1035707.166 5   -807034.599 3
  25437113.653     1637836.956 5   1276234.743 2
  24535234.808       12525.436 6      9779.457 4
  23409837.608    -7363195.137 7  -5737536.418 7
  23836800.226    17675543.715 6  13773128.169 5
 91  5  6 20 11  0.0050000  0  6 19  6 16 11  2 18
  22621769.276     7769376.325 7   6054056.709 8
  25138241.854    -1051934.228 4   -819678.891 3
  25446563.408     1687542.868 5   1314966.500 3
  24546672.789       72657.243 6     56635.410 5
  23408043.351    -7372615.457 7  -5744876.831 7
  23862803.624    17812195.924 6  13879610.666 6
 91  5  6 20 11 30.0050000  0  6 19  6 16 11  2 18
  22634211.560     7834743.349 6   6104992.008 8
  25135162.990    -1068147.657 5   -832312.554 3
  25456123.196     1737754.508 5   1354092.349 2
  24558239.980      133390.112 6    103959.715 4
  23406308.747    -7381741.242 7  -5751987.743 7
  23888865.184    17949145.017 6  13986324.498 6
 91  5  6 20 12  0.0050000  0  6 19  6 16 11  2 18
  22646685.927     7900310.701 6   6156083.420 8
  25132082.023    -1084354.676 5   -844941.234 2
  25465775.914     1788463.654 5   1393605.835 2
  24569902.807      194716.552 6    151746.534 4
  23404626.013    -7390579.433 7  -5758874.563 7
  23914973.205    18086382.726 6  14093262.728 6
 91  5  6 20 12 30.0050000  0  6 19  6 16 11  2 18
  22659199.565     7966080.011 7   6207332.200 8
  25129005.550    -1100554.279 5   -857564.092 4
  25475518.563     1839670.748 5   1433507.396 3
  24581686.450      256637.468 6    199996.611 4
  23402999.042    -7399128.551 7  -5765536.119 6
  23941147.485    18223907.433 6  14200425.105 6
 91  5  6 20 13  0.0050000  0  6 19  6 16 11  2 18
  22671758.164     8032052.009 6   6258738.911 8
  25125905.702    -1116746.076 5   -870180.905 3
  25485354.753     1891375.701 5   1473796.843 2
  24593583.712      319153.184 6    248710.114 5
  23401424.527    -7407387.856 7  -5771971.863 7
  23967376.628    18361717.512 6  14307809.839 5
 91  5  6 20 13 30.0050000  0  6 19  6 16 11  2 18
  22684348.854     8098223.740 7   6310301.258 9
  25122827.728    -1132934.141 5   -882794.795 2
  25495292.574     1943572.259 5   1514469.354 3
  24605592.202      382259.356 6    297883.723 4
  23399911.183    -7415361.215 7  -5778184.790 7
  23993648.943    18499806.936 6  14415412.220 5
 91  5  6 20 14  0.0050000  0  6 19  6 16 11  2 18
  22696976.713     8164587.008 7   6362012.848 8
  25119754.858    -1149127.676 5   -895412.972 3
  25505309.540     1996251.138 5   1555517.722 4
  24617714.911      445946.551 6    347510.077 4
  23398448.488    -7423057.873 7  -5784182.102 7
  24019980.615    18638164.843 6  14523223.835 5
 91  5  6 20 14 30.0050000  0  6 19  6 16 11  2 18
  22709641.139     8231151.971 6   6413881.619 8
  25116663.098    -1165316.711 5   -908027.623 2
  25515422.438     2049420.887 5   1596948.575 4
  24629944.644      510224.229 6    397596.531 5
  23397033.773    -7430467.704 7  -5789955.918 7
  24046360.249    18776799.407 6  14631250.516 5
 91  5  6 20 15  0.0050000  0  6 19  6 16 11  2 18
  22722353.238     8297928.869 6   6465915.529 8
  25113588.727    -1181491.511 5   -920631.188 2
  25525644.165     2103090.841 5   1638769.202 2
  24642288.299      575101.812 6    448150.458 5
  23395677.812    -7437580.813 7  -5795498.516 6
  24072797.145    18915718.357 6  14739499.296 5
 91  5  6 20 15 30.0050000  0  6 19  6 16 11  2 18
  22735096.522     8364918.324 7   6518115.067 8
  25110515.255    -1197652.071 5   -933223.655 4
  25535953.126     2157260.020 5   1680978.813 3
  24654749.474      640578.946 6    499171.559 5
  23394379.411    -7444396.976 7  -5800809.730 7
  24099286.515    19054919.680 6  14847968.103 5
 91  5  6 20 16  0.0050000  0  6 19  6 16 11  2 18
  22747891.361     8432137.047 6   6570493.245 8
  25107442.377    -1213782.718 5   -945792.803 3
  25546358.926     2211943.018 5   1723588.799 2
  24667323.368      706670.923 6    550671.734 5
  23393149.956    -7450900.446 7  -5805877.285 7
  24125829.238    19194417.018 6  14956667.564 5
 91  5  6 20 16 30.0050000  0  6 19  6 16 11  2 18
  22760729.077     8499596.128 6   6623058.716 8
  25104384.793    -1229872.777 5   -958330.334 3
  25556865.449     2267149.449 5   1766606.666 2
  24680023.776      773388.044 6    602659.015 5
  23391972.677    -7457080.379 7  -5810692.743 7
  24152434.320    19334219.243 6  15065604.600 5
 91  5  6 20 17  0.0050000  0  6 19  6 16 11  2 18
  22773609.955     8567297.189 7   6675812.763 8
  25101331.712    -1245921.113 5   -970835.359 4
  25567469.109     2322878.985 5   1810032.116 3
  24692834.504      840730.642 6    655133.732 5
  23390858.943    -7462935.230 7  -5815254.880 7
  24179098.462    19474324.599 6  15174777.858 5
 91  5  6 20 17 30.0060000  0  6 19  6 16 11  2 18
  22786536.111     8635238.370 7   6728753.899 8
  25098281.618    -1261933.353 5   -983312.263 3
  25578184.593     2379127.854 5   1853862.284 2
  24705768.155      908695.585 6    708093.372 4
  23389801.280    -7468469.743 7  -5819567.402 8
  24205818.963    19614731.313 6  15284185.926 4
 91  5  6 20 18  0.0060000  0  6 19  6 16 11  2 18
  22799507.826     8703398.988 6   6781866.036 8
  25095237.532    -1277924.809 5   -995772.960 2
  25588977.421     2435874.312 5   1898080.133 3
  24718819.618      977261.326 6    761521.155 4
  23388807.769    -7473700.358 7  -5823643.123 8
  24232589.229    19755411.556 6  15393807.111 5
 91  5  6 20 18 30.0060000  0  6 19  6 16 11  2 18
  22812522.120     8771776.262 7   6835146.992 8
  25092200.330    -1293901.793 5  -1008222.391 4
  25599860.485     2493113.294 5   1942681.810 4
  24731977.509     1046423.455 6    815413.678 5
  23387870.317    -7478632.959 7  -5827486.614 7
  24259406.261    19896362.369 6  15503639.153 6
 91  5  6 20 19  0.0060000  0  6 19  6 16 11  2 18
  22825575.982     8840365.104 6   6888592.794 8
  25089164.629    -1309870.057 5  -1020665.029 2
  25610846.078     2550838.170 5   1987662.085 4
  24745248.121     1116176.090 6    869766.308 5
  23386986.525    -7483273.562 7  -5831102.576 8
  24286285.355    20037575.710 6  15613675.762 5
 91  5  6 20 19 30.0060000  0  6 19  6 16 11  2 18
  22838671.516     8909190.623 7   6942223.031 8
  25086123.536    -1325804.916 5  -1033081.643 4
  25621930.011     2609072.453 5   2033039.313 2
  24758638.947     1186542.839 6    924597.484 5
  23386160.598    -7487597.342 7  -5834471.660 7
  24313206.713    20179074.142 6  15723934.511 5
 91  5  6 20 20  0.0060000  0  6 19  6 16 11  2 18
  22851815.918     8978253.167 6   6996037.970 8
  25083102.232    -1341706.987 5  -1045472.694 4
  25633116.465     2667814.156 5   2078811.932 2
  24772150.895     1257522.307 6    979906.119 4
  23385399.428    -7491604.555 7  -5837594.062 7
  24340188.336    20320855.038 6  15834413.366 5
 91  5  6 20 20 30.0060000  0  6 19  6 16 11  2 18
  22865000.788     9047552.213 6   7050037.187 8
  25080074.322    -1357576.888 5  -1057838.683 3
  25644378.163     2727061.382 5   2124978.482 1
  24785774.367     1329113.660 6   1035691.567 4
  23384695.809    -7495295.753 7  -5840470.217 7
  24367226.323    20462915.271 6  15945109.897 4
 91  5  6 20 21  0.0060000  0  6 19  6 16 11  2 18
  22878233.925     9117091.384 6   7104223.524 8
  25077064.709    -1373411.759 5  -1070177.377 3
  25655755.889     2786815.245 5   2171539.813 4
  24799509.957     1401318.827 6   1091955.297 5
  23384056.058    -7498668.124 7  -5843097.922 8
  24394309.270    20605256.223 6  16056025.132 5
 91  5  6 20 21 30.0060000  0  6 19  6 16 11  2 18
  22891511.735     9186890.781 6   7158612.618 7
  25074062.591    -1389192.225 5  -1082473.694 2
  25667215.159     2847094.186 5   2218510.269 2
  24813373.562     1474156.404 6   1148711.810 5
  23383481.352    -7501702.564 7  -5845462.324 8
  24421453.380    20747894.531 6  16167172.084 5
 91  5  6 20 22  0.0060000  0  6 19  6 16 11  2 18
  22904846.205     9256955.600 6   7213208.549 8
  25071067.959    -1404913.931 5  -1094724.230 3
  25678787.742     2907901.201 5   2265892.208 2
  24827358.279     1547630.203 6   1205964.087 5
  23382965.114    -7504394.618 7  -5847559.923 7
  24448655.050    20890832.888 6  16278552.826 5
 91  5  6 20 22 30.0060000  0  6 19  6 16 11  2 18
  22918231.639     9327271.142 6   7267999.843 7
  25068082.026    -1420591.528 5  -1106940.370 3
  25690462.565     2969219.961 5   2313672.929 2
  24841448.519     1621724.079 6   1263699.567 5
  23382516.617    -7506759.216 7  -5849402.369 8
  24475903.181    21034054.414 6  16390154.239 5
 91  5  6 20 23  0.0060000  0  6 19  6 16 11  2 18
  22931652.444     9397818.030 6   7322971.402 8
  25065107.183    -1436244.885 5  -1119137.636 3
  25702229.718     3031029.488 5   2361836.063 4
  24855670.080     1696417.568 6   1321902.290 4
  23382122.992    -7508815.789 7  -5851004.783 8
  24503211.577    21177537.251 6  16501959.264 5
 91  5  6 20 23 30.0060000  0  6 19  6 16 11  2 18
  22945119.423     9468588.670 6   7378117.328 7
  25062136.240    -1451882.521 5  -1131322.639 3
  25714079.612     3093319.744 5   2410373.769 2
  24869994.763     1771701.186 6   1380564.835 4
  23381791.124    -7510573.256 7  -5852374.139 8
  24530568.239    21321270.463 6  16613959.381 5
 91  5  6 20 24  0.0060000  0  6 19  6 16 11  2 18
  22958631.668     9539573.303 6   7433429.998 8
  25059159.905    -1467514.413 5  -1143503.178 4
  25726019.147     3156078.756 4   2459276.754 3
  24884432.166     1847563.833 6   1439678.577 5
  23381510.219    -7512041.758 7  -5853518.344 8
  24557956.984    21465241.147 6  16726144.554 5
 91  5  6 20 24 30.0060000  0  6 19  6 16 11  2 18
  22972175.994     9610766.495 6   7488905.173 7
  25056179.067    -1483146.644 5  -1155683.964 3
  25738045.924     3219299.496 5   2508539.506 2
  24898974.497     1923998.580 6   1499238.091 4
  23381284.771    -7513227.268 7  -5854442.024 8
  24585401.177    21609441.292 6  16838508.502 5
 91  5  6 20 25  0.0060000  0  6 19  6 16 11  2 18
  22985764.086     9682175.442 6   7544548.484 8
  25053212.321    -1498773.118 5  -1167860.278 3
  25750174.026     3282986.640 5   2558165.711 2
  24913631.955     2001010.452 6   1559247.350 5
  23381113.288    -7514123.778 7  -5855140.510 8
  24612873.264    21753875.561 6  16951054.905 5
 91  5  6 20 25 30.0060000  0  6 19  6 16 11  2 18
  22999394.748     9753789.521 6   7600351.628 7
  25050240.775    -1514403.914 5  -1180039.942 4
  25762383.376     3347127.637 5   2608145.538 2
  24928390.730     2078588.335 6   1619697.616 5
  23380997.270    -7514741.502 7  -5855621.770 8
  24640411.601    21898530.800 6  17063773.477 5
 91  5  6 20 26  0.0060000  0  6 19  6 16 11  2 18
  23013063.792     9825631.199 6   7656332.120 7
  25047265.339    -1530017.370 5  -1192206.143 3
  25774674.568     3411743.845 5   2658495.648 3
  24943270.635     2156752.634 6   1680604.837 4
  23380939.414    -7515059.144 7  -5855869.209 8
  24667989.803    22043426.710 6  17176679.586 4
 91  5  6 20 26 30.0060000  0  6 19  6 16 11  2 18
  23026778.991     9897711.988 6   7712498.934 8
  25044298.296    -1545602.565 5  -1204350.297 4
  25787070.382     3476844.096 5   2709222.924 2
  24958250.967     2235513.138 6   1741976.645 4
  23380933.114    -7515065.914 7  -5855874.412 9
  24695607.286    22188571.626 6  17289779.716 4
 91  5  6 20 27  0.0060000  0  6 19  6 16 11  2 18
  23040544.264     9970035.909 6   7768855.197 7
  25041338.739    -1561156.188 5  -1216469.860 2
  25799538.755     3542429.447 4   2760328.213 1
  24973355.404     2314872.049 6   1803814.707 3
  23380991.573    -7514758.675 7  -5855634.931 8
  24723271.238    22333967.286 6  17403075.233 4
 91  5  6 20 27 30.0060000  0  6 19  6 16 11  2 18
  23054352.106    10042594.601 6   7825394.409 8
  25038391.781    -1576686.903 5  -1228571.569 3
  25812109.351     3608489.600 5   2811803.461 3
  24988569.874     2394819.262 6   1866111.214 4
  23381109.693    -7514146.229 7  -5855157.632 9
  24750985.246    22479602.236 6  17516557.198 4
 91  5  6 20 28  0.0060000  0  6 19  6 16 11  2 18
  23068201.620    10115383.326 6   7882112.859 7
  25035435.225    -1592199.759 5  -1240659.361 4
  25824772.581     3675017.918 5   2863643.524 2
  25003892.570     2475348.771 6   1928861.444 4
  23381283.872    -7513233.962 7  -5854446.699 9
  24778745.733    22625468.974 6  17630219.776 4
 91  5  6 20 28 30.0060000  0  6 19  6 16 11  2 18
  23082098.197    10188400.101 6   7939009.016 7
  25032485.868    -1607697.188 5  -1252735.116 4
  25837524.258     3742010.853 5   2915845.636 2
  25019328.579     2556456.802 6   1992062.484 4
  23381512.915    -7512024.843 7  -5853504.463 9
  24806544.288    22771562.474 6  17744059.049 4
 91  5  6 20 29  0.0060000  0  6 19  6 16 11  2 18
  23096035.851    10261642.475 6   7996080.964 7
  25029532.916    -1623182.419 5  -1264801.384 5
  25850364.966     3809463.019 5   2968405.571 2
  25034873.721     2638138.848 6   2055710.784 5
  23381795.923    -7510522.150 7  -5852333.465 9
  24834392.009    22917878.132 6  17858071.427 5
 91  5  6 20 29 30.0060000  0  6 19  6 16 11  2 18
  23110016.372    10335117.020 6   8053333.835 7
  25026587.450    -1638649.016 5  -1276853.124 4
  25863286.320     3877378.744 5   3021326.736 2
  25050529.175     2720400.116 6   2119810.412 5
  23382143.078    -7508719.725 7  -5850928.910 9
  24862271.506    23064419.357 6  17972259.589 4
 91  5  6 20 30  0.0060000  0  6 19  6 16 11  2 18
  23124040.955    10408827.280 6   8110770.359 7
  25023650.989    -1654094.112 5  -1288888.111 4
  25876293.712     3945759.929 5   3074610.599 2
  25066290.168     2803242.038 6   2184362.536 4
  23382544.206    -7506614.710 7  -5849288.571 8
  24890207.664    23211186.500 6  18086623.757 5
 91  5  6 20 30 30.0060000  0  6 19  6 16 11  2 18
  23138112.619    10482768.891 6   8168387.163 7
  25020725.311    -1669522.424 5  -1300910.023 4
  25889383.853     4014599.248 4   3128251.405 3
  25082163.279     2886658.655 6   2249362.444 5
  23382997.187    -7504212.100 7  -5847416.348 8
  24918176.507    23358173.089 6  18201158.937 4
 91  5  6 20 31  0.0060000  0  6 19  6 16 11  2 18
  23152223.249    10556933.272 6   8226177.561 7
  25017790.045    -1684942.592 5  -1312925.612 3
  25902580.415     4083886.048 5   3182240.951 4
  25098146.117     2970639.515 6   2314802.042 4
  23383511.332    -7501520.998 7  -5845319.304 8
  24946187.012    23505367.637 6  18315856.154 3
 91  5  6 20 31 30.0060000  0  6 19  6 16 11  2 18
  23166382.443    10631318.498 6   8284140.046 7
  25014843.681    -1700357.141 5  -1324936.809 3
  25915853.426     4153616.313 5   3236576.068 2
  25114234.179     3055180.521 6   2380678.110 4
  23384081.238    -7498544.334 7  -5842999.759 9
  24974232.600    23652765.273 6  18430711.608 4
 91  5  6 20 32  0.0060000  0  6 19  6 16 11  2 18
  23180578.221    10705931.781 6   8342280.225 7
  25011913.510    -1715759.626 5  -1336938.615 2
  25929192.992     4223794.432 5   3291260.134 3
  25130430.468     3140287.120 6   2446994.883 4
  23384698.208    -7495276.010 7  -5840452.936 9
  25002321.649    23800370.021 6  18545728.459 4
 91  5  6 20 32 30.0060000  0  6 19  6 16 11  2 18
  23194824.657    10780783.642 6   8400606.325 7
  25008987.239    -1731139.286 5  -1348922.648 5
  25942650.678     4294428.947 5   3346299.861 3
  25146732.278     3225967.892 6   2513759.073 4
  23385381.140    -7491705.669 7  -5837670.768 9
  25030449.681    23948190.005 6  18660913.024 4
 91  5  6 20 33  0.0060000  0  6 19  6 16 11  2 18
  23209114.266    10855876.086 6   8459119.886 7
  25006068.455    -1746494.746 5  -1360887.801 3
  25956171.019     4365519.689 5   3401695.051 2
  25163144.714     3312223.213 6   2580970.970 4
  23386115.925    -7487832.284 7  -5834652.470 9
  25058625.073    24096224.354 6  18776264.614 5
 91  5  6 20 33 30.0060000  0  6 19  6 16 11  2 18
  23223450.038    10931214.438 6   8517825.059 7
  25003157.470    -1761821.124 5  -1372830.302 4
  25969781.291     4437069.065 5   3457447.586 1
  25179669.878     3399056.454 6   2648633.199 5
  23386910.974    -7483651.286 7  -5831394.463 9
  25086832.250    24244475.783 6  18891785.373 3
 91  5  6 20 34  0.0060000  0  6 19  6 16 11  2 18
  23237832.586    11006800.449 6   8576723.205 7
  25000243.188    -1777116.886 5  -1384748.967 5
  25983490.801     4509076.775 5   3513557.286 2
  25196306.261     3486467.234 6   2716745.447 4
  23387764.787    -7479161.706 7  -5827896.006 9
  25115087.687    24392942.964 6  19007474.244 4
 91  5  6 20 34 30.0060000  0  6 19  6 16 11  2 18
  23252266.691    11082650.919 6   8635827.432 7
  24997346.295    -1792365.621 6  -1396630.980 4
  25997293.845     4581557.205 5   3570035.352 2
  25213048.166     3574470.157 6   2785319.127 4
  23388680.653    -7474347.678 7  -5824144.731 9
  25143383.302    24541639.615 6  19123341.915 4
 91  5  6 20 35  0.0070000  0  6 19  6 16 11  2 18
  23266750.261    11158765.653 6   8695137.585 6
  24994443.105    -1807571.087 5  -1408479.277 5
  26011177.835     4654507.535 5   3626880.034 2
  25229906.100     3663063.427 6   2854352.797 4
  23389658.872    -7469212.455 7  -5820143.180 8
  25171724.474    24690565.481 6  19239388.208 5
 91  5  6 20 35 30.0070000  0  6 19  6 16 11  2 18
  23281285.403    11235135.287 6   8754646.353 7
  24991557.904    -1822736.464 6  -1420296.332 4
  26025140.068     4727916.166 4   3684081.362 2
  25246878.252     3752234.999 6   2923837.095 5
  23390696.462    -7463761.236 7  -5815895.414 9
  25200102.830    24839703.465 6  19355599.777 4
 91  5  6 20 36  0.0070000  0  6 19  6 16 11  2 18
  23295859.816    11311744.624 6   8814341.912 7
  24988679.595    -1837880.410 6  -1432096.695 4
  26039189.544     4801765.575 4   3741626.153 2
  25263957.426     3841968.271 6   2993759.090 5
  23391792.501    -7458012.372 7  -5811415.700 9
  25228515.065    24989038.209 5  19471964.666 4
 91  5  6 20 36 30.0070000  0  6 19  6 16 11  2 18
  23310487.889    11388609.192 6   8874236.340 7
  24985800.990    -1852987.751 5  -1443868.547 3
  26053328.059     4876068.566 4   3799524.842 3
  25281138.535     3932276.327 6   3064128.950 5
  23392937.410    -7451951.196 7  -5806692.638 9
  25256983.053    25138582.019 6  19588492.484 4
 91  5  6 20 37  0.0070000  0  6 19  6 16 11  2 18
  23325162.126    11465738.808 6   8934337.309 7
  24982942.766    -1868049.144 5  -1455604.588 4
  26067559.802     4950832.263 4   3857782.100 4
  25298432.364     4023166.959 6   3134952.808 4
  23394159.056    -7445568.716 7  -5801719.201 9
  25285483.726    25288341.876 6  19705188.602 3
 91  5  6 20 37 30.0070000  0  6 19  6 16 11  2 18
  23339893.931    11543130.329 6   8994642.347 7
  24980078.549    -1883067.512 5  -1467307.128 5
  26081866.503     5026052.109 5   3916394.764 3
  25315841.312     4114635.049 6   3206226.612 4
  23395434.981    -7438868.724 7  -5796498.367 9
  25314011.377    25438312.356 5  19822048.867 4
 91  5  6 20 38  0.0070000  0  6 19  6 16 11  2 18
  23354677.590    11620796.159 6   9055161.160 7
  24977229.923    -1898030.828 6  -1478966.729 4
  26096265.236     5101737.388 5   3975370.520 3
  25333361.479     4206691.106 6   3277958.576 4
  23396768.457    -7431839.555 7  -5791021.035 9
  25342595.384    25588502.787 5  19939080.539 2
 91  5  6 20 38 30.0070000  0  6 19  6 16 11  2 18
  23369506.226    11698745.079 6   9115900.536 7
  24974396.583    -1912930.549 6  -1490576.807 4
  26110757.502     5177894.203 4   4034713.289 3
  25350990.474     4299341.522 6   3350153.686 5
  23398171.481    -7424473.229 7  -5785280.944 9
  25371223.164    25738919.080 5  20056288.169 4
 91  5  6 20 39  0.0070000  0  6 19  6 16 11  2 18
  23384392.719    11776976.440 6   9176860.006 7
  24971573.740    -1927767.735 6  -1502138.153 5
  26125348.694     5254519.135 4   4094421.251 2
  25368734.292     4392583.193 6   3422809.524 5
  23399636.270    -7416771.246 7  -5779279.334 9
  25399886.028    25889557.491 5  20173668.879 3
 91  5  6 20 39 30.0070000  0  6 19  6 16 11  2 18
  23399334.974    11855495.342 6   9238043.529 6
  24968762.885    -1942537.427 6  -1513646.869 4
  26140026.238     5331614.817 4   4154495.605 2
  25386585.437     4486419.334 6   3495928.564 5
  23401167.910    -7408729.400 7  -5773012.897 9
  25428590.851    26040420.889 5  20291224.912 4
 91  5  6 20 40  0.0070000  0  6 19  6 16 11  2 18
  23414327.303    11934286.882 6   9299439.488 7
  24965968.817    -1957255.080 6  -1525115.074 3
  26154773.024     5409163.131 4   4214923.144 1
  25404559.493     4580832.200 6   3569497.021 5
  23402755.313    -7400363.951 7  -5766494.296 9
  25457342.745    26191490.552 5  20408941.688 3
 91  5  6 20 40 30.0070000  0  6 19  6 16 11  2 18
  23429369.687    12013341.581 6   9361040.532 7
  24963173.554    -1971930.119 6  -1536550.041 4
  26169615.150     5487152.640 4   4275693.981 3
  25422626.785     4675810.290 6   3643505.910 4
  23404411.661    -7391684.954 7  -5759731.372 9
  25486131.521    26342754.571 5  20526809.883 4
 91  5  6 20 41  0.0070000  0  6 19  6 16 11  2 18
  23444464.535    12092657.481 6   9422845.085 7
  24960386.685    -1986564.670 6  -1547953.455 5
  26184540.923     5565579.292 4   4336805.857 3
  25440807.094     4771349.581 6   3717952.076 5
  23406121.381    -7382695.229 7  -5752726.332 9
  25514946.368    26494208.024 5  20644825.691 3
 91  5  6 20 41 30.0070000  0  6 19  6 16 11  2 18
  23459611.246    12172229.127 6   9484848.926 7
  24957607.310    -2001164.518 5  -1559329.837 4
  26199543.730     5644434.624 4   4398251.794 1
  25459099.529     4867442.350 6   3792829.549 4
  23407888.957    -7373400.966 7  -5745483.976 9
  25543803.191    26645842.891 5  20762982.852 3
 91  5  6 20 42  0.0070000  0  6 19  6 16 11  2 18
  23474796.338    12252056.365 6   9547051.938 7
  24954839.025    -2015729.482 6  -1570679.026 5
  26214622.393     5723716.026 4   4460029.278 2
  25477484.607     4964086.422 6   3868136.582 3
  23409717.688    -7363802.600 7  -5738004.662 9
  25572692.995    26797656.488 5  20881279.309 3
 91  5  6 20 42 30.0070000  0  6 19  6 16 11  2 18
  23490032.987    12332129.129 6   9609446.260 6
  24952066.543    -2030270.122 6  -1582009.285 5
  26229805.680     5803410.552 4   4522128.703 2
  25495976.699     5061268.998 6   3943863.236 4
  23411599.485    -7353911.336 7  -5730297.114 9
  25601610.074    26949635.108 5  20999704.315 4
 91  5  6 20 43  0.0070000  0  6 19  6 16 11  2 18
  23505318.208    12412443.475 6   9672028.839 7
  24949305.456    -2044790.254 6  -1593323.539 4
  26245045.330     5883511.988 4   4584545.623 3
  25514573.727     5158983.895 6   4020004.670 5
  23413535.848    -7343731.710 7  -5722364.861 9
  25630565.831    27101773.166 5  21118253.576 4
 91  5  6 20 43 30.0070000  0  6 19  6 16 11  2 18
  23520649.891    12493014.412 6   9734811.353 7
  24946554.263    -2059275.547 6  -1604610.649 4
  26260359.336     5964032.322 4   4647288.927 2
  25533274.785     5257243.613 6   4096570.659 3
  23415531.263    -7333250.286 7  -5714197.454 9
  25659549.168    27254081.682 5  21236935.645 3
 91  5  6 20 44  0.0070000  0  6 19  6 16 11  2 18
  23536032.546    12573833.326 6   9797787.073 6
  24943796.466    -2073734.674 6  -1615877.370 4
  26275759.973     6044960.023 4   4710349.261 3
  25552072.666     5356037.105 6   4173552.552 5
  23417579.744    -7322476.378 7  -5705802.121 9
  25688562.179    27406549.465 5  21355741.834 4
 91  5  6 20 44 30.0070000  0  6 19  6 16 11  2 18
  23551453.871    12654908.109 6   9860962.188 7
  24941051.870    -2088159.713 6  -1627117.548 5
  26291235.559     6126300.515 4   4773731.220 2
  25570974.585     5455370.289 6   4250955.007 5
  23419686.090    -7311402.693 7  -5697173.206 9
  25717609.070    27559181.581 5  21474676.057 2
 91  5  6 20 45  0.0070000  0  6 19  6 16 11  2 18
  23566936.646    12736260.067 6   9924353.296 8
  24938323.755    -2102529.281 6  -1638314.479 5
  26306798.684     6208071.953 4   4837448.996 2
  25589984.424     5555261.775 6   4328792.482 4
  23421859.584    -7300008.864 7  -5688294.820 9
  25746686.839    27711996.952 5  21593753.099 5
 91  5  6 20 45 30.0070000  0  6 19  6 16 11  2 18
  23582472.191    12817880.993 6   9987953.962 7
  24935584.551    -2116851.772 6  -1649474.743 5
  26322454.147     6290263.749 4   4901494.789 4
  25609097.988     5655701.189 6   4407056.897 4
  23424084.644    -7288304.115 7  -5679174.182 9
  25775797.283    27864984.366 5  21712964.189 3
 91  5  6 20 46  0.0070000  0  6 19  6 16 11  2 18
  23598055.707    12899761.200 6  10051756.676 7
  24932868.136    -2131137.165 6  -1660606.104 6
  26338158.174     6372863.433 4   4965858.426 2
  25628314.089     5756676.201 6   4485738.683 5
  23426368.764    -7276298.964 7  -5669819.459 9
  25804947.610    28018130.549 5  21832298.987 3
 91  5  6 20 46 30.0070000  0  6 19  6 16 11  2 18
  23613679.986    12981879.601 6  10115745.030 7
  24930162.812    -2145406.174 6  -1671724.665 4
  26353962.635     6455847.486 4   5030521.571 1
  25647624.317     5858163.584 6   4564819.704 5
  23428705.043    -7264014.903 7  -5660247.385 9
  25834115.012    28171412.593 5  21951739.675 3
 91  5  6 20 47  0.0070000  0  6 19  6 16 11  2 18
  23629348.345    13064225.230 6  10179910.398 7
  24927436.791    -2159669.734 6  -1682839.010 5
  26369811.158     6539201.903 4   5095473.292 2
  25667032.580     5960149.774 6   4644289.410 5
  23431097.991    -7251463.794 8  -5650467.252 9
  25863301.906    28324816.275 5  22071275.101 3
 91  5  6 20 47 30.0070000  0  6 19  6 16 11  2 18
  23645063.766    13146810.768 6  10244262.716 7
  24924731.466    -2173915.087 6  -1693939.183 5
  26385748.730     6622937.154 4   5160721.773
  25686534.682     6062645.112 6   4724155.851 5
  23433540.097    -7238633.763 8  -5640469.765 9
  25892521.484    28478351.816 5  22190913.295 4
 91  5  6 20 48  0.0070000  0  6 19  6 16 11  2 18
  23660824.149    13229632.023 6  10308798.684 7
  24922030.635    -2188147.351 6  -1705029.177 6
  26401755.248     6707045.091 4   5226260.584 1
  25706141.109     6165642.015 6   4804413.088 4
  23436028.978    -7225530.955 7  -5630259.763 9
  25921762.640    28632011.091 5  22310647.894 4
 91  5  6 20 48 30.0070000  0  6 19  6 16 11  2 18
  23676627.711    13312678.087 6  10373509.893 7
  24919315.119    -2202376.667 6  -1716116.840 5
  26417838.808     6791512.982 5   5292079.478 1
  25725824.283     6269127.896 6   4885051.429 4
  23438572.112    -7212166.566 7  -5619845.878 9
  25951020.582    28785781.262 5  22430468.918 3
 91  5  6 20 49  0.0070000  0  6 19  6 16 11  2 18
  23692477.142    13395954.813 6  10438400.777 7
  24916606.793    -2216597.239 6  -1727197.708 5
  26433976.639     6876343.998 4   5358181.780 2
  25745618.379     6373106.181 6   4966073.377 5
  23441164.717    -7198535.058 7  -5609223.886 9
  25980309.106    28939664.862 5  22550378.338 4
 91  5  6 20 49 30.0070000  0  6 19  6 16 11  2 18
  23708367.040    13479466.072 6  10503474.424 8
  24913906.258    -2230805.286 6  -1738268.831 5
  26450190.613     6961539.093 5   5424567.800 2
  25765490.426     6477578.034 6   5047479.963 4
  23443811.286    -7184633.739 7  -5598391.650 9
  26009613.519    29093663.702 5  22670377.494 2
 91  5  6 20 50  0.0070000  0  6 19  6 16 11  2 18
  23724303.408    13563208.084 6  10568727.917 8
  24911209.327    -2245004.503 6  -1749333.023 5
  26466467.845     7047091.094 5   5491231.921 2
  25785469.189     6582536.948 6   5129266.084 5
  23446508.523    -7170467.793 8  -5587353.178 9
  26038940.712    29247770.945 5  22790461.191 2
 91  5  6 20 50 30.0070000  0  6 19  6 16 11  2 18
  23740285.347    13647183.207 6  10634163.026 7
  24908504.901    -2259192.646 6  -1760388.613 4
  26482818.830     7132999.619 5   5558173.835 3
  25805538.501     6687982.688 6   5211431.539 3
  23449251.924    -7156035.451 7  -5576107.157 9
  26068279.310    29401986.117 5  22910628.945 4
 91  5  6 20 51  0.0070000  0  6 19  6 16 11  2 18
  23756305.955    13731398.224 6  10699785.064 7
  24905807.970    -2273362.368 6  -1771429.838 5
  26499237.260     7219269.230 4   5625397.121 1
  25825692.944     6793919.945 6   5293980.015 5
  23452052.579    -7141330.245 7  -5564648.508 9
  26097658.671    29556312.907 5  23030883.691 2
 91  5  6 20 51 30.0070000  0  6 19  6 16 11  2 18
  23772378.129    13815844.708 6  10765587.479 6
  24903111.938    -2287522.002 6  -1782463.191 5
  26515707.560     7305888.561 4   5692892.889 1
  25845942.124     6900337.607 6   5376902.810 5
  23454900.306    -7126361.345 7  -5552984.383 9
  26127044.925    29710740.308 5  23151216.797 3
 91  5  6 20 52  0.0070000  0  6 19  6 16 11  2 18
  23788485.378    13900521.287 6  10831569.186 6
  24900418.601    -2301673.607 6  -1793490.305 5
  26532271.394     7392853.058 4   5760657.661 3
  25866291.137     7007230.775 6   5460196.138 3
  23457796.903    -7111132.113 7  -5541117.404 9
  26156447.669    29865263.374 5  23271624.490 3
 91  5  6 20 52 30.0080000  0  6 19  6 16 11  2 18
  23804649.283    13985428.660 6  10897730.710 6
  24897729.762    -2315819.403 6  -1804512.884 5
  26548879.895     7480160.075 4   5828689.335 3
  25886720.800     7114598.543 6   5543859.266 4
  23460745.068    -7095644.523 8  -5529049.100 9
  26185869.298    30019882.806 5  23392107.232 3
 91  5  6 20 53  0.0080000  0  6 19  6 16 11  2 18
  23820850.370    14070574.197 6  10964077.826 6
  24895047.218    -2329945.201 6  -1815519.870 5
  26565562.146     7567814.370 5   5896991.566 2
  25907240.388     7222444.211 6   5627894.799 4
  23463743.888    -7079887.712 8  -5516771.014 9
  26215305.023    30174598.751 5  23512665.192 3
 91  5  6 20 53 30.0080000  0  6 19  6 16 11  2 18
  23837100.022    14155968.868 6  11030619.087 6
  24892359.579    -2344043.176 6  -1826505.181 6
  26582307.349     7655824.415 4   5965571.033 2
  25927854.723     7330777.303 6   5712310.135 5
  23466795.477    -7063853.715 8  -5504276.939 9
  26244767.124    30329421.705 5  23633306.560 4
 91  5  6 20 54  0.0080000  0  6 19  6 16 11  2 18
  23853401.535    14241615.689 6  11097356.825 6
  24889677.934    -2358110.073 6  -1837466.271 5
  26599124.813     7744189.690 4   6034427.316 2
  25948563.185     7439598.280 6   5797105.644 5
  23469898.929    -7047540.542 7  -5491565.310 9
  26274258.908    30484352.052 5  23754031.528 3
 91  5  6 20 54 30.0080000  0  6 19  6 16 11  2 18
  23869744.423    14327523.245 6  11164297.721 6
  24887004.387    -2372137.100 6  -1848396.288 5
  26616008.222     7832916.145 4   6103564.567 2
  25969361.881     7548912.757 6   5882285.704 4
  23473057.540    -7030940.396 8  -5478630.075 9
  26303757.585    30639395.373 5  23874844.623 3
 91  5  6 20 55  0.0080000  0  6 19  6 16 11  2 18
  23886143.963    14413693.249 6  11231443.142 7
  24884349.423    -2386122.391 6  -1859293.793 5
  26632961.187     7922002.910 4   6172982.990 2
  25990259.520     7658719.811 6   5967849.573 3
  23476272.813    -7014052.387 8  -5465470.528 9
  26333282.350    30794550.368 5  23995744.685 2
 91  5  6 20 55 30.0080000  0  6 19  6 16 11  2 18
  23902593.577    14500118.181 6  11298787.177 7
  24881693.561    -2400073.182 6  -1870164.407 5
  26649970.211     8011440.224 4   6242674.609 1
  26011249.183     7769009.623 6   6053789.655 3
  23479538.150    -6996884.615 7  -5452092.979 9
  26362837.086    30949807.332 5  24116724.238 2
 91  5  6 20 56  0.0080000  0  6 19  6 16 11  2 18
  23919086.362    14586793.100 6  11366326.026 6
  24879043.100    -2413994.473 6  -1881012.056 5
  26667053.285     8101219.249 4   6312632.487 2
  26032323.698     7879774.040 6   6140099.516 3
  23482854.162    -6979443.434 8  -5438502.395 9
  26392393.026    31105157.952 5  24237776.698 2
 91  5  6 20 56 30.0080000  0  6 19  6 16 11  2 18
  23935631.010    14673737.967 6  11434075.212 6
  24876401.922    -2427865.824 6  -1891820.779 6
  26684225.398     8191357.256 4   6382870.170 2
  26053491.440     7991030.316 6   6226792.670 4
  23486232.219    -6961709.526 8  -5424683.708 9
  26421981.345    31260619.586 5  24358915.727 3
 91  5  6 20 57  0.0080000  0  6 19  6 16 11  2 18
  23952225.722    14760954.147 6  11502035.812 5
  24873773.946    -2441685.872 6  -1902589.549 6
  26701433.782     8281852.452 4   6453386.041 3
  26074759.617     8102776.658 6   6313867.683 4
  23489662.147    -6943682.459 8  -5410636.582 9
  26451581.050    31416190.761 5  24480140.073 2
 91  5  6 20 57 30.0080000  0  6 19  6 16 11  2 18
  23968875.891    14848445.223 6  11570210.631 6
  24871156.753    -2455450.637 6  -1913315.216 6
  26718734.800     8372705.922 4   6524181.199 2
  26096118.038     8215014.479 6   6401325.676 4
  23493146.030    -6925359.779 7  -5396359.106 9
  26481205.944    31571872.430 5  24601450.547 3
 91  5  6 20 58  0.0080000  0  6 19  6 16 11  2 18
  23985578.829    14936213.541 6  11638601.462 7
  24868550.057    -2469157.274 6  -1923995.602 5
  26736091.590     8463916.624 4   6595254.702 2
  26117575.681     8327743.585 6   6489166.497 4
  23496691.382    -6906739.881 7  -5381850.046 9
  26510838.927    31727664.467 4  24722846.982 2
 91  5  6 20 58 30.0080000  0  6 19  6 16 11  2 18
  24002330.331    15024257.543 6  11707207.120 7
  24865953.857    -2482807.271 6  -1934631.865 6
  26753501.140     8555479.810 4   6666602.838 2
  26139120.260     8440959.426 6   6577386.573 5
  23500289.792    -6887824.771 8  -5367110.948 9
  26540514.182    31883562.018 5  24844325.683 2
 91  5  6 20 59  0.0080000  0  6 19  6 16 11  2 18
  24019138.198    15112580.440 6  11776030.102 6
  24863363.050    -2496397.262 6  -1945221.351 6
  26770989.826     8647395.744 4   6738225.827 2
  26160751.489     8554662.333 5   6665986.177 5
  23503946.057    -6868612.812 7  -5352140.534 9
  26570200.231    32039565.616 5  24965886.985 2
 91  5  6 20 59 30.0080000  0  6 19  6 16 11  2 18
  24035999.427    15201187.756 6  11845074.704 6
  24860792.336    -2509921.161 6  -1955759.347 6
  26788569.359     8739667.819 4   6810126.345 2
  26182476.844     8668855.341 5   6754967.697 3
  23507660.188    -6849098.903 7  -5336934.839 9
  26599901.575    32195678.401 5  25087533.403 3
 91  5  6 21  0  0.0080000  0  6 19  6 16 11  2 18
  24052915.816    15290082.637 6  11914343.389 6
  24858227.608    -2523375.708 6  -1966243.306 5
  26806180.066     8832295.591 4   6882304.054 2
  26204303.542     8783538.378 5   6844331.043 4
  23511430.979    -6829281.064 7  -5321492.323 9
  26629643.386    32351900.218 5  25209264.752 3
 91  5  6 21  0 30.0080000  0  6 19  6 16 11  2 18
  24069886.467    15379251.961 6  11983825.901 6
  24855673.978    -2536773.410 6  -1976682.967 6
  26823872.615     8925263.116 4   6954746.389 3
  26226217.168     8898695.723 5   6934063.975 3
  23515259.322    -6809173.308 7  -5305823.892 9
  26659377.998    32508215.530 4  25331068.921 2
 91  5  6 21  1  0.0080000  0  6 19  6 16 11  2 18
  24086899.985    15468679.231 6  12053509.440 6
  24853138.932    -2550130.609 6  -1987091.062 6
  26841628.430     9018551.088 4   7027438.565 2
  26248216.238     9014308.053 5   7024151.432 4
  23519135.643    -6788792.845 7  -5289942.966 9
  26689150.687    32664604.920 5  25452930.867 2
 91  5  6 21  1 30.0080000  0  6 19  6 16 11  2 18
  24103964.474    15558354.869 6  12123386.484 6
  24850601.784    -2563456.393 6  -1997474.679 5
  26859432.503     9112146.631 4   7100370.343 1
  26270304.942     9130363.157 5   7114583.930 3
  23523064.420    -6768150.036 8  -5273857.618 9
  26718913.779    32821056.776 4  25574841.447 4
 91  5  6 21  2  0.0080000  0  6 19  6 16 11  2 18
  24121076.629    15648270.953 6  12193450.899 5
  24848070.037    -2576758.616 6  -2007839.945 6
  26877312.721     9206038.519 4   7173533.058 2
  26292467.705     9246849.669 5   7205352.572 3
  23527043.864    -6747254.494 8  -5257575.325 9
  26748709.554    32977559.574 4  25696791.746 3
 91  5  6 21  2 30.0080000  0  6 19  6 16 11  2 18
  24138234.651    15738429.965 6  12263704.609 6
  24845551.185    -2590034.376 6  -2018184.581 6
  26895233.117     9300226.761 4   7246926.684 2
  26314719.795     9363767.429 5   7296457.259 2
  23531068.879    -6726104.446 8  -5241094.731 9
  26778495.130    33134112.872 4  25818781.359 3
 91  5  6 21  3  0.0080000  0  6 19  6 16 11  2 18
  24155437.940    15828822.535 6  12334140.301 6
  24843020.938    -2603292.112 6  -2028515.178 7
  26913197.881     9394698.554 4   7320541.271 2
  26337045.944     9481104.458 5   7387888.645 4
  23535136.760    -6704709.514 7  -5224423.320 9
  26808289.405    33290704.963 4  25940801.249 3
 91  5  6 21  3 30.0080000  0  6 19  6 16 11  2 18
  24172684.103    15919451.880 6  12404760.490 6
  24840507.173    -2616528.375 6  -2038829.042 6
  26931256.483     9489454.604 4   7394377.340 2
  26359461.123     9598860.983 5   7479646.896 3
  23539253.511    -6683067.446 7  -5207559.329 9
  26838092.379    33447337.333 4  26062852.507 1
 91  5  6 21  4  0.0080000  0  6 19  6 16 11  2 18
  24189974.931    16010314.075 6  12475562.139 6
  24837982.624    -2629746.578 6  -2049128.828 5
  26949316.577     9584487.680 4   7468429.273 3
  26381945.258     9717030.438 5   7571726.928 4
  23543421.225    -6661183.035 8  -5190506.501 9
  26867902.839    33604002.572 4  26184929.395 3
 91  5  6 21  4 30.0080000  0  6 19  6 16 11  2 18
  24207302.936    16101408.539 6  12546544.759 6
  24835474.557    -2642947.022 6  -2059414.783 6
  26967472.307     9679794.123 4   7542694.221 2
  26404504.638     9835609.392 5   7664126.043 3
  23547626.718    -6639057.917 7  -5173266.108 9
  26897725.296    33760697.254 4  26307029.224 2
 91  5  6 21  5  0.0080000  0  6 19  6 16 11  2 18
  24224689.696    16192740.923 6  12617712.793 5
  24832967.091    -2656123.639 6  -2069682.161 6
  26985650.522     9775376.562 3   7617174.210 2
  26427150.963     9954600.451 5   7756846.282 3
  23551884.667    -6616687.253 8  -5155834.375 9
  26927556.443    33917424.602 4  26429154.513 3
 91  5  6 21  5 30.0080000  0  6 19  6 16 11  2 18
  24242112.438    16284310.150 6  12689065.376 6
  24830468.927    -2669276.665 6  -2079931.162 5
  27003867.109     9871231.031 3   7691866.172 2
  26449871.338    10074000.138 5   7849884.946 2
  23556191.189    -6594072.845 8  -5138212.708 9
  26957383.394    34074180.453 4  26551302.001 2
 91  5  6 21  6  0.0080000  0  6 19  6 16 11  2 18
  24259587.339    16376119.054 6  12760604.708 6
  24827964.759    -2682402.500 6  -2090158.982 6
  27022190.431     9967357.858 4   7766769.956 4
  26472676.251    10193808.568 5   7943242.126 3
  23560537.279    -6571212.564 7  -5120399.466 9
  26987223.833    34230965.829 4  26673472.500 1
 91  5  6 21  6 30.0080000  0  6 19  6 16 11  2 18
  24277102.708    16468174.380 6  12832336.060 6
  24825472.580    -2695493.942 6  -2100360.009 5
  27040529.633    10063760.374 4   7841888.962 1
  26495552.213    10314029.313 5   8036920.549 4
  23564933.740    -6548100.927 7  -5102390.350 9
  27017059.177    34387784.405 4  26795668.915 2
 91  5  6 21  7  0.0080000  0  6 19  6 16 11  2 18
  24294661.553    16560487.544 6  12904268.333 6
  24822991.500    -2708539.262 6  -2110525.086 6
  27058928.191    10160447.113 4   7917229.439 1
  26518505.217    10434670.642 5   8130926.730 4
  23569382.952    -6524727.168 8  -5084176.991 9
  27046915.514    34544645.116 5  26917898.125 2
 91  5  6 21  7 30.0080000  0  6 19  6 16 11  2 18
  24312274.965    16653044.997 6  12976390.950 5
  24820520.008    -2721551.465 6  -2120664.353 6
  27077359.434    10257401.004 4   7992778.106 2
  26541539.173    10555716.133 5   8225247.849 3
  23573882.543    -6501105.728 8  -5065770.641 9
  27076760.447    34701531.162 4  27040147.071 2
 91  5  6 21  8  0.0080000  0  6 19  6 16 11  2 18
  24329938.137    16745835.629 6  13048695.286 6
  24818042.225    -2734541.082 6  -2130786.008 6
  27095864.727    10354608.031 4   8068524.020 2
  26564647.781    10677151.651 5   8319872.850 4
  23578418.701    -6477248.401 8  -5047180.460 9
  27106621.277    34858429.222 4  27162405.413 2
 91  5  6 21  8 30.0080000  0  6 19  6 16 11  2 18
  24347638.180    16838875.140 6  13121193.541 5
  24815583.027    -2747491.614 6  -2140877.211 6
  27114414.082    10452081.468 4   8144477.461 2
  26587837.026    10798990.336 5   8414812.051 3
  23583005.822    -6453140.611 8  -5028395.119 9
  27136484.201    35015352.259 4  27284683.219 1
 91  5  6 21  9  0.0080000  0  6 19  6 16 11  2 18
  24365396.089    16932173.490 6  13193893.487 5
  24813128.331    -2760393.059 6  -2150930.172 6
  27133020.097    10549827.350 4   8220643.289 1
  26611103.315    10921238.707 5   8510070.489 3
  23587645.111    -6428774.146 8  -5009408.217 9
  27166349.830    35172307.308 4  27406985.958 3
 91  5  6 21  9 30.0080000  0  6 19  6 16 11  2 18
  24383192.371    17025713.840 6  13266782.008 6
  24810672.728    -2773261.347 6  -2160957.291 6
  27151671.989    10647825.477 4   8297005.681 2
  26634436.166    11043877.489 5   8605633.130 3
  23592326.071    -6404166.016 8  -4990233.000 9
  27196218.451    35329274.837 4  27529298.461 3
 91  5  6 21 10  0.0090000  0  6 19  6 16 11  2 18
  24401053.099    17119507.319 6  13339867.753 6
  24808233.915    -2786088.311 6  -2170952.211 6
  27170364.648    10746084.805 4   8373571.532 1
  26657849.354    11166915.686 5   8701507.010 4
  23597058.599    -6379308.001 8  -4970863.079 9
  27226095.470    35486265.577 4  27651628.958 2
 91  5  6 21 10 30.0090000  0  6 19  6 16 11  2 18
  24418944.415    17213556.417 6  13413152.698 6
  24805804.400    -2798863.214 6  -2180906.552 6
  27189116.364    10844604.865 4   8450340.619 1
  26681339.292    11290351.132 5   8797690.419 3
  23601838.484    -6354193.631 8  -4951293.399 9
  27255982.074    35643275.770 4  27773974.691 1
 91  5  6 21 11  0.0090000  0  6 19  6 16 11  2 18
  24436890.891    17307874.312 6  13486647.079 6
  24803383.278    -2811575.955 6  -2190812.467 7
  27207913.957    10943395.655 4   8527320.574 2
  26704897.287    11414195.008 5   8894192.096 4
  23606668.739    -6328813.211 8  -4931516.401 9
  27285857.893    35800317.706 4  27896345.146 2
 91  5  6 21 11 30.0090000  0  6 19  6 16 11  2 18
  24454890.729    17402471.416 6  13560359.051 5
  24800977.739    -2824215.532 6  -2200661.369 7
  27226775.400    11042465.011 4   8604517.683 1
  26728545.517    11538454.502 5   8991017.655 2
  23611547.567    -6303157.084 8  -4911524.566 9
  27315748.101    35957399.262 4  28018746.503 2
 91  5  6 21 12  0.0090000  0  6 19  6 16 11  2 18
  24472946.330    17497349.185 6  13634289.692 5
  24798590.192    -2836779.790 6  -2210451.567 7
  27245677.607    11141810.335 4   8681929.841 2
  26752272.587    11663128.299 5   9088166.000 2
  23616486.345    -6277224.621 8  -4891317.410 9
  27345647.304    36114518.940 4  28141177.542 2
 91  5  6 21 12 30.0090000  0  6 19  6 16 11  2 18
  24491055.599    17592484.633 6  13708421.146 5
  24796204.747    -2849290.563 6  -2220200.107 6
  27264631.989    11241405.630 4   8759536.738 3
  26776073.113    11788190.730 5   9185617.197 4
  23621464.997    -6251039.669 8  -4870913.497 9
  27375551.000    36271651.970 4  28263619.018 2
 91  5  6 21 13  0.0090000  0  6 19  6 16 11  2 18
  24509206.530    17687882.490 6  13782757.045 5
  24793837.581    -2861742.769 6  -2229903.004 7
  27283622.041    11341253.022 4   8837340.051 2
  26799947.681    11913643.581 5   9283372.638 3
  23626496.113    -6224598.318 8  -4850309.800 9
  27405454.697    36428800.598 4  28386072.616 2
 91  5  6 21 13 30.0090000  0  6 19  6 16 11  2 18
  24527405.729    17783540.119 6  13857295.370 6
  24791480.615    -2874138.453 6  -2239561.861 7
  27302678.054    11441346.577 4   8915335.233 2
  26823883.412    12039481.158 5   9381427.868 3
  23631577.599    -6197904.169 8  -4829509.118 9
  27435361.395    36585958.661 4  28508533.599 2
 91  5  6 21 14  0.0090000  0  6 19  6 16 11  2 18
  24545660.096    17879449.979 6  13932030.259 5
  24789131.441    -2886483.794 6  -2249181.499 6
  27321774.830    11541676.126 4   8993514.310 2
  26847911.777    12165692.865 5   9479774.595 4
  23636704.647    -6170965.028 8  -4808517.531 9
  27465273.485    36743116.832 4  28630994.691 1
 91  5  6 21 14 30.0090000  0  6 19  6 16 11  2 18
  24563954.930    17975602.505 6  14006954.223 6
  24786786.768    -2898787.900 6  -2258769.005 6
  27340905.783    11642228.607 4   9071867.001 2
  26871995.302    12292266.042 5   9578403.012 3
  23641874.274    -6143792.078 8  -4787343.765 9
  27495175.087    36900262.368 4  28753445.896 1
 91  5  6 21 15  0.0090000  0  6 19  6 16 11  2 18
  24582299.524    18071995.626 6  14082065.663 5
  24784449.582    -2911051.894 6  -2268325.248 7
  27360093.100    11742999.196 4   9150389.755 2
  26896150.478    12419195.990 5   9677309.417 4
  23647088.862    -6116388.007 8  -4765989.906 9
  27525075.782    37057391.156 4  28875884.116 2
 91  5  6 21 15 30.0090000  0  6 19  6 16 11  2 18
  24600693.895    18168630.243 6  14157365.276 5
  24782134.889    -2923273.910 7  -2277848.811 6
  27379297.806    11843986.030 4   9229080.970 1
  26920368.614    12546480.799 5   9776492.329 3
  23652348.419    -6088752.159 8  -4744455.448 9
  27554972.892    37214501.373 4  28998307.821 2
 91  5  6 21 16  0.0090000  0  6 19  6 16 11  2 18
  24619122.738    18265510.726 6  14232856.468 5
  24779811.192    -2935448.905 6  -2287335.734 7
  27398542.081    11945189.916 4   9307941.260 2
  26944651.805    12674121.703 5   9875952.734 4
  23657652.648    -6060880.940 8  -4722737.590 9
  27584859.801    37371595.356 4  29120718.918 2
 91  5  6 21 16 30.0090000  0  6 19  6 16 11  2 18
  24637602.545    18362625.064 6  14308529.900 6
  24777500.391    -2947588.176 6  -2296794.797 7
  27417843.025    12046596.032 4   9386959.204 1
  26969011.742    12802103.307 5   9975678.628 2
  23663000.049    -6032787.914 8  -4700846.853 9
  27614761.700    37528657.808 4  29243105.450 3
 91  5  6 21 17  0.0090000  0  5 19  6 16 11  2
  24656127.914    18459971.669 6  14384384.329 5
  24775199.187    -2959692.235 6  -2306226.427 7
  27437181.435    12148199.896 4   9466131.172 2
  26993434.631    12930421.091 5  10075666.453 4
  23668386.713    -6004475.185 8  -4678784.947 9
 91  5  6 21 17 30.0090000  0  5 19  6 16 11  2
  24674697.965    18557563.504 6  14460429.840 5
  24772902.773    -2971747.277 6  -2315619.864 6
  27456555.522    12250011.131 4   9545464.759 2
  27017913.883    13059085.535 5  10175924.414 2
  23673816.854    -5975930.623 8  -4656542.385 9
 91  5  6 21 18  0.0090000  0  5 19  6 16 11  2
  24693319.267    18655406.804 6  14536671.303 5
  24770626.750    -2983746.151 7  -2324969.556 7
  27475968.584    12352033.083 4   9624962.552 2
  27042468.085    13188099.813 5  10276454.944 4
  23679294.068    -5947148.836 8  -4634114.979 9
 91  5  6 21 18 30.0090000  0  4 19  6 11  2
  24711983.452    18753487.651 6  14613097.847 5
  24768345.335    -2995701.521 6  -2334285.324 7
  27067083.746    13317447.246 5  10377245.074 3
  23684814.147    -5918143.837 8  -4611513.632 9
 91  5  6 21 19  0.0090000  0  4 19  6 11  2
  24730694.396    18851809.827 5  14689712.470 5
  24766080.698    -3007608.758 7  -2343563.580 7
  27091762.062    13447128.585 5  10478295.408 3
  23690376.491    -5888913.115 8  -4588736.392 9
 91  5  6 21 19 30.0090000  0  4 19  6 11  2
  24749450.012    18950381.608 6  14766521.587 6
  24763826.557    -3019458.676 6  -2352797.185 7
  27116500.337    13577148.999 5  10579609.982 4
  23695985.009    -5859449.180 8  -4565777.439 9
 91  5  6 21 20  0.0090000  0  4 19  6 11  2
  24768246.697    19049185.449 6  14843511.516 5
  24761577.521    -3031267.734 7  -2361998.953 7
  27141300.368    13707488.026 5  10681172.846 2
  23701634.002    -5829770.298 8  -4542650.982 9
 91  5  6 21 20 30.0090000  0  4 19  6 11  2
  24787097.051    19148224.039 6  14920684.363 6
  24759338.370    -3043032.383 6  -2371166.100 7
  27166166.955    13838145.500 5  10782983.761 2
  23707321.962    -5799874.364 7  -4519355.392 9
 91  5  6 21 21  0.0090000  0  4 19  6 11  2
  24805989.075    19247492.491 6  14998036.338 6
  24757105.815    -3054756.448 6  -2380301.632 7
  27191089.896    13969113.451 5  10885036.677 3
  23713050.100    -5769767.290 8  -4495895.281 9
 91  5  6 21 21 30.0090000  0  4 19  6 11  2
  24824917.667    19346997.909 5  15075572.938 6
  24754887.648    -3066431.872 6  -2389399.264 8
  27216069.508    14100396.130 5  10987334.830 4
  23718815.705    -5739442.620 8  -4472265.613 9
 91  5  6 21 22  0.0090000  0  4 19  6 11  2
  24843906.523    19446742.879 6  15153296.198 6
  24752673.678    -3078054.665 6  -2398455.891 6
  27241118.964    14231993.380 5  11089878.091 4
  23724632.578    -5708898.110 8  -4448464.643 9
 91  5  6 21 22 30.0090000  0  4 19  6 11  2
  24862932.251    19546723.235 5  15231202.887 6
  24750475.003    -3089628.113 6  -2407474.054 7
  27266217.586    14363897.745 5  11192660.664 4
  23730484.831    -5678139.191 8  -4424496.601 9
 91  5  6 21 23  0.0090000  0  4 19  6 11  2
  24882000.549    19646946.734 6  15309299.032 6
  24748277.523    -3101142.889 6  -2416446.517 7
  27291374.073    14496114.452 5  11295686.631 3
  23736381.146    -5647158.519 8  -4400355.774 9
 91  5  6 21 23 30.0090000  0  4 19  6 11  2
  24901120.115    19747402.273 6  15387575.994 6
  24746099.832    -3112609.476 6  -2425381.414 7
  27316591.121    14628629.179 5  11398944.820 3
  23742314.639    -5615967.826 8  -4376051.280 9
 91  5  6 21 24  0.0090000  0  4 19  6 11  2
  24920276.554    19848097.775 6  15466039.931 5
  24743925.736    -3124018.419 6  -2434271.405 7
  27341863.024    14761447.038 5  11502439.204 4
  23748294.296    -5584560.071 8  -4351577.652 9
 91  5  6 21 24 30.0090000  0  4 19  6 11  2
  24939489.654    19949035.377 6  15544692.535 5
  24741770.529    -3135366.686 6  -2443114.119 8
  27367199.684    14894567.479 5  11606169.350 4
  23754309.631    -5552933.414 7  -4326933.459 9
 91  5  6 21 25  0.0090000  0  4 19  6 11  2
  24958748.622    20050235.778 5  15623549.915 6
  24739627.616    -3146632.155 6  -2451892.312 7
  27392588.503    15028008.140 5  11710149.072 3
  23760372.639    -5521068.026 7  -4302103.228 9
 91  5  6 21 25 30.0090000  0  4 19  6 11  2
  24978054.653    20151704.924 6  15702616.689 6
  24737497.285    -3157807.822 7  -2460600.546 7
  27418045.378    15161771.951 5  11814380.565 3
  23766481.507    -5488959.030 7  -4277083.191 9
 91  5  6 21 26  0.0090000  0  4 19  6 11  2
  24997417.344    20253449.208 6  15781897.883 6
  24735387.946    -3168886.457 7  -2469233.145 7
  27443566.112    15295862.266 5  11918866.508 3
  23772641.643    -5456600.543 7  -4251868.720 9
 91  5  6 21 26 30.0090000  0  4 19  6 11  2
  25016827.414    20355458.635 5  15861385.674 6
  24733298.693    -3179876.625 7  -2477796.823 8
  27469132.714    15430266.200 5  12023596.797 3
  23778843.154    -5424003.274 8  -4226468.209 9
 91  5  6 21 27  0.0090000  0  4 19  6 11  2
  25036292.634    20457739.221 6  15941084.737 6
  24731226.532    -3190770.846 7  -2486285.730 7
  27494779.360    15564986.925 5  12128573.929 3
  23785091.422    -5391161.992 8  -4200877.566 9
 91  5  6 21 27 30.0100000  0  4 19  6 11  2
  25055807.923    20560300.535 6  16021002.563 5
  24729171.449    -3201562.053 7  -2494694.370 8
  27520477.566    15700032.199 5  12233803.976 2
  23791393.065    -5358069.888 8  -4175091.467 9
 91  5  6 21 28  0.0100000  0  4 19  6 11  2
  25075376.579    20663126.620 5  16101126.686 6
  24727137.661    -3212257.430 7  -2503028.332 8
  27546233.939    15835380.906 5  12339270.447 2
  23797733.672    -5324739.029 8  -4149119.346 9
 91  5  6 21 28 30.0100000  0  4 19  6 11  2
  25094994.699    20766230.477 5  16181467.279 6
  24725116.760    -3222846.250 7  -2511279.254 7
  27572046.371    15971044.333 5  12444982.174 3
  23804125.250    -5291158.913 8  -4122952.974 9
 91  5  6 21 29  0.0100000  0  4 19  6 11  2
  25114672.175    20869623.201 5  16262032.955 5
  24723124.634    -3233316.323 7  -2519437.655 7
  27597915.464    16107030.527 5  12550945.357 3
  23810563.892    -5257319.813 8  -4096584.816 9
 91  5  6 21 29 30.0100000  0  4 19  6 11  2
  25134405.710    20973316.235 5  16342832.620 6
  24721163.692    -3243654.953 7  -2527493.640 8
  27623854.401    16243348.122 4  12657166.840 2
  23817053.794    -5223210.570 8  -4070006.163 9
 91  5  6 21 30  0.0100000  0  4 19  6 11  2
  25154189.319    21077315.859 5  16423871.183 5
  24719221.343    -3253854.408 7  -2535441.170 7
  27649857.503    16380000.368 4  12763649.104 3
  23823596.465    -5188825.731 8  -4043212.762 9
 91  5  6 21 30 30.0100000  0  4 19  6 11  2
  25174039.473    21181607.306 5  16505137.182 5
  24717302.971    -3263927.922 7  -2543290.560 7
  27675926.854    16516970.005 4  12870378.649 5
  23830190.405    -5154180.341 8  -4016216.302 9
 91  5  6 21 31  0.0100000  0  4 19  6 11  2
  25193945.094    21286188.257 5  16586628.754 6
  24715413.078    -3273876.548 7  -2551042.641 8
  27702047.771    16654251.832 4  12977351.444 2
  23836834.401    -5119277.261 8  -3989019.061 9
 91  5  6 21 31 30.0100000  0  4 19  6 11  2
  25213894.785    21391033.744 5  16668326.423 5
  24713533.078    -3283723.743 7  -2558715.683 7
  27728234.039    16791817.866 5  13084545.742 3
  23843520.373    -5084142.251 8  -3961641.096 9
 91  5  6 21 32  0.0100000  0  4 19  6 11  2
  25233887.046    21496130.756 5  16750220.108 5
  24711677.963    -3293480.765 7  -2566318.476 8
  27754454.492    16929652.533 4  13191949.323 2
  23850245.914    -5048788.655 8  -3934092.815 9
 91  5  6 21 32 30.0100000  0  4 19  6 11  2
  25253936.560    21601469.604 5  16832302.236 5
  24709840.237    -3303156.235 7  -2573857.716 7
  27780741.194    17067742.855 5  13299552.171 3
  23857012.236    -5013226.971 8  -3906382.381 9
 91  5  6 21 33  0.0100000  0  4 19  6 11  2
  25274031.053    21707050.941 5  16914573.317 5
  24708008.802    -3312747.953 7  -2581331.697 8
  27807068.364    17206086.493 5  13407352.372 1
  23863820.517    -4977457.031 8  -3878509.653 9
 91  5  6 21 33 30.0100000  0  4 19  6 11  2
  25294166.912    21812885.128 5  16997041.417 6
  24706208.550    -3322244.229 7  -2588731.305 8
  27833441.410    17344691.179 5  13515356.036 2
  23870666.281    -4941468.860 8  -3850466.890 9
 91  5  6 21 34  0.0100000  0  4 19  6 11  2
  25314349.240    21918977.301 5  17079710.554 6
  24704419.388    -3331638.164 7  -2596051.178 7
  27859860.019    17483559.361 4  13623564.959 4
  23877556.709    -4905257.949 8  -3822250.552 9
 91  5  6 21 34 30.0100000  0  4 19  6 11  2
  25334595.428    22025299.783 5  17162559.145 5
  24702645.818    -3340956.001 7  -2603311.747 8
  27886334.992    17622660.510 4  13731955.471 1
  23884485.213    -4868852.775 7  -3793882.839 9
 91  5  6 21 35  0.0100000  0  4 19  6 11  2
  25354867.093    22131872.685 5  17245602.870 5
  24700884.532    -3350176.072 7  -2610496.130 8
  27912856.130    17762011.981 4  13840541.014 4
  23891454.193    -4832233.498 8  -3765348.306 9
 91  5  6 21 35 30.0100000  0  4 19  6 11  2
  25375193.316    22238670.139 5  17328821.579 6
  24699151.132    -3359322.742 7  -2617623.322 8
  27939405.153    17901584.675 4  13949298.910 1
  23898458.545    -4795426.815 8  -3736667.736 9
 91  5  6 21 36  0.0100000  0  4 19  6 11  2
  25395560.024    22345697.791 5  17412219.652 6
  24697421.929    -3368388.981 7  -2624687.838 8
  27966013.829    18041381.299 4  14058231.322 2
  23905497.369    -4758427.604 8  -3707837.143 9
 91  5  6 21 36 30.0100000  0  4 19  6 11  2
  25415968.393    22452957.201 5  17495798.329 5
  24695716.109    -3377371.230 7  -2631686.908 8
  27992659.989    18181400.937 4  14167337.495 1
  23912573.066    -4721234.456 7  -3678855.442 9
 91  5  6 21 37  0.0100000  0  4 19  6 11  2
  25436416.035    22560424.883 5  17579539.303 5
  24694015.088    -3386291.488 7  -2638637.679 8
  28019341.512    18321617.487 4  14276597.135 4
  23919685.051    -4683871.623 8  -3649741.517 9
 91  5  6 21 37 30.0100000  0  4 19  6 11  2
  25456918.540    22668119.942 5  17663457.419 6
  24692338.053    -3395128.630 7  -2645523.676 8
  28046068.911    18462047.714 4  14386023.208 3
  23926830.601    -4646320.276 7  -3620480.690 9
 91  5  6 21 38  0.0100000  0  5 19  6 11 15  2
  25477455.824    22776055.212 5  17747562.721 5
  24690672.403    -3403868.503 7  -2652333.881 8
  28072831.079    18602701.140 4  14495623.273 2
  27313079.346      -11454.274 4     -8925.392 1
  23934018.424    -4608567.810 8  -3591063.157 9
 91  5  6 21 38 30.0100000  0  5 19  6 11 15  2
  25498037.780    22884235.229 5  17831858.735 5
  24689032.240    -3412505.020 7  -2659063.540 8
  28099639.125    18743579.296 4  14605398.461 3
  27312165.880      -16237.844 4    -12652.709 2
  23941243.425    -4570610.520 8  -3561486.009 9
 91  5  6 21 39  0.0100000  0  5 19  6 11 15  2
  25518674.590    22992663.723 5  17916348.378 6
  24687406.761    -3421032.479 7  -2665708.229 8
  28126492.436    18884683.361 4  14715349.637 2
  27311318.672      -20693.391 3    -16124.829 3
  23948502.593    -4532444.834 8  -3531746.481 9
 91  5  6 21 39 30.0100000  0  4 19  6 11  2
  25539352.470    23101334.433 5  18001026.731 6
  24685807.073    -3429455.805 7  -2672271.760 9
  28153389.216    19026004.338 4  14825469.886 2
  23955807.342    -4494077.957 8  -3501850.185 9
 91  5  6 21 40  0.0100000  0  4 19  6 11  2
  25560083.721    23210270.288 5  18085911.735 5
  24684223.571    -3437750.053 7  -2678734.722 9
  28180323.766    19167562.343 4  14935774.808 2
  23963148.360    -4455487.189 8  -3471779.428 9
 91  5  6 21 40 30.0100000  0  4 19  6 11  2
  25580863.833    23319470.526 5  18171002.741 4
  24682670.344    -3445914.298 7  -2685096.388 9
  28207288.898    19309354.077 4  15046261.842 2
  23970533.441    -4416673.502 7  -3441534.979 9
 91  5  6 21 41  0.0100000  0  4 19  6 11  2
  25601692.518    23428936.767 5  18256301.014 4
  24681143.799    -3453944.964 7  -2691353.950 9
  28234326.580    19451378.539 4  15156930.269 2
  23977960.201    -4377635.828 8  -3411115.985 9
 91  5  6 21 41 30.0100000  0  5 19  6 11 15  2
  25622577.855    23538654.360 5  18341795.148 5
  24679637.645    -3461855.182 7  -2697517.664 9
  28261384.652    19593618.184 4  15267766.355 3
  27308056.327        -432.09514      -336.851 2
  23985433.126    -4338389.377 8  -3380534.305 9
 91  5  6 21 42  0.0100000  0  4 19  6 15  2
  25643491.382    23648598.453 5  18427465.771 5
  24678150.973    -3469668.119 7  -2703605.565 9
  27307602.142       -2834.924 5     -2209.022 3
  23992930.944    -4298959.850 8  -3349809.974 9
 91  5  6 21 42 30.0100000  0  4 19  6 15  2
  25664465.462    23758818.674 5  18513351.559 4
  24676690.687    -3477331.925 7  -2709577.271 9
  27307213.613       -4861.767 5     -3788.290 3
  24000477.011    -4259297.408 8  -3318904.145 9
 91  5  6 21 43  0.0100000  0  4 19  6 15  2
  25685491.107    23869307.181 5  18599446.398 5
  24675257.972    -3484852.724 7  -2715437.535 9
  27306897.929       -6517.973 4     -5078.703 2
  24008069.557    -4219410.285 8  -3287823.235 9
 91  5  6 21 43 30.0100000  0  4 19  6 15  2
  25706562.620    23980048.897 5  18685738.554 4
  24673848.954    -3492243.725 7  -2721196.666 8
  27306650.302       -7815.678 4     -6089.747 3
  24015700.773    -4179313.811 8  -3256579.211 9
 91  5  6 21 44  0.0100000  0  4 19  6 15  2
  25727692.888    24091031.207 5  18772218.166 3
  24672467.211    -3499515.686 7  -2726863.042 8
  27306472.519       -8764.784 4     -6829.136 4
  24023366.471    -4139020.556 8  -3225181.830 9
 91  5  6 21 44 30.0100000  0  4 19  6 15  2
  25748844.742    24202262.129 5  18858891.526 4
  24671110.046    -3506658.902 7  -2732429.095 9
  27306360.096       -9354.563 4     -7288.560 3
  24031075.636    -4098523.683 8  -3193625.810 9
 91  5  6 21 45  0.0110000  0  4 19  6 15  2
  25770064.952    24313747.421 5  18945763.075 3
  24669778.371    -3513669.857 7  -2737892.095 9
  27306316.334       -9580.646 4     -7464.542 2
  24038819.575    -4057820.192 8  -3161908.783 9
 91  5  6 21 45 30.0110000  0  4 19  6 15  2
  25791321.437    24425466.958 5  19032817.147 4
  24668466.778    -3520558.256 7  -2743259.609 9
  27306342.117       -9451.729 4     -7364.001 2
  24046602.782    -4016924.795 8  -3130042.215 9
 91  5  6 21 46  0.0110000  0  4 19  6 15  2
  25812622.595    24537413.720 5  19120048.278 4
  24667171.971    -3527333.630 7  -2748539.046 9
  27306429.054       -8976.684 4     -6993.770 2
  24054419.276    -3975848.393 8  -3098034.599 9
 91  5  6 21 46 30.0110000  0  4 19  6 15  2
  25833985.806    24649609.780 5  19207473.659 4
  24665914.046    -3533971.579 7  -2753711.398 9
  27306593.941       -8130.548 4     -6334.283 3
  24062275.338    -3934568.586 8  -3065868.483 9
 91  5  6 21 47  0.0110000  0  4 19  6 15  2
  25855375.995    24762041.557 5  19295082.734 4
  24664674.697    -3540483.725 7  -2758785.739 9
  27306819.084       -6923.229 5     -5393.414 3
  24070167.373    -3893099.211 8  -3033554.650 9
 91  5  6 21 47 30.0110000  0  4 19  6 15  2
  25876812.357    24874703.853 5  19382871.394 4
  24663455.441    -3546873.428 7  -2763764.666 9
  27307123.075       -5357.754 5     -4173.427 1
  24078092.084    -3851445.906 8  -3001097.517 9
 91  5  6 21 48  0.0110000  0  4 19  6 15  2
  25898302.082    24987601.419 5  19470843.386 2
  24662267.370    -3553133.367 7  -2768642.481 9
  27307490.315       -3426.033 4     -2668.095 4
  24086054.575    -3809603.719 8  -2968493.189 9
 91  5  6 21 48 30.0110000  0  4 19  6 15  2
  25919827.476    25100737.590 5  19559001.317 4
  24661097.577    -3559258.633 7  -2773415.354 9
  27307919.320       -1122.538 4      -872.978 2
  24094055.430    -3767570.011 8  -2935739.622 9
 91  5  6 21 49  0.0110000  0  4 19  6 15  2
  25941404.138    25214126.360 5  19647356.069 5
  24659964.962    -3565233.097 7  -2778070.719 9
  27308437.059        1569.029 5      1224.433 2
  24102092.267    -3725330.806 8  -2902825.933 9
 91  5  6 21 49 30.0110000  0  4 19  6 15  2
  25963029.372    25327750.525 5  19735894.240 4
  24658854.534    -3571072.088 7  -2782620.528 9
  27309018.963        4634.738 4      3613.419 2
  24110162.086    -3682903.717 8  -2869765.837 9
 91  5  6 21 50  0.0110000  0  4 19  6 15  2
  25984691.471    25441621.973 5  19824625.105 3
  24657772.577    -3576761.729 7  -2787053.951 9
  27309680.003        8089.497 4      6305.618 3
  24118276.262    -3640277.333 8  -2836550.446 9
 91  5  6 21 50 30.0110000  0  4 19  6 15  2
  26006402.438    25555726.841 5  19913537.848 5
  24656713.716    -3582313.108 7  -2791379.649 9
  27310410.295       11922.224 5      9292.352 3
  24126422.521    -3597465.061 8  -2803190.208 9
 91  5  6 21 51  0.0110000  0  4 19  6 15  2
  26028170.669    25670071.765 5  20002637.652 4
  24655688.123    -3587718.200 7  -2795591.349 9
  27311205.048       16141.888 4     12580.511 1
  24134607.459    -3554461.141 8  -2769680.630 9
 91  5  6 21 51 30.0110000  0  4 19  6 15  2
  26049973.678    25784642.496 5  20091913.391 4
  24654682.615    -3592988.993 7  -2799698.403 9
  27312079.243       20736.949 4     16161.257 4
  24142825.368    -3511279.860 8  -2736032.853 9
 91  5  6 21 52  0.0110000  0  4 19  6 15  2
  26071820.451    25899441.973 5  20181367.407 4
  24653702.593    -3598120.267 7  -2803696.739 9
  27313035.279       25713.319 5     20039.100 3
  24151074.758    -3467918.132 8  -2702244.466 9
 91  5  6 21 52 30.0110000  0  4 19  6 15  2
  26093703.504    26014468.424 5  20270998.248 4
  24652754.950    -3603111.825 7  -2807586.207 9
  27314050.376       31071.881 5     24214.742 3
  24159357.425    -3424378.553 8  -2668317.492 9
 91  5  6 21 53  0.0110000  0  4 19  6 15  2
  26115644.719    26129740.279 5  20360820.337 3
  24651838.491    -3607942.743 7  -2811350.488 9
  27315150.612       36833.837 4     28704.731 2
  24167682.060    -3380642.411 8  -2634237.343 9
 91  5  6 21 53 30.0110000  0  4 19  6 15  2
  26137629.097    26245282.407 5  20450852.981 4
  24650954.402    -3612585.745 7  -2814968.355 9
  27316323.406       43026.929 5     33530.657 3
  24176047.468    -3336684.641 8  -2599984.540 9
 91  5  6 21 54  0.0110000  0  4 19  6 15  2
  26159661.445    26361081.359 5  20541085.803 5
  24650102.692    -3617052.228 7  -2818448.669 9
  27317589.428       49640.845 4     38684.498 2
  24184454.250    -3292519.174 8  -2565569.867 9
 91  5  6 21 54 30.0110000  0  4 19  6 15  2
  26181741.755    26477108.853 5  20631496.707 5
  24649282.156    -3621368.341 7  -2821811.784 9
  27318917.503       56649.714 5     44146.090 2
  24192891.308    -3248174.514 8  -2531015.542 9
 91  5  6 21 55  0.0110000  0  4 19  6 15  2
  26203875.131    26593383.207 5  20722099.935 4
  24648493.407    -3625513.460 7  -2825041.672 9
  27320331.032       64073.993 5     49931.296 3
  24201368.545    -3203632.080 8  -2496307.123 9
 91  5  6 21 55 30.0110000  0  4 19  6 15  2
  26226038.190    26709893.740 5  20812887.197 4
  24647734.924    -3629495.970 7  -2828144.861 9
  27321824.291       71905.988 3     56034.298 2
  24209877.551    -3158902.745 8  -2461453.080 9
 91  5  6 21 56  0.0110000  0  4 19  6 15  2
  26248248.915    26826630.003 5  20903850.358 4
  24647004.929    -3633324.396 7  -2831127.977 9
  27323387.115       80137.983 4     62448.961 2
  24218424.632    -3113997.701 8  -2426462.123 9
 91  5  6 21 56 30.0110000  0  4 19  6 15  2
  26270521.998    26943601.024 4  20994996.447 4
  24646304.922    -3636987.341 7  -2833982.145 9
  27325032.373       88781.493 4     69184.260 2
  24227001.694    -3068907.874 8  -2391327.172 9
 91  5  6 21 57  0.0110000  0  4 19  6 15  2
  26292819.956    27060803.340 5  21086322.762 3
  24645645.976    -3640485.597 7  -2836707.993 9
  27326757.982       97835.918 4     76239.720 2
  24235618.027    -3023636.238 8  -2356050.556 9
 91  5  6 21 57 30.0110000  0  4 19  6 15  2
  26315167.690    27178243.946 5  21177834.746 4
  24645012.516    -3643809.992 7  -2839298.361 9
  27328557.029      107311.280 4     83623.248 4
  24244269.740    -2978175.570 8  -2320626.636 9
 91  5  6 21 58  0.0110000  0  4 19  6 15  2
  26337554.993    27295908.447 5  21269521.204 3
  24644411.426    -3646972.447 7  -2841762.544 9
  27330436.732      117195.736 4     91325.541 3
  24252955.333    -2932540.910 8  -2285067.147 9
 91  5  6 21 58 30.0110000  0  4 19  6 15  2
  26359992.056    27413801.964 5  21361386.143 4
  24643837.924    -3649965.323 7  -2844094.590 9
  27332396.173      127497.146 4     99352.703 2
  24261673.296    -2886727.094 8  -2249368.055 9
 91  5  6 21 59  0.0110000  0  4 19  6 15  2
  26382472.596    27531931.017 5  21453434.576 4
  24643303.694    -3652779.800 7  -2846287.613 9
  27334440.458      138224.127 4    107711.486 3
  24270424.231    -2840727.237 8  -2213523.992 9
 91  5  6 21 59 30.0110000  0  4 19  6 15  2
  26404996.604    27650291.918 5  21545664.128 4
  24642801.844    -3655416.993 7  -2848342.530 9
  27336555.197      149376.154 4    116401.438 2
  24279209.656    -2794544.850 8  -2177537.733 9
 91  5  6 22  0  0.0110000  0  4 19  6 15  2
  26427564.979    27768892.372 4  21638079.934 4
  24642335.966    -3657866.987 7  -2850251.542 9
  27338771.261      160963.331 4    125430.558 3
  24288036.142    -2748172.681 8  -2141403.524 9
 91  5  6 22  0 30.0110000  0  4 19  6 15  2
  26450174.423    27887728.273 4  21730679.162 3
  24641903.061    -3660131.630 7  -2852016.159 9
  27341047.590      172984.022 4    134797.402 2
  24296896.508    -2701614.574 8  -2105124.498 9
 91  5  6 22  1  0.0110000  0  5 19  6 13 15  2
  26472835.739    28006801.683 5  21823463.459 3
  24641508.242    -3662206.360 7  -2853632.757 9
  26568596.941     -177718.350 5   -138481.220 2
  27343427.041      185443.249 5    144506.011 2
  24305789.549    -2654868.641 8  -2068699.057 9
 91  5  6 22  1 30.0110000  0  5 19  6 13 15  2
  26495539.022    28126092.646 5  21916417.281 4
  24641146.088    -3664108.736 7  -2855115.067 9
  26555495.413     -246583.765 5   -192142.609 3
  27345885.637      198323.641 4    154542.825 2
  24314718.869    -2607955.101 8  -2032143.051 9
 91  5  6 22  2  0.0110000  0  5 19  6 13 15  2
  26518277.379    28245595.982 5  22009536.623 4
  24640815.119    -3665841.195 7  -2856464.986 9
  26542432.852     -315246.497 5   -245646.127 2
  27348405.989      211622.706 5    164905.859 3
  24323675.769    -2560878.736 8  -1995460.155 9
 91  5  6 22  2 30.0110000  0  5 19  6 13 15  2
  26541060.105    28365308.191 5  22102818.667 4
  24640518.622    -3667404.925 7  -2857683.422 9
  26529406.875     -383707.127 5   -298992.163 2
  27351015.687      225339.005 4    175593.982 2
  24332670.144    -2513642.792 8  -1958652.916 9
 91  5  6 22  3  0.0120000  0  5 19  6 13 15  2
  26563877.611    28485245.151 4  22196275.828 4
  24640258.408    -3668785.516 7  -2858759.176 9
  26516407.871     -451952.355 5   -352170.364 3
  27353707.822      239487.673 5    186619.036 1
  24341689.999    -2466233.579 8  -1921710.683 9
 91  5  6 22  3 30.0120000  0  5 19  6 13 15  2
  26586742.780    28605403.224 5  22289905.322 4
  24640031.162    -3669975.794 7  -2859686.614 9
  26503472.426     -519969.850 5   -405171.069 2
  27356477.303      254075.001 4    197985.843 2
  24350741.636    -2418650.118 8  -1884632.647 9
 91  5  6 22  4  0.0120000  0  5 19  6 13 15  2
  26609655.919    28725778.835 5  22383704.340 4
  24639840.196    -3670980.616 7  -2860469.519 9
  26490570.861     -587765.200 5   -457998.624 4
  27359346.921      269096.593 5    209691.094 2
  24359832.536    -2370897.625 8  -1847422.875 9
 91  5  6 22  4 30.0120000  0  5 19  6 13 15  2
  26632604.735    28846379.550 5  22477678.755 4
  24639681.905    -3671790.450 7  -2861100.521 9
  26477716.960     -655328.112 5   -510645.130 3
  27362287.885      284562.179 4    221742.257 2
  24368949.830    -2322969.131 8  -1810075.982 9
 91  5  6 22  5  0.0120000  0  5 19  6 13 15  2
  26655597.011    28967215.391 4  22571836.381 4
  24639573.077    -3672392.420 7  -2861569.533 9
  26464899.330     -722644.797 5   -563099.737 1
  27365314.590      300484.548 4    234149.345 4
  24378105.191    -2274854.167 8  -1772583.783 9
 91  5  6 22  5 30.0120000  0  5 19  6 13 15  2
  26678646.559    29088280.243 5  22666172.438 3
  24639497.831    -3672790.396 7  -2861879.595 9
  26452136.869     -789718.146 5   -615364.741 3
  27368434.227      316859.498 4    246909.106 2
  24387296.230    -2226559.095 8  -1734951.252 9
 91  5  6 22  6  0.0120000  0  5 19  6 13 15  2
  26701714.691    29209576.280 4  22760688.644 4
  24639459.755    -3672979.433 7  -2862026.846 9
  26439421.768     -856542.032 5   -667435.317 3
  27371641.708      333692.101 4    260025.461 1
  24396522.640    -2178081.504 8  -1697176.494 9
 91  5  6 22  6 30.0120000  0  5 19  6 13 15  2
  26724840.077    29331112.266 5  22855391.833 3
  24639463.358    -3672948.170 7  -2862002.430 9
  26426749.839     -923104.299 5   -719301.997 3
  27374924.434      350993.089 4    273506.784 2
  24405783.828    -2129412.753 8  -1659252.783 9
 91  5  6 22  7  0.0120000  0  5 19  6 13 15  2
  26748019.428    29452876.177 5  22950272.619 3
  24639507.726    -3672705.868 7  -2861813.569 9
  26414136.970     -989413.094 5   -770971.259 2
  27378305.492      368753.058 5    287345.740 2
  24415079.795    -2080564.053 8  -1621188.838 9
 91  5  6 22  7 30.0120000  0  5 19  6 13 15  2
  26771227.267    29574861.946 5  23045326.281 5
  24639601.259    -3672255.694 7  -2861462.723 9
  26401571.775    -1055470.964 5   -822444.931 2
  27381768.400      386969.142 4    301540.172 1
  24424408.733    -2031541.121 8  -1582989.139 9
 91  5  6 22  8  0.0120000  0  5 19  6 13 15  2
  26794487.561    29697073.097 4  23140555.557 2
  24639719.379    -3671591.859 7  -2860945.389 9
  26389035.355    -1121271.244 5   -873717.914 5
  27385328.428      405647.357 5    316094.632 2
  24433771.552    -1982340.623 8  -1544651.079 9
 91  5  6 22  8 30.0120000  0  5 19  6 13 15  2
  26817792.527    29819517.234 4  23235966.374 3
  24639891.761    -3670704.093 7  -2860253.592 9
  26376573.875    -1186802.441 5   -924781.224 4
  27388967.313      424797.352 5    331016.727 2
  24443169.445    -1932954.871 8  -1506168.686 9
 91  5  6 22  9  0.0120000  0  5 19  6 13 15  2
  26841142.166    29942236.591 4  23331591.692 4
  24640111.809    -3669547.002 7  -2859351.905 9
  26364163.673    -1252018.084 5   -975598.647 2
  27392718.918      444464.197 5    346341.631 2
  24452608.111    -1883340.413 8  -1467508.058 9
 91  5  6 22  9 30.0120000  0  5 19  6 13 15  2
  26864544.863    30065224.507 4  23427426.242 3
  24640384.320    -3668125.275 7  -2858244.002 9
  26351805.028    -1316922.027 5  -1026173.174 3
  27396556.561      464643.275 5    362065.661 2
  24462092.042    -1833504.474 8  -1428674.838 9
 91  5  6 22 10  0.0120000  0  5 19  6 13 15  2
  26887996.725    30188497.356 4  23523482.812 4
  24640708.693    -3666419.305 7  -2856914.621 9
  26339520.432    -1381494.362 5  -1076489.331 2
  27400494.028      485353.868 5    378203.864 1
  24471621.545    -1783430.629 8  -1389656.264 9
 91  5  6 22 10 30.0120000  0  5 19  6 13 15  2
  26911505.850    30312050.914 4  23619758.111 3
  24641083.733    -3664430.711 7  -2855365.007 9
  26327290.395    -1445735.107 5  -1126547.135 3
  27404537.637      506593.833 5    394754.623 1
  24481197.518    -1733122.034 8  -1350454.748 9
 91  5  6 22 11  0.0120000  0  5 19  6 13 15  2
  26935075.537    30435889.433 4  23716255.468 3
  24641521.132    -3662152.921 7  -2853590.049 9
  26315135.611    -1509637.461 5  -1176341.221 2
  27408678.067      528369.397 5    411722.693 2
  24490813.661    -1682575.196 8  -1311067.592 9
 91  5  6 22 11 30.0120000  0  5 19  6 13 15  2
  26958694.982    30560006.554 4  23812969.957 2
  24642005.890    -3659589.275 7  -2851592.336 9
  26303043.780    -1573203.641 5  -1225873.368 1
  27412929.123      550676.928 5    429105.323 1
  24500478.368    -1631795.590 8  -1271499.039 9
 91  5  6 22 12  0.0120000  0  5 19  6 13 15  2
  26982376.193    30684424.373 4  23909918.676 4
  24642554.211    -3656714.966 7  -2849352.601 9
  26291010.109    -1636408.238 5  -1275123.809 4
  27417271.619      573540.829 5    446921.448 1
  24510188.647    -1580761.235 8  -1231732.025 9
 91  5  6 22 12 30.0120000  0  5 19  6 13 15  2
  27006100.567    30809133.483 4  24007094.435 3
  24643155.598    -3653536.368 7  -2846875.729 9
  26279055.288    -1699256.413 5  -1324096.497 2
  27421732.531      596954.176 5    465165.738 3
  24519946.590    -1529480.466 8  -1191772.980 9
 91  5  6 22 13  0.0120000  0  5 19  6 13 15  2
  27029895.692    30934118.036 5  24104484.801 3
  24643819.639    -3650066.541 7  -2844171.921 9
  26267164.622    -1761760.568 5  -1372801.152 3
  27426295.371      620903.457 5    483827.635 2
  24529749.206    -1477968.831 8  -1151634.033 9
 91  5  6 22 13 30.0120000  0  5 19  6 13 15  2
  27053726.792    31059352.023 4  24202069.538 3
  24644530.745    -3646328.794 7  -2841259.345 9
  26255323.419    -1823943.266 5  -1421255.356 1
  27430941.858      645364.836 5    502888.463 1
  24539592.595    -1426252.090 8  -1111335.267 9
 91  5  6 22 14  0.0120000  0  5 19  6 13 15  2
  27077593.271    31184813.581 4  24299831.608 2
  24645289.820    -3642341.722 7  -2838152.497 9
  26243549.365    -1885822.044 5  -1469472.695 4
  27435684.870      670319.380 5    522333.668 1
  24549465.658    -1374351.367 8  -1070893.132 9
 91  5  6 22 14 30.0120000  0  5 19  6 13 15  2
  27101514.309    31310511.808 4  24397778.092 2
  24646092.068    -3638093.788 7  -2834842.378 9
  26231833.481    -1947384.649 5  -1517443.694 3
  27440534.015      695778.366 5    542171.910 3
  24559381.290    -1322257.595 8  -1030300.580 9
 91  5  6 22 15  0.0120000  0  5 19  6 13 15  2
  27125471.329    31436416.694 4  24495885.579 3
  24646950.671    -3633612.454 7  -2831350.384 9
  26220170.951    -2008658.220 5  -1565189.468 3
  27445472.497      721713.322 5    562381.041 3
  24569321.510    -1270000.858 8   -989581.035 9
 91  5  6 22 15 30.0120000  0  5 19  6 13 15  2
  27149474.513    31562524.039 4  24594150.841 2
  24647846.452    -3628899.077 7  -2827677.585 9
  26208570.185    -2069643.272 5  -1612710.433 2
  27450491.921      748122.822 5    582959.894 1
  24579295.610    -1217584.639 8   -948737.226 9
 91  5  6 22 16  0.0120000  0  5 19  6 13 15  2
  27173501.378    31688810.910 4  24692555.968 4
  24648783.005    -3623973.213 7  -2823839.206 9
  26197014.983    -2130358.651 5  -1660021.258 4
  27455611.178      774986.795 5    603892.920 1
  24589299.680    -1165030.906 8   -907786.255 9
 91  5  6 22 16 30.0120000  0  4  6 13 15  2
  24649766.918    -3618812.418 7  -2819817.756 9
  26185517.043    -2190780.616 5  -1707103.484 2
  27460813.175      802326.832 5    625196.890 2
  24599326.837    -1112319.902 8   -866712.729 9
 91  5  6 22 17  0.0120000  0  4  6 13 15  2
  24650791.316    -3613420.117 7  -2815615.918 9
  26174074.263    -2250912.468 5  -1753959.627 2
  27466106.908      830138.743 4    646868.545 1
  24609387.280    -1059457.232 8   -825521.032 9
 91  5  6 22 17 30.0120000  0  4  6 13 15  2
  24651860.970    -3607789.452 7  -2811228.336 9
  26162680.955    -2310746.619 5  -1800583.841 3
  27471482.788      858428.575 5    668912.592 2
  24619476.490    -1006438.854 8   -784207.987 9
 91  5  6 22 18  0.0120000  0  4  6 13 15  2
  24652987.295    -3601896.902 7  -2806636.682 9
  26151361.086    -2370258.289 5  -1846956.722 3
  27476969.590      887219.442 5    691347.118 2
  24629600.487     -953243.305 8   -742756.891 9
 91  5  6 22 18 30.0120000  0  4  6 13 15  2
  24654156.782    -3595740.262 7  -2801839.245 9
  26140097.285    -2429445.018 5  -1893076.438 3
  27482545.432      916512.594 4    714172.993 2
  24639758.049     -899870.723 8   -701167.851 9
 91  5  6 22 19  0.0120000  0  4  6 13 15  2
  24655377.242    -3589325.863 7  -2796840.964 9
  26128900.335    -2488312.371 5  -1938947.308 3
  27488208.813      946301.002 5    737384.811 2
  24649944.701     -846330.293 8   -659448.005 9
 91  5  6 22 19 30.0120000  0  4  6 13 15  2
  24656644.764    -3582663.736 7  -2791649.643 9
  26117751.653    -2546869.760 6  -1984576.612 3
  27493971.119      976574.276 4    760974.410 2
  24660161.027     -792634.331 8   -617606.984 9
 91  5  6 22 20  0.0120000  0  4  6 13 15  2
  24657963.547    -3575735.371 7  -2786250.870 9
  26106669.229    -2605098.072 5  -2029949.507 2
  27499829.367     1007349.885 5    784955.394 2
  24670413.632     -738766.563 8   -575632.084 9
 91  5  6 22 20 30.0120000  0  4  6 13 15  2
  24659337.193    -3568510.387 7  -2780620.960 9
  26095662.347    -2662966.149 6  -2075041.673 3
  27505788.040     1038657.274 5    809350.869 2
  24680702.507     -684699.101 8   -533501.586 9
 91  5  6 22 21  0.0120000  0  4  6 13 15  2
  24660761.812    -3561011.549 7  -2774777.657 9
  26084713.932    -2720496.193 6  -2119870.504 2
  27511834.855     1070473.168 5    834142.503 3
  24691025.262     -630457.348 8   -491235.279 9
 91  5  6 22 21 30.0130000  0  4  6 13 15  2
  24662240.389    -3553250.053 7  -2768729.689 9
  26073825.767    -2777700.823 6  -2164445.708 2
  27517986.592     1102786.362 5    859321.654 3
  24701375.295     -576053.211 8   -448842.429 9
 91  5  6 22 22  0.0130000  0  4  6 13 15  2
  24663769.325    -3545216.090 7  -2762469.413 9
  26063005.960    -2834565.766 6  -2208756.251 3
  27524241.465     1135603.977 4    884893.847 4
  24711759.806     -521482.588 8   -406319.864 9
 91  5  6 22 22 30.0130000  0  4  6 13 15  2
  24665349.233    -3536905.829 7  -2755993.847 9
  26052242.806    -2891088.189 6  -2252799.878 3
  27530577.578     1168929.752 5    910862.056 3
  24722178.790     -466742.073 8   -363664.905 9
 91  5  6 22 23  0.0130000  0  4  6 13 15  2
  24666983.699    -3528327.052 7  -2749309.022 9
  26041562.103    -2947275.378 6  -2296582.300 2
  27537007.530     1202754.889 4    937219.354 2
  24732627.762     -411841.968 8   -320885.577 9
 91  5  6 22 23 30.0130000  0  4  6 13 15  2
  24668671.536    -3519461.530 7  -2742400.787 9
  26030935.357    -3003108.741 6  -2340089.028 3
  27543545.097     1237096.439 5    963979.057 2
  24743105.204     -356766.447 8   -277969.589 9
 91  5  6 22 24  0.0130000  0  4  6 13 15  2
  24670409.133    -3510317.757 7  -2735275.735 9
  26020370.070    -3058596.147 6  -2383326.161 3
  27550180.708     1271945.153 5    991133.938 2
  24753617.425     -301526.397 8   -234925.393 9
 91  5  6 22 24 30.0130000  0  4  6 13 15  2
  24672203.992    -3500887.658 7  -2727927.569 9
  26009881.233    -3113729.115 6  -2426287.106 4
  27556904.155     1307308.325 4   1018689.712 2
  24764162.330     -246116.437 8   -191748.800 9
 91  5  6 22 25  0.0130000  0  4  6 13 15  2
  24674059.404    -3491154.965 7  -2720343.606 9
  25999459.553    -3168490.587 6  -2468958.608 3
  27563733.123     1343201.041 5   1046658.119 3
  24774741.707     -190522.260 8   -148428.654 9
 91  5  6 22 25 30.0130000  0  4  6 13 15  2
  24675968.179    -3481116.892 7  -2712521.700 9
  25989114.610    -3222877.258 6  -2511338.030 4
  27570667.028     1379624.937 4   1075040.402 4
  24785355.558     -134743.385 8   -104964.590 9
 91  5  6 22 26  0.0130000  0  4  6 13 15  2
  24677938.116    -3470785.141 7  -2704470.971 9
  25978830.830    -3276900.502 6  -2553434.294 4
  27577699.257     1416567.473 5   1103826.781 3
  24796003.288      -78794.194 8    -61367.843 9
 91  5  6 22 26 30.0130000  0  4  6 13 15  2
  24679961.120    -3460132.511 7  -2696170.155 9
  25968627.391    -3330532.780 6  -2595225.868 3
  27584841.508     1454054.182 5   1133037.338 2
  24806687.289      -22650.059 8    -17619.137 9
 91  5  6 22 27  0.0130000  0  4  6 13 15  2
  24682051.272    -3449154.156 7  -2687615.546 9
  25958498.604    -3383768.729 6  -2636708.624 4
  27592073.402     1492089.310 4   1162675.046 2
  24817407.865       33692.121 8     26283.880 9
 91  5  6 22 27 30.0130000  0  4  6 13 15  2
  24684194.185    -3437874.504 7  -2678826.155 9
  25948438.170    -3436632.174 6  -2677901.133 4
  27599405.731     1530647.421 5   1192720.398 3
  24828161.422       90205.242 8     70320.095 9
 91  5  6 22 28  0.0130000  0  4  6 13 15  2
  24686404.255    -3426296.057 7  -2669803.944 9
  25938445.791    -3489125.264 6  -2718805.031 4
  27606840.283     1569724.216 4   1223169.859 3
  24838946.459      146884.095 8    114485.440 9
 91  5  6 22 28 30.0130000  0  4  6 13 15  2
  24688658.396    -3414412.003 7  -2660543.598 9
  25928527.157    -3541240.710 6  -2759414.683 3
  27614371.971     1609325.811 5   1254028.237 4
  24849767.165      203733.664 8    158783.825 9
 91  5  6 22 29  0.0130000  0  4  6 13 15  2
  24690980.287    -3402214.613 7  -2651039.082 9
  25918683.167    -3592970.249 6  -2799723.151 3
  27622014.276     1649458.398 5   1285300.447 3
  24860618.155      260759.036 8    203219.203 9
 91  5  6 22 29 30.0130000  0  4  6 13 15  2
  24693364.536    -3389694.161 7  -2641282.836 9
  25908912.929    -3644303.910 6  -2839723.603 4
  27629754.015     1690131.068 4   1316993.472 3
  24871503.313      317967.729 8    247797.416 9
 91  5  6 22 30  0.0130000  0  4  6 13 15  2
  24695807.244    -3376851.914 7  -2631275.839 9
  25899221.244    -3695242.825 6  -2879416.505 2
  27637584.294     1731340.613 5   1349104.808 5
  24882422.359      375355.850 8    292515.460 9
 91  5  6 22 30 30.0130000  0  4  6 13 15  2
  24698320.110    -3363650.540 7  -2620988.999 9
  25889612.893    -3745748.429 6  -2918771.253 4
  27645553.085     1773123.372 5   1381662.843 4
  24893384.272      432958.343 8    337400.526 9
 91  5  6 22 31  0.0130000  0  4  6 13 15  2
  24700905.221    -3350074.021 7  -2610409.853 9
  25880084.288    -3795804.769 6  -2957776.416 4
  27653605.505     1815494.054 4   1414679.018 3
  24904392.349      490789.280 8    382463.615 9
 91  5  6 22 31 30.0130000  0  4  6 13 15  2
  24703558.980    -3336125.201 7  -2599540.602 9
  25870646.521    -3845414.260 6  -2996432.932 2
  27661779.649     1858448.371 5   1448149.954 3
  24915437.604      548843.336 8    427700.552 9
 91  5  6 22 32  0.0130000  0  4  6 13 15  2
  24706283.796    -3321809.432 7  -2588385.422 9
  25861288.205    -3894581.792 6  -3034745.035 5
  27670067.412     1901979.479 5   1482070.353 2
  24926524.827      607113.296 8    473105.718 9
 91  5  6 22 32 30.0130000  0  4  6 13 15  2
  24709076.067    -3307135.201 7  -2576950.925 9
  25852014.427    -3943316.099 6  -3072719.569 3
  27678455.008     1946077.603 4   1516432.626 2
  24937652.822      665588.250 8    518670.622 9
 91  5  6 22 33  0.0130000  0  4  6 13 15  2
  24711941.183    -3292093.964 7  -2565230.452 9
  25842826.686    -3991607.887 6  -3110349.308 3
  27686960.418     1990749.677 5   1551241.999 2
  24948821.590      724273.674 8    564399.526 9
 91  5  6 22 33 30.0130000  0  4  6 13 15  2
  24714873.151    -3276674.650 7  -2553215.368 9
  25833720.185    -4039445.808 6  -3147625.371 4
  27695575.250     2036006.008 5   1586506.750 2
  24960029.035      783178.720 8    610299.565 9
 91  5  6 22 34  0.0130000  0  4  6 13 15  2
  24717876.770    -3260889.237 7  -2540915.023 9
  25824705.726    -4086841.647 6  -3184556.948 5
  27704298.318     2081832.489 5   1622215.752 3
  24971277.245      842289.265 8    656359.713 9
 91  5  6 22 34 30.0130000  0  4  6 13 15  2
  24720945.749    -3244760.408 7  -2528347.072 9
  25815761.721    -4133817.446 6  -3221161.236 4
  27713119.106     2128205.280 5   1658350.396 1
  24982559.631      901580.322 8    702560.539 9
 91  5  6 22 35  0.0130000  0  4  6 13 15  2
  24724083.673    -3228264.720 7  -2515493.292 9
  25806904.951    -4180349.948 6  -3257420.113 3
  27722049.927     2175146.181 5   1694927.721 2
  24993882.493      961073.261 8    748918.630 9
 91  5  6 22 35 30.0130000  0  4  6 13 15  2
  24727294.452    -3211399.599 7  -2502351.612 9
  25798134.523    -4226435.973 6  -3293331.076 4
  27731092.865     2222656.719 5   1731948.964 3
  25005242.829     1020768.310 8    795434.252 9
 91  5  6 22 36  0.0130000  0  4  6 13 15  2
  24730571.184    -3194157.761 7  -2488916.395 9
  25789454.628    -4272067.834 6  -3328888.125 4
  27740241.927     2270742.309 5   1769418.252 3
  25016640.037     1080670.851 8    842111.545 9
 91  5  6 22 36 30.0130000  0  4  6 13 15  2
  24733929.156    -3176526.953 7  -2475178.082 9
  25780856.583    -4317233.400 6  -3364081.850 4
  27749503.115     2319413.027 5   1807343.523 3
  25028080.417     1140790.188 8    888957.769 9
 91  5  6 22 37  0.0130000  0  4  6 13 15  2
  24737358.786    -3158511.616 7  -2461140.124 9
  25772349.977    -4361936.096 6  -3398914.891 4
  27758878.524     2368664.064 5   1845721.004 3
  25039562.172     1201120.280 8    935968.227 9
 91  5  6 22 37 30.0130000  0  4  6 13 15  2
  24740863.061    -3140104.211 7  -2446796.640 9
  25763935.700    -4406168.911 6  -3433382.248 5
  27768363.066     2418500.465 5   1884554.619 3
  25051083.495     1261666.127 8    983146.825 9
 91  5  6 22 38  0.0130000  0  4  6 13 15  2
  24744440.181    -3121295.765 7  -2432140.702 9
  25755605.961    -4449922.349 6  -3467475.655 5
  27777950.426     2468929.893 5   1923850.260 3
  25062647.091     1322434.367 8   1030498.666 9
 91  5  6 22 38 30.0130000  0  4  6 13 15  2
  24748089.257    -3102092.969 7  -2417177.455 9
  25747369.467    -4493203.156 6  -3501200.724 4
  27787659.203     2519944.031 5   1963601.581 2
  25074251.757     1383416.184 8   1078016.969 9
 91  5  6 22 39  0.0130000  0  4  6 13 15  2
  24751818.368    -3082516.230 7  -2401922.817 9
  25739217.510    -4536031.235 6  -3534573.031 4
  27797476.207     2571520.510 5   2003791.080 3
  25085894.193     1444588.910 8   1125684.018 9
 91  5  6 22 39 30.0140000  0  4  6 13 15  2
  24755609.850    -3062576.509 7  -2386385.338 9
  25731156.089    -4578419.795 6  -3567602.856 4
  27807402.636     2623648.040 5   2044409.958 4
  25097569.317     1505941.101 8   1173490.910 9
 91  5  6 22 40  0.0140000  0  4  6 13 15  2
  24759478.668    -3042256.025 7  -2370551.175 9
  25723181.915    -4620346.505 6  -3600272.798 5
  27817421.399     2676340.757 5   2085469.239 3
  25109281.309     1567485.180 8   1221447.324 9
 91  5  6 22 40 30.0140000  0  4  6 13 15  2
  24763420.638    -3021551.467 7  -2354417.719 9
  25715284.479    -4661809.991 6  -3632581.787 4
  27827551.687     2729600.897 5   2126970.684 4
  25121027.479     1629223.717 8   1269555.279 9
 91  5  6 22 41  0.0140000  0  4  6 13 15  2
  24767433.062    -3000437.215 7  -2337965.035 9
  25707485.375    -4702784.643 6  -3664509.872 5
  27837806.691     2783452.398 5   2168932.915 3
  25132815.912     1691180.386 8   1317833.198 9
 91  5  6 22 41 30.0140000  0  4  6 13 15  2
  24771532.729    -2978901.012 7  -2321183.537 9
  25699787.909    -4743258.256 6  -3696047.547 5
  27848163.317     2837906.018 5   2211364.345 3
  25144650.222     1753365.165 8   1366288.871 9
 91  5  6 22 42  0.0140000  0  4  6 13 15  2
  24775713.627    -2956939.532 7  -2304070.674 9
  25692184.273    -4783227.049 6  -3727191.855 6
  27858641.963     2892963.112 5   2254266.002 3
  25156528.297     1815779.525 8   1414923.428 9
 91  5  6 22 42 30.0140000  0  4  6 13 15  2
  24779969.787    -2934579.294 7  -2286647.103 9
  25684667.575    -4822717.683 6  -3757963.557 4
  27869225.241     2948595.254 5   2297615.725 3
  25168443.245     1878394.158 8   1463714.040 9
 91  5  6 22 43  0.0140000  0  4  6 13 15  2
  24784303.287    -2911815.424 7  -2268908.978 9
  25677247.114    -4861724.609 6  -3788358.345 6
  27879922.128     3004805.705 5   2341416.118 4
  25180396.574     1941212.430 8   1512663.369 9
 91  5  6 22 43 30.0140000  0  4  6 13 15  2
  24788711.735    -2888630.862 7  -2250843.096 9
  25669915.091    -4900230.957 6  -3818363.088 6
  27890736.849     3061609.262 5   2385678.613 3
  25192391.872     2004249.050 8   1561782.784 9
 91  5  6 22 44  0.0140000  0  4  6 13 15  2
  24793200.525    -2865052.139 7  -2232470.025 9
  25662671.200    -4938263.318 6  -3847998.478 5
  27901653.487     3118978.167 5   2430381.643 3
  25204423.744     2067475.356 8   1611050.044 9
 91  5  6 22 44 30.0140000  0  4  6 13 15  2
  24797767.264    -2841076.996 7  -2213788.079 9
  25655532.848    -4975819.405 6  -3877262.769 4
  27912675.053     3176912.793 5   2475525.471 4
  25216490.387     2130891.426 8   1660465.157 9
 91  5  6 22 45  0.0140000  0  4  6 13 15  2
  24802402.949    -2816689.104 7  -2194784.509 9
  25648478.126    -5012882.590 6  -3906142.985 5
  27923817.444     3235426.630 5   2521120.711 3
  25228599.302     2194511.833 8   1710039.495 9
 91  5  6 22 45 30.0140000  0  4  6 13 15  2
  24807124.088    -2791884.335 7  -2175456.091 9
  25641518.151    -5049448.717 6  -3934635.864 3
  27935059.058     3294521.966 5   2567168.999 3
  25240742.996     2258338.403 8   1759774.489 9
 91  5  6 22 46  0.0140000  0  4  6 13 15  2
  24811923.465    -2766666.817 7  -2155806.056 9
  25634650.801    -5085522.090 6  -3962744.787 4
  27946418.199     3354193.456 5   2613666.251 3
  25252927.462     2322364.700 8   1809665.103 9
 91  5  6 22 46 30.0140000  0  4  6 13 15  2
  24816799.885    -2741030.424 7  -2135829.623 9
  25627881.486    -5121096.605 6  -3990464.990 4
  27957881.063     3414445.225 5   2660615.657 2
  25265150.301     2386595.501 8   1859715.093 9
 91  5  6 22 47  0.0140000  0  4  6 13 15  2
  24821760.554    -2714977.377 7  -2115528.519 9
  25621209.901    -5156174.211 6  -4017797.997 4
  27969454.545     3475272.872 5   2708013.836 4
  25277411.810     2451026.007 8   1909920.677 9
 91  5  6 22 47 30.0140000  0  4  6 13 15  2
  24826796.164    -2688512.744 7  -2094906.692 9
  25614628.264    -5190760.177 7  -4044747.894 5
  27981141.061     3536669.468 5   2755855.377 4
  25289707.495     2515649.508 8   1960276.677 9
 91  5  6 22 48  0.0140000  0  4  6 13 15  2
  24831905.527    -2661638.317 7  -2073965.560 9
  25608140.753    -5224856.039 7  -4071315.938 5
  27992931.597     3598630.853 5   2804136.951 3
  25302041.859     2580462.045 8   2010779.942 9
 91  5  6 22 48 30.0140000  0  4  6 13 15  2
  24837103.327    -2634340.630 7  -2052694.612 9
  25601746.784    -5258448.834 7  -4097491.949 5
  28004823.763     3661168.461 5   2852867.606 4
  25314412.196     2645474.966 8   2061439.365 9
 91  5  6 22 49  0.0140000  0  4  6 13 15  2
  24842377.577    -2606620.656 7  -2031094.604 9
  25595449.044    -5291539.447 7  -4123276.653 5
  28016844.843     3724279.284 5   2902044.897 3
  25326825.103     2710685.176 8   2112252.524 9
 91  5  6 22 49 30.0140000  0  4  6 13 15  2
  24847727.674    -2578495.280 7  -2009178.703 9
  25589245.430    -5324144.914 7  -4148683.329 5
  28028958.252     3787944.667 5   2951654.304 3
  25339266.192     2776073.874 8   2163204.752 9
 91  5  6 22 50  0.0140000  0  4  6 13 15  2
  24853161.113    -2549949.150 7  -1986934.933 9
  25583133.264    -5356249.881 7  -4173699.989 5
  28041175.699     3852178.089 5   3001706.326 2
  25351747.147     2841654.451 8   2214306.504 9
 91  5  6 22 50 30.0140000  0  4  6 13 15  2
  24858670.697    -2520995.234 7  -1964373.408 9
  25577117.930    -5387867.084 7  -4198336.599 4
  28053510.359     3916963.974 5   3052188.878 4
  25364262.286     2907412.435 8   2265546.483 9
 91  5  6 22 51  0.0140000  0  4  6 13 15  2
  24864260.630    -2491631.847 7  -1941492.817 9
  25571191.932    -5418994.900 7  -4222591.838 5
  28065947.845     3982302.236 5   3103101.815 2
  25376805.301     2973347.634 8   2316924.568 9
 91  5  6 22 51 30.0140000  0  4  6 13 15  2
  24869925.206    -2461856.746 7  -1918291.410 9
  25565366.666    -5449631.678 7  -4246464.492 5
  28078476.473     4048192.527 5   3154444.965 5
  25389387.589     3039459.694 8   2368440.456 9
 91  5  6 22 52  0.0140000  0  4  6 13 15  2
  24875667.130    -2431667.216 7  -1894767.065 9
  25559630.439    -5479774.567 7  -4269952.260 5
  28091122.916     4114635.728 5   3206218.891 3
  25402000.161     3105749.472 8   2420094.831 9
 91  5  6 22 52 30.0140000  0  4  6 13 15  2
  24881496.602    -2401050.029 7  -1870909.493 9
  25553989.542    -5509410.325 7  -4293044.883 6
  28103868.599     4181642.844 5   3258432.209 3
  25414653.803     3172228.783 8   2471896.875 9
 91  5  6 22 53  0.0140000  0  4  6 13 15  2
  24887404.906    -2370006.873 7  -1846719.992 9
  25548441.586    -5538540.611 7  -4315743.622 4
  28116732.394     4249209.823 5   3311081.844 4
  25427337.424     3238893.657 8   2523843.519 9
 91  5  6 22 53 30.0140000  0  4  6 13 15  2
  24893391.761    -2338536.337 7  -1822197.461 9
  25542998.252    -5567164.288 7  -4338047.610 5
  28129698.115     4317335.915 5   3364167.119 4
  25440060.613     3305743.747 8   2575934.505 9
 91  5  6 22 54  0.0140000  0  4  6 13 15  2
  24899468.259    -2306628.423 7  -1797334.130 9
  25537648.155    -5595272.058 7  -4359949.583 6
  28142768.171     4386028.860 5   3417694.086 3
  25452815.579     3372787.269 8   2628176.191 9
 91  5  6 22 54 30.0140000  0  4  6 13 15  2
  24905621.799    -2274278.388 7  -1772126.281 9
  25532400.290    -5622858.693 7  -4381445.500 5
  28155949.140     4455291.518 5   3471664.994 2
  25465612.522     3440027.130 8   2680570.879 9
 91  5  6 22 55  0.0140000  0  4  6 13 15  2
  24911860.775    -2241481.431 7  -1746570.196 9
  25527247.450    -5649920.043 7  -4402532.083 5
  28169234.148     4525126.244 5   3526081.676 3
  25478445.735     3507466.415 8   2733120.963 9
 91  5  6 22 55 30.0140000  0  4  6 13 15  2
  24918192.395    -2208226.145 7  -1720656.968 9
  25522202.845    -5676444.414 7  -4423200.263 6
  28182633.970     4595542.253 5   3580951.243 3
  25491319.424     3575114.791 8   2785833.977 9
 91  5  6 22 56  0.0140000  0  4  6 13 15  2
  24924607.051    -2174496.299 7  -1694373.959 9
  25517257.471    -5702415.951 7  -4443437.655 5
  28196145.918     4666553.479 5   3636284.669 3
  25504235.089     3642986.654 8   2838721.127 9
 91  5  6 22 56 30.0140000  0  4  6 13 15  2
  24931112.850    -2140311.496 7  -1667736.436 9
  25512415.821    -5727854.641 7  -4463259.844 6
  28209770.585     4738137.853 5   3692064.676 4
  25517187.016     3711060.444 8   2891765.640 9
 91  5  6 22 57  0.0140000  0  4  6 13 15  2
  24937702.288    -2105677.001 7  -1640748.509 9
  25507679.998    -5752766.194 7  -4482671.288 6
  28223507.074     4810287.780 5   3748285.368 3
  25530180.622     3779329.168 8   2944962.038 9
 91  5  6 22 57 30.0150000  0  4  6 13 15  2
  24944381.964    -2070574.779 7  -1613396.126 9
  25503041.907    -5777134.429 7  -4501659.368 6
  28237339.193     4883020.458 5   3804960.191 3
  25543209.307     3847810.285 7   2998323.936 9
 91  5  6 22 58  0.0150000  0  4  6 13 15  2
  24951152.474    -2035018.267 7  -1585689.730 9
  25498503.350    -5800968.786 7  -4520231.416 6
  28251287.038     4956317.343 5   3862074.616 4
  25556280.559     3916486.442 8   3051837.832 9
 91  5  6 22 58 30.0150000  0  4  6 13 15  2
  24958000.934    -1999016.141 7  -1557636.108 9
  25494068.526    -5824280.621 7  -4538396.314 6
  28265330.817     5030168.631 5   3919621.007 4
  25569383.587     3985348.105 8   3105496.279 9
 91  5  6 22 59  0.0150000  0  4  6 13 15  2
  24964939.333    -1962558.985 7  -1529227.921 9
  25489732.024    -5847060.394 7  -4556146.628 6
  28279512.199     5104582.174 5   3977605.583 2
  25582524.988     4054402.959 8   3159305.243 9
 91  5  6 22 59 30.0150000  0  4  6 13 15  2
  24971960.768    -1925646.374 7  -1500464.849 9
  25485501.053    -5869308.294 7  -4573482.502 6
  28293772.133     5179555.356 5   4036026.222 3
  25595701.464     4123649.654 8   3213263.691 9
 91  5  6 23  0  0.0150000  0  4  6 13 15  2
  24979074.846    -1888272.597 7  -1471342.415 9
  25481369.618    -5891018.773 7  -4590399.603 6
  28308144.481     5255091.322 5   4094885.393 3
  25608914.219     4193092.313 7   3267374.854 9
 91  5  6 23  0 30.0150000  0  4  6 13 15  2
  24986276.159    -1850429.052 7  -1441853.939 9
  25477343.705    -5912183.394 7  -4606891.365 6
  28322626.853     5331196.416 5   4154188.044 3
  25622168.646     4262738.129 7   3321644.298 9
 91  5  6 23  1  0.0150000  0  4  6 13 15  2
  24993567.715    -1812105.614 7  -1411991.504 9
  25473421.218    -5932792.584 7  -4622950.311 6
  28337228.541     5407878.568 5   4213940.358 2
  25635461.140     4332595.744 7   3376078.793 9
 91  5  6 23  1 30.0150000  0  4  6 13 15  2
  25000954.601    -1773295.300 7  -1381749.701 9
  25469602.160    -5952839.025 7  -4638570.766 6
  28351924.372     5485142.149 5   4274145.750 2
  25648797.704     4402670.235 7   3430682.273 9
 91  5  6 23  2  0.0150000  0  4  6 13 15  2
  25008435.623    -1733986.114 7  -1351119.158 9
  25465902.120    -5972311.764 7  -4653744.169 6
  28366735.018     5562996.941 5   4334811.834 4
  25662173.846     4472971.928 7   3485462.801 9
 91  5  6 23  2 30.0150000  0  4  6 13 15  2
  25016010.475    -1694174.546 7  -1320097.146 9
  25462300.718    -5991207.432 7  -4668467.916 7
  28381662.283     5641444.064 5   4395939.495 4
  25675594.957     4543503.108 7   3540422.139 9
 91  5  6 23  3  0.0150000  0  4  6 13 15  2
  25023683.667    -1653852.112 7  -1288677.059 9
  25458816.826    -6009517.854 7  -4682735.625 6
  28396707.669     5720489.274 5   4457533.147 2
  25689061.935     4614270.242 7   3595565.348 9
 91  5  6 23  3 30.0150000  0  4  6 13 15  2
  25031447.993    -1613022.789 7  -1256861.996 9
  25455446.264    -6027247.094 7  -4696550.463 7
  28411861.281     5800126.097 5   4519587.832 2
  25702574.180     4685267.883 7   3650888.162 9
 91  5  6 23  4  0.0150000  0  4  6 13 15  2
  25039316.942    -1571709.565 7  -1224669.868 9
  25452176.128    -6044419.144 7  -4709931.137 6
  28427123.713     5880329.331 5   4582083.867 2
  25716124.501     4756471.775 7   3706371.709 9
 91  5  6 23  4 30.0150000  0  4  6 13 15  2
  25047268.334    -1529900.475 7  -1192091.339 9
  25449016.016    -6061022.235 7  -4722868.450 6
  28442491.971     5961108.669 4   4645028.811 4
  25729712.889     4827892.228 7   3762023.989 9
 91  5  6 23  5  0.0150000  0  4  6 13 15  2
  25055317.169    -1487608.049 7  -1159136.218 9
  25445966.224    -6077068.796 7  -4735372.145 6
  28457971.457     6042448.753 4   4708410.665 2
  25743343.551     4899515.008 7   3817833.928 9
 91  5  6 23  5 30.0150000  0  4  6 13 15  2
  25063458.629    -1444831.174 7  -1125803.567 9
  25443016.867    -6092558.099 7  -4747441.588 6
  28473557.965     6124348.084 4   4772228.315 1
  25757011.390     4971339.735 7   3873801.222 9
 91  5  6 23  6  0.0150000  0  4  6 13 15  2
  25071689.129    -1401568.989 7  -1092092.737 9
  25440173.938    -6107489.779 7  -4759076.496 6
  28489249.402     6206805.047 4   4836480.507 4
  25770719.104     5043365.987 7   3929925.596 9
 91  5  6 23  6 30.0150000  0  4  6 13 15  2
  25080015.570    -1357818.146 7  -1058001.164 9
  25437440.728    -6121861.126 7  -4770274.804 6
  28505035.279     6289820.844 4   4901168.172 4
  25784460.993     5115595.586 7   3986208.386 9
 91  5  6 23  7  0.0150000  0  4  6 13 15  2
  25088438.537    -1313568.846 7  -1023521.164 9
  25434816.346    -6135662.697 7  -4781029.135 6
  28520949.459     6373402.332 4   4966296.592 3
  25798248.445     5188036.919 7   4042656.188 9
 91  5  6 23  7 30.0150000  0  4  6 13 15  2
  25096952.943    -1268817.380 7   -988649.881 9
  25432297.782    -6148890.933 7  -4791336.711 6
  28536965.269     6457550.723 4   5031866.764 4
  25812074.270     5260692.451 8   4099270.873 9
 91  5  6 23  8  0.0150000  0  4  6 13 15  2
  25105563.282    -1223562.706 7   -953386.489 9
  25429891.057    -6161545.335 7  -4801197.145 6
  28553086.007     6542264.360 4   5097877.397 2
  25825939.672     5333561.524 7   4156051.953 9
 91  5  6 23  8 30.0150000  0  4  6 13 15  2
  25114273.453    -1177790.397 7   -917719.739 9
  25427590.743    -6173612.153 7  -4810599.720 6
  28569311.978     6627555.339 4   5164337.880 2
  25839849.441     5406657.319 7   4213009.715 9
 91  5  6 23  9  0.0150000  0  4  6 13 15  2
  25123082.550    -1131500.206 7   -881649.453 9
  25425410.958    -6185091.464 7  -4819544.498 6
  28585644.972     6713421.604 4   5231246.651 2
  25853801.484     5479978.533 7   4270143.116 9
 91  5  6 23  9 30.0150000  0  4  6 13 15  2
  25131983.086    -1084716.797 7   -845194.834 9
  25423325.596    -6196008.548 7  -4828051.183 7
  28602103.572     6799835.001 5   5298581.779 3
  25867790.398     5553499.323 7   4327432.044 9
 91  5  6 23 10  0.0150000  0  4  6 13 15  2
  25140985.558    -1037421.674 7   -808341.491 9
  25421358.956    -6206345.367 7  -4836105.711 6
  28618650.924     6886812.173 4   5366356.189 2
  25881825.486     5627237.327 7   4384890.220 8
 91  5  6 23 10 30.0150000  0  4  6 13 15  2
  25150081.562     -989614.014 7   -771088.778 9
  25419506.241    -6216101.674 7  -4843707.931 6
  28635301.390     6974351.243 4   5434568.425 3
  25895898.345     5701191.380 7   4442516.722 8
 91  5  6 23 11  0.0150000  0  4  6 13 15  2
  25159281.291     -941285.291 7   -733430.023 9
  25417758.750    -6225269.037 7  -4850851.194 6
  28652075.682     7062458.295 4   5503223.252 2
  25910010.773     5775368.688 7   4500317.206 9
 91  5  6 23 11 30.0150000  0  4  6 13 15  2
  25168574.561     -892442.230 7   -695370.476 9
  25416126.378    -6233855.024 7  -4857541.438 6
  28668948.298     7151123.663 4   5572313.144 2
  25924170.874     5849761.290 7   4558285.461 9
 91  5  6 23 12  0.0150000  0  4  6 13 15  2
  25177969.156     -843063.604 7   -656893.618 9
  25414609.430    -6241838.836 7  -4863762.460 6
  28685924.349     7240365.936 4   5641852.548 3
  25938369.043     5924389.538 7   4616437.323 8
 91  5  6 23 12 30.0150000  0  4  6 13 15  2
  25187466.577     -793163.033 7   -618010.048 9
  25413201.311    -6249233.762 7  -4869524.606 7
  28703017.614     7330169.324 4   5711829.159 3
  25952613.682     5999238.785 7   4674761.389 9
 91  5  6 23 13  0.0150000  0  4  6 13 15  2
  25197057.539     -742747.722 7   -578725.383 9
  25411900.205    -6256048.377 7  -4874834.567 7
  28720214.306     7420523.840 4   5782235.308 2
  25966896.694     6074300.195 7   4733250.784 9
 91  5  6 23 13 30.0150000  0  4  6 13 15  2
  25206751.929     -691818.360 7   -539040.164 9
  25410715.728    -6262283.920 7  -4879693.301 6
  28737514.435     7511426.075 5   5853068.191 2
  25981220.478     6149571.694 7   4791903.890 8
 91  5  6 23 14  0.0150000  0  4  6 13 15  2
  25216542.854     -640372.890 7   -498952.779 9
  25409637.078    -6267938.739 7  -4884099.533 6
  28754908.986     7602875.965 5   5924327.813 2
  25995585.035     6225054.306 7   4850721.494 8
 91  5  6 23 14 30.0150000  0  4  6 13 15  2
  25226429.406     -588414.537 7   -458465.749 9
  25408674.140    -6273016.865 7  -4888056.380 6
  28772410.272     7694866.928 4   5996009.069 3
  26009990.059     6300743.948 7   4909700.422 9
 91  5  6 23 15  0.0160000  0  4  6 13 15  2
  25236414.293     -535935.132 7   -417572.702 9
  25407819.135    -6277512.303 7  -4891559.208 6
  28790029.673     7787406.252 4   6068117.601 3
  26024432.560     6376648.091 7   4968846.488 8
 91  5  6 23 15 30.0160000  0  4  6 13 15  2
  25246499.611     -482939.950 7   -376277.757 9
  25407071.454    -6281426.847 7  -4894609.376 7
  28807743.817     7880483.289 4   6140645.150 2
  26038915.534     6452758.979 7   5028153.654 9
 91  5  6 23 16  0.0160000  0  4  6 13 15  2
  25256685.364     -429426.986 7   -334579.340 9
  25406437.985    -6284761.115 7  -4897207.386 7
  28825559.582     7974098.551 5   6213592.105 3
  26053441.375     6529078.296 8   5087623.228 8
 91  5  6 23 16 30.0160000  0  4  6 13 15  2
  25266966.143     -375389.015 7   -292471.846 9
  25405917.253    -6287508.488 7  -4899348.068 7
  28843469.185     8068256.817 4   6286962.210 3
  26068004.995     6605611.859 7   5147259.771 9
 91  5  6 23 17  0.0160000  0  4  6 13 15  2
  25277350.052     -320819.378 7   -249950.059 9
  25405508.935    -6289663.130 7  -4901026.888 7
  28861492.101     8162962.217 4   6360758.635 1
  26082606.691     6682365.664 7   5207067.923 8
 91  5  6 23 17 30.0160000  0  4  6 13 15  2
  25287832.301     -265729.859 7   -207023.178 9
  25405206.741    -6291237.496 7  -4902253.548 6
  28879613.655     8258199.799 4   6434969.707 3
  26097254.544     6759327.057 7   5267037.825 8
 91  5  6 23 18  0.0160000  0  4  6 13 15  2
  25298413.171     -210123.134 7   -163693.256 9
  25405018.768    -6292234.787 7  -4903030.545 6
  28897842.842     8353964.052 5   6509591.207 3
  26111938.082     6836491.803 7   5327166.192 8
 91  5  6 23 18 30.0160000  0  4  6 13 15  2
  25309094.179     -153994.967 7   -119957.030 9
  25404936.333    -6292650.921 7  -4903354.689 7
  28916157.762     8450257.153 4   6584624.824 2
  26126659.688     6913863.643 7   5387455.928 8
 91  5  6 23 19  0.0160000  0  4  6 13 15  2
  25319872.917      -97353.725 7    -75821.004 9
  25404968.406    -6292495.464 7  -4903233.436 6
  28934584.206     8547067.830 5   6660061.720 1
  26141425.067     6991433.013 7   5447899.597 9
 91  5  6 23 19 30.0160000  0  4  6 13 15  2
  25330747.587      -40219.359 7    -31300.706 9
  25405101.211    -6291788.355 7  -4902682.303 6
  28953099.087     8644373.521 4   6735884.363 1
  26156216.526     7069179.395 7   5508481.211 9
 91  5  6 23 20  0.0160000  0  4  6 13 15  2
  25341717.597       17435.482 7     13625.138 9
  25405347.643    -6290503.116 7  -4901680.700 7
  28971726.095     8742198.926 4   6812111.921 2
  26171050.555     7147128.623 7   5569220.870 8
 91  5  6 23 20 30.0160000  0  4  6 13 15  2
  25352787.727       75607.439 7     58953.927 9
  25405698.401    -6288644.126 7  -4900232.027 7
  28990431.045     8840537.665 5   6888739.504 4
  26185919.362     7225276.594 7   5630115.401 8
 91  5  6 23 21  0.0160000  0  4  6 13 15  2
  25363959.199      134298.858 7    104687.497 9
  25406162.176    -6286209.148 7  -4898334.532 7
  29009246.620     8939390.045 4   6965767.321 3
  26200830.739     7303624.973 7   5691166.080 8
 91  5  6 23 21 30.0160000  0  4  6 13 15  2
  25375218.202      193490.876 7    150811.146 9
  25406733.286    -6283217.618 7  -4896003.366 7
  29028147.928     9038734.360 4   7043178.470 1
  26215775.995     7382153.803 7   5752357.382 9
 91  5  6 23 22  0.0160000  0  4  6 13 15  2
  25386584.235      253215.335 7    197349.683 9
  25407413.810    -6279638.705 7  -4893214.495 7
  29047149.374     9138599.699 4   7120995.621 2
  26230758.421     7460894.041 7   5813713.400 8
 91  5  6 23 22 30.0160000  0  4  6 13 15  2
  25398050.093      313464.743 7    244297.276 9
  25408203.764    -6275480.262 7  -4889974.047 7
  29066259.649     9238975.927 4   7199210.872 2
  26245780.126     7539837.738 7   5875227.970 9
 91  5  6 23 23  0.0160000  0  4  6 13 15  2
  25409613.994      374226.113 7    291643.803 9
  25409100.443    -6270755.738 7  -4886292.492 7
  29085451.459     9339847.724 4   7277812.273 1
  26260838.102     7618970.821 7   5936890.092 8
 91  5  6 23 23 30.0160000  0  4  6 13 15  2
  25421276.813      435511.250 7    339398.451 9
  25410112.547    -6265454.519 7  -4882161.577 7
  29104742.509     9441223.407 4   7356806.331 3
  26275935.952     7698304.206 7   5998708.306 8
 91  5  6 23 24  0.0160000  0  4  6 13 15  2
  25433036.479      497316.167 7    387558.132 9
  25411229.571    -6259581.815 7  -4877585.342 6
  29124125.591     9543096.992 4   7436188.312 2
  26291071.573     7777833.590 7   6060679.240 9
 91  5  6 23 24 30.0160000  0  4  6 13 15  2
  25444897.166      559653.816 7    436132.921 9
  25412458.118    -6253124.629 7  -4872553.669 7
  29143602.504     9645478.460 4   7515966.143 2
  26306245.262     7857570.909 7   6122812.197 8
 91  5  6 23 25  0.0160000  0  4  6 13 15  2
  25456864.577      622533.502 7    485130.077 9
  25413799.691    -6246074.632 7  -4867060.068 7
  29163179.248     9748374.571 4   7596144.896 2
  26321458.536     7937524.550 7   6185113.727 8
 91  5  6 23 25 30.0160000  0  4  6 13 15  2
  25468933.322      685953.252 7    534548.053 9
  25415251.889    -6238433.966 7  -4861106.212 8
  29182866.322     9851780.504 4   7676720.949 1
  26336714.973     8017691.871 7   6247581.730 8
 91  5  6 23 26  0.0160000  0  4  6 13 15  2
  25481107.598      749915.917 7    584389.096 9
  25416819.503    -6230200.528 7  -4854690.446 7
  29202635.238     9955696.805 4   7757694.678
  26352010.081     8098075.419 7   6310218.240 7
 91  5  6 23 26 30.0160000  0  4  6 13 15  2
  25493374.804      814410.568 7    634644.647 9
  25418497.141    -6221386.257 7  -4847822.086 7
  29222514.770    10060109.234 4   7839055.005 3
  26367346.562     8178663.086 7   6373013.786 8
 91  5  6 23 27  0.0160000  0  4  6 13 15  2
  25505748.439      879433.776 7    685312.076 9
  25420285.998    -6211995.720 7  -4840504.701 7
  29242473.457    10165011.666 4   7920797.119 1
  26382719.619     8259450.837 7   6435965.261 8
 91  5  6 23 27 30.0160000  0  4  6 13 15  2
  25518228.800      944998.748 7    736401.652 9
  25422184.887    -6202015.428 7  -4832727.758 7
  29262526.872    10270415.211 4   8002929.719 2
  26398131.355     8340451.547 7   6499082.670 7
 91  5  6 23 28  0.0160000  0  4  6 13 15  2
  25530806.289     1011109.117 7    787916.213 9
  25424194.393    -6191442.946 7  -4824489.372 8
  29282681.917    10376321.004 5   8085453.715 3
  26413586.254     8421668.342 7   6562368.464 7
 91  5  6 23 28 30.0160000  0  4  6 13 15  2
  25543494.107     1077769.701 7    839859.507 9
  25426322.325    -6180273.938 7  -4815786.154 8
  29302928.104    10482730.932 5   8168370.532 2
  26429083.722     8503105.458 7   6625825.928 8
 91  5  6 23 29  0.0160000  0  4  6 13 15  2
  25556286.251     1145000.258 7    892246.960 9
  25428562.069    -6168490.262 7  -4806603.972 7
  29323279.814    10589662.199 5   8251693.558 3
  26444626.466     8584782.417 7   6689470.290 7
 91  5  6 23 29 30.0160000  0  4  6 13 15  2
  25569186.019     1212798.377 7    945076.641 9
  25430921.138    -6156094.201 7  -4796944.612 8
  29343725.658    10697109.520 5   8335418.727 2
  26460214.475     8666695.881 7   6753298.952 8
 91  5  6 23 30  0.0160000  0  4  6 13 15  2
  25582196.116     1281155.954 7    998342.280 9
  25433392.926    -6143094.502 7  -4786814.879 8
  29364265.943    10805062.430 4   8419537.859 1
  26475845.350     8748837.243 7   6817305.200 7
 91  5  6 23 30 30.0160000  0  4  6 13 15  2
  25595313.532     1350083.633 7   1052052.145 9
  25435986.133    -6129482.021 7  -4776207.664 7
  29384910.850    10913528.366 4   8504056.690 2
  26491519.999     8831216.790 7   6881497.029 7
 91  5  6 23 31  0.0160000  0  4  6 13 15  2
  25608537.978     1419587.215 7   1106210.759 9
  25438689.661    -6115251.430 7  -4765118.798 8
  29405644.492    11022510.980 5   8588978.145 3
  26507243.222     8913839.957 7   6945878.708 7
 91  5  6 23 31 30.0160000  0  4  6 13 15  2
  25621873.348     1489650.307 7   1160805.363 9
  25441514.607    -6100419.313 7  -4753561.213 8
  29426478.272    11131991.096 5   8674287.310 1
  26523010.505     8996689.720 7   7010436.946 7
 91  5  6 23 32  0.0170000  0  4  6 13 15  2
  25635310.341     1560277.148 7   1215839.252 9
  25444451.071    -6084984.474 7  -4741533.985 8
  29447410.379    11241972.116 4   8759986.735 2
  26538820.956     9079770.373 7   7075175.101 8
 91  5  6 23 32 30.0170000  0  4  6 13 15  2
  25648855.567     1631446.826 7   1271296.133 9
  25447500.261    -6068964.846 7  -4729051.065 8
  29468440.823    11352427.762 4   8846056.092 2
  26554672.480     9163059.737 7   7140075.887 7
 91  5  6 23 33  0.0170000  0  4  6 13 15  2
  25662503.016     1703174.375 7   1327187.703 9
  25450664.867    -6052347.855 7  -4716102.676 8
  29489537.822    11463371.240 4   8932505.472 4
  26570565.083     9246572.881 7   7205151.052 7
 91  5  6 23 33 30.0170000  0  4  6 13 15  2
  25676257.495     1775457.860 7   1383512.483 9
  25453938.606    -6035136.438 7  -4702691.094 7
  29510745.735    11574798.502 4   9019331.843 3
  26586496.355     9330307.779 7   7270398.999 6
 91  5  6 23 34  0.0170000  0  5  6 13 15  2 12
  25690116.607     1848299.857 7   1440272.466 9
  25457326.558    -6017328.881 7  -4688814.991 8
  29532037.295    11686709.447 4   9106535.207 2
  26602474.394     9414266.561 7   7335821.411 7
  29842876.505     -215259.361 4   -167734.841 2
 91  5  6 23 34 30.0170000  0  5  6 13 15  2 12
  25704091.125     1921711.698 7   1497476.479 9
  25460828.136    -5998914.179 7  -4674465.784 8
  29553415.199    11799112.214 4   9194121.705 2
  26618495.299     9498459.926 7   7401426.622 7
  29833035.822     -266904.513 4   -207977.638 3
 91  5  6 23 35  0.0170000  0  5  6 13 15  2 12
  25718171.479     1995700.559 7   1555130.118 9
  25464451.124    -5979886.569 7  -4659638.990 8
  29574905.221    11912011.703 4   9282095.293 2
  26634562.980     9582895.247 7   7467220.365 7
  29823216.715     -318525.379 4   -248201.909 3
 91  5  6 23 35 30.0170000  0  5  6 13 15  2 12
  25732361.560     2070267.112 7   1613233.878 9
  25468189.240    -5960246.082 7  -4644334.661 8
  29596485.181    12025405.809 4   9370454.314 2
  26650674.426     9667572.724 7   7533202.771 7
  29813413.506     -370120.232 4   -288405.518 1
 91  5  6 23 36  0.0170000  0  5  6 13 15  2 12
  25746655.364     2145398.891 7   1671778.123 9
  25472042.474    -5940005.640 7  -4628562.787 8
  29618156.580    12139280.292 4   9459187.755 2
  26666834.435     9752480.142 7   7599364.383 7
  29803586.005     -421699.865 4   -328597.663 3
 91  5  6 23 36 30.0170000  0  5  6 13 15  2 12
  25761055.293     2221090.125 7   1730758.280 9
  25476006.326    -5919171.742 7  -4612328.514 8
  29639927.507    12253626.011 4   9548288.229 2
  26683033.420     9837610.997 7   7665700.096 6
  29793774.699     -473269.118 4   -368781.734 1
 91  5  6 23 37  0.0170000  0  5  6 13 15  2 12
  25775567.348     2297323.048 7   1790160.533 9
  25480078.710    -5897762.817 7  -4595646.153 8
  29661755.094    12368422.816 4   9637740.224 4
  26699274.076     9922947.845 7   7732196.314 7
  29783959.196     -524844.363 4   -408970.073 3
 91  5  6 23 37 30.0170000  0  5  6 13 15  2 12
  25790174.733     2374090.094 7   1849978.977 8
  25484257.513    -5875787.818 7  -4578522.698 9
  29683684.617    12483660.937 4   9727536.154 2
  26715547.713    10008482.576 7   7798846.738 6
  29774139.190     -576431.531 4   -449168.065 4
 91  5  6 23 38  0.0170000  0  5  6 13 15  2 12
  25804880.450     2451381.095 7   1910205.704 9
  25488546.044    -5853257.431 7  -4560966.468 8
  29705703.467    12599327.237 4   9817665.758 3
  26731859.723    10094204.802 7   7865643.264 7
  29764324.586     -628039.521 5   -489381.938 3
 91  5  6 23 38 30.0170000  0  5  6 13 15  2 12
  25819689.604     2529198.587 7   1970842.694 8
  25492942.801    -5830169.616 7  -4542975.880 7
  29727795.478    12715422.158 4   9908129.311 4
  26748208.299    10180117.185 7   7932587.968 6
  29754505.488     -679664.273 5   -529608.752 3
 91  5  6 23 39  0.0170000  0  4  6 13  2 12
  25834600.082     2607550.032 7   2031895.756 9
  25497442.985    -5806517.245 7  -4524545.381 8
  26764596.453    10266226.914 7   7999686.443 6
  29744668.992     -731297.071 4   -569841.939 2
 91  5  6 23 39 30.0170000  0  4  6 13  2 12
  25849615.183     2686441.641 7   2093369.701 8
  25502053.795    -5782295.588 7  -4505671.285 8
  26781020.284    10352539.930 7   8066943.322 7
  29734841.797     -782930.039 5   -610075.179 3
 91  5  6 23 40  0.0170000  0  4  6 13  2 12
  25864731.320     2765878.862 7   2155268.819 9
  25506768.931    -5757500.494 7  -4486350.349 8
  26797486.388    10439061.918 7   8134363.031 7
  29725026.896     -834555.870 5   -650302.925 2
 91  5  6 23 40 30.0170000  0  4  6 13  2 12
  25879950.284     2845855.613 7   2217588.334 8
  25511596.490    -5732138.310 7  -4466587.538 8
  26813986.965    10525786.858 7   8201940.891 7
  29715204.788     -886179.575 5   -690528.978 2
 91  5  6 23 41  0.0170000  0  4  6 13  2 12
  25895270.580     2926368.770 7   2280325.824 9
  25516528.978    -5706212.967 7  -4446385.901 8
  26830531.010    10612711.547 7   8269674.378 7
  29705381.197     -937802.491 5   -730754.447 3
 91  5  6 23 41 30.0170000  0  4  6 13  2 12
  25910693.702     3007427.662 7   2343488.556 8
  25521572.684    -5679715.816 7  -4425738.700 8
  26847110.436    10699845.307 7   8337570.799 7
  29695548.898     -989413.466 5   -770970.613 2
 91  5  6 23 42  0.0170000  0  4  6 13  2 12
  25926229.840     3089034.280 7   2407078.097 8
  25526724.014    -5652646.133 7  -4404645.376 8
  26863733.322    10787190.370 7   8405631.843 6
  29685734.590    -1041008.905 5   -811174.655 2
 91  5  6 23 42 30.0170000  0  4  6 13  2 12
  25941863.124     3171202.904 7   2471105.566 8
  25531984.775    -5624990.136 7  -4383095.173 8
  26880395.793    10874761.040 7   8473868.713 7
  29675925.386    -1092572.765 5   -851354.098 3
 91  5  6 23 43  0.0170000  0  4  6 13  2 12
  25957603.726     3253924.335 7   2535563.779 8
  25537357.357    -5596757.998 7  -4361096.053 8
  26897099.621    10962548.132 7   8542274.206 6
  29666108.984    -1144112.643 4   -891514.816 1
 91  5  6 23 43 30.0170000  0  4  6 13  2 12
  25973447.756     3337188.306 7   2600444.775 8
  25542834.265    -5567960.136 7  -4338656.092 7
  26913846.333    11050541.338 7   8610840.313 6
  29656314.160    -1195637.041 5   -931663.496 2
 91  5  6 23 44  0.0170000  0  4  6 13  2 12
  25989394.620     3420997.372 7   2665750.500 8
  25548424.791    -5538595.328 7  -4315774.366 8
  26930629.010    11138743.460 7   8679569.200 6
  29646507.949    -1247141.699 4   -971796.738 3
 91  5  6 23 44 30.0170000  0  4  6 13  2 12
  26005447.006     3505347.618 7   2731477.922 8
  25554122.052    -5508668.767 7  -4292454.917 8
  26947452.765    11227150.798 7   8748458.000 7
  29636719.127    -1298628.657 5  -1011916.711 2
 91  5  6 23 45  0.0170000  0  4  6 13  2 12
  26021600.123     3590228.220 7   2797618.609 8
  25559919.433    -5478191.865 7  -4268706.617 8
  26964314.597    11315752.679 7   8817498.381 6
  29626916.214    -1350106.843 5  -1052029.356 3
 91  5  6 23 45 30.0170000  0  4  6 13  2 12
  26037852.174     3675634.079 7   2864168.609 8
  25565821.751    -5447170.057 7  -4244533.718 8
  26981209.095    11404544.324 7   8886686.661 6
  29617118.397    -1401579.331 5  -1092138.009 2
 91  5  6 23 46  0.0170000  0  4  6 13  2 12
  26054203.150     3761568.167 7   2931130.211 8
  25571831.388    -5415601.509 7  -4219934.783 8
  26998144.671    11493529.240 7   8956025.534 6
  29607331.067    -1453041.008 5  -1132237.799 3
 91  5  6 23 46 30.0170000  0  4  6 13  2 12
  26070659.359     3848046.679 7   2998516.020 8
  25577944.155    -5383470.713 7  -4194897.742 9
  27015120.722    11582723.562 7   9025527.563 6
  29597535.056    -1504473.528 5  -1172315.303 3
 91  5  6 23 47  0.0170000  0  4  6 13  2 12
  26087220.794     3935072.733 7   3066328.505 8
  25584167.845    -5350775.294 7  -4169420.727 8
  27032130.348    11672130.412 7   9095195.201 7
  29587746.827    -1555871.961 5  -1212366.235 2
 91  5  6 23 47 30.0170000  0  4  6 13  2 12
  26103879.958     4022627.096 7   3134552.646 8
  25590493.471    -5317535.517 7  -4143519.553 8
  27049182.239    11761731.262 7   9165014.020 6
  29577975.395    -1607253.404 5  -1252403.536 3
 91  5  6 23 48  0.0170000  0  4  6 13  2 12
  26120644.356     4110715.350 7   3203192.821 8
  25596921.616    -5283746.214 7  -4117190.157 9
  27066266.813    11851532.147 7   9234988.713 7
  29568207.557    -1658610.318 5  -1292422.102 4
 91  5  6 23 48 30.0180000  0  4  6 13  2 12
  26137510.379     4199344.405 7   3272254.369 7
  25603457.092    -5249403.708 7  -4090429.707 9
  27083393.952    11941539.780 7   9305124.490 7
  29558437.323    -1709938.606 5  -1332418.413 3
 91  5  6 23 49  0.0180000  0  4  6 13  2 12
  26154476.833     4288505.689 7   3341730.649 8
  25610096.595    -5214513.214 7  -4063242.239 8
  27100562.174    12031746.506 7   9375415.417 6
  29548673.681    -1761235.031 5  -1372389.438 2
 91  5  6 23 49 30.0180000  0  4  6 13  2 12
  26171545.816     4378206.375 7   3411627.252 8
  25616841.331    -5179070.786 7  -4035624.717 9
  27117768.159    12122159.335 7   9445866.931 7
  29538928.921    -1812495.044 5  -1412332.055 2
 91  5  6 23 50  0.0180000  0  4  6 13  2 12
  26188721.821     4468459.925 7   3481954.648 8
  25623690.384    -5143063.101 7  -4007566.716 8
  27135015.221    12212792.298 7   9516489.984 7
  29529181.178    -1863702.878 5  -1452234.063 2
 91  5  6 23 50 30.0180000  0  4  6 13  2 12
  26206002.161     4559267.321 7   3552713.615 8
  25630649.767    -5106490.470 7  -3979068.501 9
  27152304.853    12303646.825 7   9587285.686 6
  29519437.020    -1914855.213 5  -1492092.801 3
 91  5  6 23 51  0.0180000  0  4  6 13  2 12
  26223389.226     4650642.029 7   3623914.646 8
  25637720.377    -5069340.218 7  -3950120.192 9
  27169637.954    12394736.896 7   9658264.921 6
  29509730.039    -1965936.207 5  -1531895.970 2
 91  5  6 23 51 30.0180000  0  4  6 13  2 12
  26240881.516     4742579.927 7   3695554.512 8
  25644898.602    -5031617.033 7  -3920725.455 8
  27187017.516    12486058.738 7   9729424.769 6
  29500017.964    -2016947.718 5  -1571645.004 3
 91  5  6 23 52  0.0180000  0  4  6 13  2 12
  26258484.432     4835071.846 7   3767626.087 8
  25652184.766    -4993330.913 7  -3890892.056 9
  27204433.662    12577604.290 7   9800758.921 6
  29490327.168    -2067896.678 5  -1611345.280 2
 91  5  6 23 52 30.0180000  0  4  6 13  2 12
  26276188.071     4928101.648 7   3840116.793 7
  25659576.443    -4954499.033 7  -3860633.399 9
  27221900.169    12669357.460 7   9872254.855 7
  29480632.185    -2118796.898 5  -1651007.594 3
 91  5  6 23 53  0.0180000  0  4  6 13  2 12
  26293992.144     5021668.854 7   3913026.240 8
  25667067.961    -4915122.460 7  -3829950.293 9
  27239395.461    12761318.312 7   9943912.612 6
  29470950.988    -2169646.477 5  -1690630.426 3
 91  5  6 23 53 30.0180000  0  4  6 13  2 12
  26311901.451     5115773.567 7   3986354.534 8
  25674661.406    -4875201.918 7  -3798843.332 8
  27256934.518    12853487.372 7  10015732.613 5
  29461292.571    -2220442.546 5  -1730211.581 2
 91  5  6 23 54  0.0180000  0  4  6 13  2 12
  26329908.488     5210407.804 7   4060095.428 8
  25682362.169    -4834746.318 7  -3767319.438 9
  27274511.049    12945857.911 7  10087709.622 6
  29451635.359    -2271190.792 5  -1769755.411 3
 91  5  6 23 54 30.0180000  0  4  6 13  2 12
  26348018.350     5305576.157 7   4134252.525 8
  25690165.470    -4793751.888 7  -3735375.687 8
  27292129.251    13038434.400 7  10159847.093 6
  29441991.330    -2321884.282 5  -1809256.611 2
 91  5  6 23 55  0.0180000  0  4  6 13  2 12
  26366230.741     5401280.970 7   4208827.639 7
  25698068.596    -4752217.201 7  -3703010.949 9
  27309790.023    13131220.095 7  10232147.584 7
  29432353.305    -2372517.877 5  -1848711.114 3
 91  5  6 23 55 30.0180000  0  4  6 13  2 12
  26384543.863     5497515.849 7   4283815.796 7
  25706071.859    -4710149.607 7  -3670230.965 9
  27327484.378    13224209.322 7  10304606.674 7
  29422726.971    -2423095.340 5  -1888121.893 3
 91  5  6 23 56  0.0180000  0  4  6 13  2 12
  26402955.910     5594271.051 7   4359209.409 7
  25714177.049    -4667559.133 7  -3637043.533 9
  27345216.199    13317392.882 7  10377217.182 5
  29413105.427    -2473624.229 5  -1927495.304 3
 91  5  6 23 56 30.0180000  0  4  6 13  2 12
  26421466.901     5691544.797 7   4435007.077 7
  25722383.869    -4624448.295 7  -3603450.637 9
  27362985.197    13410769.729 7  10449978.318 6
  29403505.181    -2524103.453 5  -1966830.002 2
 91  5  6 23 57  0.0180000  0  4  6 13  2 12
  26440071.119     5789326.379 7   4511200.466 8
  25730683.018    -4580828.782 7  -3569461.360 9
  27380784.777    13504330.043 7  10522882.416 6
  29393901.322    -2574540.982 5  -2006131.750 2
 91  5  6 23 57 30.0180000  0  4  6 13  2 12
  26458777.272     5887614.492 7   4587788.571 8
  25739077.209    -4536702.796 7  -3535077.407 9
  27398626.325    13598073.466 7  10595929.233 6
  29384319.957    -2624935.141 5  -2045399.671 3
 91  5  6 23 58  0.0180000  0  4  6 13  2 12
  26477577.858     5986410.056 7   4664772.040 6
  25747570.632    -4492070.618 7  -3500299.073 9
  27416501.150    13692001.146 7  10669119.549 6
  29374729.894    -2675282.330 5  -2084631.004 2
 91  5  6 23 58 30.0180000  0  4  6 13  2 12
  26496475.274     6085724.113 7   4742159.553 7
  25756161.478    -4446921.453 7  -3465117.877 9
  27434414.348    13786125.324 7  10742462.982 6
  29365165.316    -2725568.809 5  -2123815.067 3
 91  5  6 23 59  0.0180000  0  4  6 13  2 12
  26515476.119     6185569.264 7   4819960.910 8
  25764853.065    -4401243.385 7  -3429524.528 9
  27452362.621    13880459.370 7  10815970.003 6
  29355603.443    -2775779.281 5  -2162939.866 5
 91  5  6 23 59 30.0180000  0  4  6 13  2 12
  26534575.897     6285943.530 7   4898174.569 8
  25773647.775    -4355039.486 7  -3393521.448 9
  27470352.269    13975002.292 7  10889639.764 6
  29346067.937    -2825912.616 5  -2202005.023 3
 91  5  7  0  0  0.0180000  0  4  6 13  2 12
  26553777.305     6386854.032 7   4976806.065 8
  25782542.020    -4308303.188 7  -3357103.521 9
  27488385.385    14069761.747 7  10963478.247 6
  29336554.628    -2875958.974 5  -2241002.448 3
 91  5  7  0  0 30.0180000  0  4  6 13  2 12
  26573085.438     6488305.108 7   5055858.772 7
  25791538.191    -4261031.210 7  -3320268.164 9
  27506461.673    14164742.844 6  11037489.442 6
  29327040.115    -2925911.211 5  -2279926.513 3
 91  5  7  0  1  0.0180000  0  4  6 13  2 12
  26592490.098     6590279.989 7   5135319.667 8
  25800629.397    -4213240.780 7  -3283028.836 9
  27524572.739    14259930.125 6  11111661.298 5
  29317548.680    -2975783.073 5  -2318787.476 4
 91  5  7  0  1 30.0180000  0  4  6 13  2 12
  26611993.098     6692763.243 7   5215176.680 7
  25809820.436    -4164947.891 7  -3245397.966 9
  27542725.171    14355308.871 6  11185982.347 6
  29308074.939    -3025587.076 5  -2357595.563 4
 91  5  7  0  2  0.0180000  0  4  6 13  2 12
  26631591.735     6795759.666 7   5295433.559 7
  25819106.805    -4116149.034 7  -3207372.843 9
  27560909.982    14450884.853 6  11260457.079 6
  29298608.999    -3075315.330 5  -2396345.102 2
 91  5  7  0  2 30.0180000  0  4  6 13  2 12
  26651286.295     6899258.398 7   5376081.848 7
  25828487.012    -4066855.861 7  -3168962.527 9
  27579133.759    14546648.160 6  11335077.779 6
  29289164.330    -3124975.618 5  -2435041.228 4
 91  5  7  0  3  0.0180000  0  4  6 13  2 12
  26671079.492     7003267.281 7   5457127.655 7
  25837961.948    -4017061.238 7  -3130161.479 9
  27597393.222    14642607.486 6  11409851.229 6
  29279724.766    -3174556.993 5  -2473675.825 3
 91  5  7  0  3 30.0180000  0  4  6 13  2 12
  26690968.325     7107792.299 7   5538575.633 7
  25847534.021    -3966759.268 7  -3090965.096 9
  27615690.456    14738769.832 6  11484782.863 6
  29270313.087    -3224050.284 5  -2512241.832 3
 91  5  7  0  4  0.0180000  0  4  6 13  2 12
  26710956.991     7212829.878 7   5620423.036 7
  25857201.136    -3915954.695 8  -3051377.068 9
  27634030.259    14835132.827 6  11559870.865 5
  29260913.387    -3273456.257 5  -2550739.767 2
 91  5  7  0  4 30.0180000  0  4  6 13  2 12
  26731042.785     7318371.637 7   5702663.287 8
  25866962.971    -3864656.418 7  -3011404.337 9
  27652404.536    14931689.031 6  11635109.400 6
  29251519.098    -3322780.166 5  -2589173.775 3
 91  5  7  0  5  0.0180000  0  4  6 13  2 12
  26751226.309     7424427.340 7   5785304.010 7
  25876819.552    -3812855.880 7  -2971040.250 9
  27670813.294    15028449.252 6  11710506.919 6
  29242146.682    -3372008.926 5  -2627533.673 4
 91  5  7  0  5 30.0190000  0  4  6 13  2 12
  26771503.378     7531002.516 6   5868349.527 7
  25886773.857    -3760549.774 7  -2930282.201 9
  27689269.415    15125419.827 6  11786068.364 6
  29232807.852    -3421138.777 6  -2665816.496 2
 91  5  7  0  6  0.0190000  0  4  6 13  2 12
  26791882.065     7638092.171 6   5951795.928 7
  25896822.906    -3707740.672 7  -2889132.205 9
  27707762.118    15222597.571 6  11861791.235 5
  29223475.606    -3470161.325 5  -2704015.706 3
 91  5  7  0  6 30.0190000  0  4  6 13  2 12
  26812359.686     7745709.502 6   6035653.502 7
  25906971.176    -3654417.968 7  -2847582.019 9
  27726298.280    15319996.571 6  11937686.520 5
  29214160.462    -3519065.298 6  -2742122.540 2
 91  5  7  0  7  0.0190000  0  4  6 13  2 12
  26832943.143     7853854.254 7   6119922.063 7
  25917215.989    -3600581.986 7  -2805631.865 9
  27744874.019    15417617.502 6  12013754.697 6
  29204880.680    -3567847.082 6  -2780134.146 4
 91  5  7  0  7 30.0190000  0  4  6 13  2 12
  26853622.524     7962522.619 7   6204598.642 7
  25927556.726    -3546237.909 8  -2763285.791 9
  27763489.938    15515457.562 6  12089993.677 5
  29195622.494    -3616507.546 6  -2818051.243 4
 91  5  7  0  8  0.0190000  0  4  6 13  2 12
  26874400.838     8071718.064 7   6289685.916 7
  25937995.202    -3491382.309 8  -2720541.137 9
  27782154.115    15613521.450 6  12166407.032 6
  29186394.879    -3665039.938 6  -2855868.516 2
 91  5  7  0  8 30.0190000  0  4  6 13  2 12
  26895277.790     8181439.501 7   6375183.080 6
  25948533.206    -3436017.168 7  -2677399.427 9
  27800855.470    15711809.714 6  12242995.244 5
  29177172.361    -3713441.938 6  -2893584.215 3
 91  5  7  0  9  0.0190000  0  4  6 13  2 12
  26916254.269     8291677.366 6   6461082.639 6
  25959161.147    -3380152.778 7  -2633868.697 9
  27819603.286    15810313.820 6  12319751.643 6
  29167993.023    -3761719.483 6  -2931202.905 2
 91  5  7  0  9 30.0190000  0  4  6 13  2 12
  26937332.370     8402423.182 7   6547378.000 6
  25969883.826    -3323798.729 7  -2589956.419 9
  27838384.388    15909026.537 6  12396670.580 6
  29158828.360    -3809877.515 6  -2968728.516 4
 91  5  7  0 10  0.0190000  0  4  6 13  2 12
  26958506.412     8513682.892 7   6634073.803 7
  25980705.134    -3266949.349 8  -2545658.173 9
  27857214.351    16007954.661 6  12473757.384 5
  29149681.995    -3857906.697 6  -3006153.677 4
 91  5  7  0 10 30.0190000  0  4  6 13  2 12
  26979778.192     8625481.004 7   6721189.128 7
  25991623.273    -3209581.095 8  -2500955.595 9
  27876086.290    16107124.375 6  12551032.432 5
  29140574.002    -3905778.860 6  -3043456.512 2
 91  5  7  0 11  0.0190000  0  4  6 13  2 12
  27001155.189     8737819.004 7   6808725.140 6
  26002637.649    -3151692.916 8  -2455847.893 9
  27895002.893    16206538.529 6  12628497.952 6
  29131493.589    -3953488.883 6  -3080632.980 3
 91  5  7  0 11 30.0190000  0  4  6 13  2 12
  27022634.723     8850690.358 7   6896676.791 6
  26013748.857    -3093291.262 8  -2410340.062 9
  27913964.169    16306191.853 6  12706149.854 5
  29122446.148    -4001039.493 6  -3117685.207 3
 91  5  7  0 12  0.0190000  0  4  6 13  2 12
  27044215.582     8964097.763 7   6985046.119 7
  26024962.297    -3034375.030 7  -2364431.279 9
  27932971.906    16406088.301 6  12783991.197 6
  29113428.391    -4048424.968 6  -3154608.784 2
 91  5  7  0 12 30.0190000  0  4  6 13  2 12
  27065897.172     9078037.859 7   7073830.520 6
  26036270.763    -2974948.344 8  -2318124.741 9
  27952029.114    16506225.855 6  12862020.391 5
  29104451.711    -4095644.765 6  -3191403.255 4
 91  5  7  0 13  0.0190000  0  4  6 13  2 12
  27087677.094     9192490.708 6   7163014.488 6
  26047670.676    -2915031.662 8  -2271436.383 9
  27971127.688    16606585.665 6  12940222.798 5
  29095493.013    -4142715.331 6  -3228081.452 4
 91  5  7  0 13 30.0190000  0  4  6 13  2 12
  27109550.549     9307445.165 6   7252589.305 6
  26059165.012    -2854636.748 8  -2224375.389 9
  27990264.941    16707158.468 6  13018591.137 6
  29086555.596    -4189643.833 6  -3264648.912 5
 91  5  7  0 14  0.0190000  0  4  6 13  2 12
  27131522.336     9422893.587 7   7342549.037 6
  26070748.694    -2793772.039 8  -2176948.309 9
  28009443.568    16807937.663 6  13097120.334 5
  29077653.856    -4236434.549 6  -3301109.014 4
 91  5  7  0 14 30.0190000  0  4  6 13  2 12
  27153581.069     9538816.585 6   7432878.563 6
  26082412.724    -2732457.193 8  -2129170.480 9
  28028658.168    16908905.575 6  13175796.564 5
  29068778.501    -4283102.756 6  -3337473.648 3
 91  5  7  0 15  0.0190000  0  4  6 13  2 12
  27175728.833     9655213.139 6   7523577.092 6
  26094168.482    -2670693.498 8  -2081042.909 9
  28047908.733    17010062.471 6  13254620.050 5
  29059921.434    -4329645.658 6  -3373740.652 4
 91  5  7  0 15 30.0190000  0  4  6 13  2 12
  27197969.241     9772091.655 6   7614651.183 6
  26106007.591    -2608473.841 8  -2032560.036 9
  28067193.789    17111418.243 6  13333598.503 6
  29051090.446    -4376050.929 6  -3409900.412 4
 91  5  7  0 16  0.0190000  0  4  6 13  2 12
  27220310.667     9889470.782 6   7706115.354 6
  26117937.529    -2545779.910 8  -1983707.607 9
  28086523.806    17212993.169 6  13412747.748 5
  29042286.741    -4422296.346 6  -3445935.607 4
 91  5  7  0 16 30.0190000  0  4  6 13  2 12
  27242742.346    10007351.542 6   7797970.403 6
  26129957.108    -2482611.052 8  -1934485.100 9
  28105896.392    17314789.518 6  13492069.510 6
  29033516.314    -4468376.680 6  -3481842.177 5
 91  5  7  0 17  0.0190000  0  4  6 13  2 12
  27265267.846    10125736.144 6   7890218.064 6
  26142068.126    -2418966.381 8  -1884891.801 9
  28125312.150    17416811.184 6  13571566.856 4
  29024775.866    -4514285.907 6  -3517615.363 5
 91  5  7  0 17 30.0190000  0  4  6 13  2 12
  27287893.188    10244625.754 6   7982859.195 7
  26154270.575    -2354844.882 8  -1834927.019 9
  28144766.280    17519060.937 6  13651241.908 5
  29016074.690    -4560018.979 6  -3553251.373 4
 91  5  7  0 18  0.0190000  0  4  6 13  2 12
  27310608.459    10364014.811 6   8075889.560 6
  26166563.267    -2290253.104 8  -1784595.716 9
  28164268.382    17621534.811 6  13731091.628 5
  29007410.387    -4605577.667 6  -3588751.431 4
 91  5  7  0 18 30.0190000  0  4  6 13  2 12
  27333423.869    10483891.874 6   8169300.130 6
  26178941.099    -2225202.808 8  -1733907.191 9
  28183807.356    17724222.905 6  13811108.255 5
  28998767.669    -4650969.512 6  -3624121.547 4
 91  5  7  0 19  0.0190000  0  4  6 13  2 12
  27356326.512    10604256.165 6   8263090.401 6
  26191407.666    -2159695.281 8  -1682862.329 9
  28203386.806    17827125.966 6  13891292.402 5
  28990165.131    -4696191.104 6  -3659358.937 4
 91  5  7  0 19 30.0190000  0  4  6 13  2 12
  27379321.492    10725108.169 6   8357260.682 6
  26203961.771    -2093730.766 8  -1631461.411 9
  28223016.608    17930245.978 6  13971645.573 5
  28981593.165    -4741238.149 6  -3694460.358 3
 91  5  7  0 20  0.0190000  0  4  6 13  2 12
  27402418.103    10846444.449 7   8451808.318 6
  26216601.025    -2027312.574 8  -1579706.972 9
  28242675.203    18033581.424 6  14052166.640 4
  28973053.875    -4786109.450 6  -3729424.837 4
 91  5  7  0 20 30.0190000  0  4  6 13  2 12
  27425596.556    10968268.275 7   8546735.863 6
  26229324.214    -1960438.539 8  -1527597.317 9
  28262384.456    18137136.215 6  14132858.616 5
  28964554.755    -4830798.404 6  -3764247.229 4
 91  5  7  0 21  0.0190000  0  4  6 13  2 12
  27448870.644    11090578.060 6   8642042.071 6
  26242137.944    -1893110.303 8  -1475133.742 9
  28282131.184    18240911.649 6  14213722.500 4
  28956077.526    -4875301.871 6  -3798925.080 4
 91  5  7  0 21 30.0190000  0  4  6 13  2 12
  27472237.367    11213368.022 6   8737722.465 6
  26255033.821    -1825335.339 8  -1422322.070 9
  28301921.685    18344902.684 6  14294754.453 4
  28947646.759    -4919621.818 6  -3833459.946 6
 91  5  7  0 22  0.0200000  0  4  6 13  2 12
  27495697.320    11336639.693 6   8833778.224 6
  26268014.535    -1757113.458 8  -1369162.116 9
  28321752.063    18449112.729 6  14375957.029 6
  28939244.482    -4963757.811 6  -3867851.412 5
 91  5  7  0 22 30.0200000  0  4  6 13  2 12
  27519242.428    11460377.543 6   8930197.192 6
  26281082.488    -1688457.538 8  -1315664.011 9
  28341619.607    18553528.452 6  14457319.829 4
  28930888.062    -5007710.303 6  -3902099.967 4
 91  5  7  0 23  0.0200000  0  4  6 13  2 12
  27542880.764    11584584.946 6   9026982.057 5
  26294228.985    -1619366.203 8  -1261826.586 9
  28361528.823    18658154.772 6  14538846.779 4
  28922550.531    -5051477.057 6  -3936203.771 4
 91  5  7  0 23 30.0200000  0  4  6 13  2 12
  27566603.933    11709255.996 6   9124128.218 6
  26307456.128    -1549846.234 8  -1207655.163 9
  28381477.309    18762987.657 6  14620534.660 4
  28914257.673    -5095059.927 6  -3970164.316 3
 91  5  7  0 24  0.0200000  0  4  6 13  2 12
  27590412.557    11834382.364 6   9221629.156 6
  26320767.215    -1479905.828 8  -1153156.125 9
  28401466.577    18868020.106 6  14702378.049 5
  28905999.296    -5138462.748 6  -4003984.526 4
 91  5  7  0 24 30.0200000  0  4  6 13  2 12
  27614307.210    11959947.235 6   9319471.801 6
  26334153.844    -1409562.953 8  -1098343.482 9
  28421486.418    18973237.044 6  14784365.208 5
  28897775.689    -5181698.031 6  -4037674.204 4
 91  5  7  0 25  0.0200000  0  4  6 13  2 12
  27638289.410    12085960.781 6   9417664.057 6
  26347615.125    -1338807.667 8  -1043209.481 9
  28441550.626    19078650.403 6  14866505.397 5
  28889577.559    -5224751.540 6  -4071222.249 5
 91  5  7  0 25 30.0200000  0  4  6 13  2 12
  27662349.256    12212408.934 6   9516194.962 6
  26361155.552    -1267654.362 8   -987765.332 9
  28461640.015    19184248.394 6  14948789.460 5
  28881423.203    -5267632.682 6  -4104635.979 5
 91  5  7  0 26  0.0200000  0  4  6 13  2 12
  27686497.539    12339301.595 6   9615072.213 6
  26374773.920    -1196094.112 8   -932004.084 9
  28481771.677    19290041.868 6  15031225.864 5
  28873298.530    -5310327.412 6  -4137904.479 5
 91  5  7  0 26 30.0200000  0  4  6 13  2 12
  27710729.758    12466645.664 6   9714301.226 6
  26388470.840    -1124119.991 8   -875920.347 9
  28501945.315    19396040.020 6  15113821.721 5
  28865212.832    -5352824.509 6  -4171018.952 3
 91  5  7  0 27  0.0200000  0  4  6 13  2 12
  27735047.125    12594440.213 6   9813881.261 5
  26402245.702    -1051733.509 8   -819515.291 9
  28522152.824    19502243.774 6  15196577.792 4
  28857158.309    -5395120.307 6  -4203976.601 5
 91  5  7  0 27 30.0200000  0  4  6 13  2 12
  27759452.327    12722691.437 6   9913817.132 5
  26416098.819     -978928.715 8   -762784.277 9
  28542403.802    19608661.470 6  15279500.580 3
  28849151.748    -5437204.105 6  -4236769.053 3
 91  5  7  0 28  0.0200000  0  4  6 13  2 12
  27783942.076    12851394.472 6  10014105.058 6
  26430032.870     -905711.336 8   -705731.781 9
  28562697.358    19715289.817 6  15362587.500 4
  28841184.764    -5479076.537 6  -4269396.811 5
 91  5  7  0 28 30.0200000  0  4  6 13  2 12
  27808521.458    12980537.541 6  10114735.895 6
  26444039.174     -832092.695 8   -648366.597 9
  28583026.879    19822118.863 6  15445830.822 4
  28833256.152    -5520744.894 6  -4301865.540 5
 91  5  7  0 29  0.0200000  0  4  6 13  2 12
  27833181.792    13110128.184 6  10215715.489 6
  26458128.515     -758065.858 8   -590683.333 9
  28603392.985    19929158.023 6  15529237.897 3
  28825365.618    -5562197.096 6  -4334165.806 4
 91  5  7  0 29 30.0200000  0  4  6 13  2 12
  27857928.757    13240168.483 6  10317045.446 6
  26472294.008     -683630.107 8   -532681.452 9
  28623802.855    20036411.354 6  15612811.841 5
  28817516.745    -5603426.459 6  -4366292.455 5
 91  5  7  0 30  0.0200000  0  4  6 13  2 12
  27882759.667    13370651.463 6  10418720.358 6
  26486532.958     -608791.750 8   -474365.826 9
  28644255.296    20143874.106 6  15696548.943 4
  28809720.346    -5644435.177 6  -4398247.130 5
 91  5  7  0 30 30.0200000  0  4  6 13  2 12
  27907667.924    13501572.051 6  10520736.262 6
  26500851.342     -533556.917 8   -415741.275 9
  28664741.913    20251542.340 6  15780446.177 5
  28801954.222    -5685224.003 6  -4430030.492 5
 91  5  7  0 31  0.0200000  0  4  6 13  2 12
  27932663.721    13632917.735 6  10623083.415 5
  26515239.579     -457938.765 8   -356818.023 9
  28685267.801    20359405.663 6  15864495.473 3
  28794236.061    -5725800.876 7  -4461648.676 4
 91  5  7  0 31 30.0200000  0  4  6 13  2 12
  27957740.460    13764679.494 6  10725754.778 5
  26529705.469     -381946.416 8   -297603.197 9
  28705832.062    20467457.491 6  15948691.617 4
  28786552.084    -5766169.957 6  -4493104.959 5
 91  5  7  0 32  0.0200000  0  4  6 13  2 12
  27982892.750    13896863.303 6  10828755.012 6
  26544234.005     -305573.946 8   -238092.178 9
  28726431.102    20575705.347 6  16033040.502 4
  28778909.177    -5806321.144 6  -4524391.441 5
 91  5  7  0 32 30.0200000  0  4  6 13  2 12
  28008128.374    14029471.870 6  10932086.217 6
  26558839.899     -228818.705 8   -178282.894 9
  28747069.719    20684154.460 6  16117546.197 5
  28771315.732    -5846246.336 7  -4555501.803 5
 91  5  7  0 33  0.0200000  0  4  6 13  2 12
  28033446.153    14162512.097 6  11035753.819 6
  26573520.139     -151674.826 8   -118170.755 9
  28767745.801    20792812.851 6  16202215.022 4
  28763761.864    -5885934.443 7  -4586427.436 5
 91  5  7  0 33 30.0200000  0  4  6 13  2 12
  28058845.765    14295985.110 6  11139758.617 5
  26588275.921      -74141.462 8    -57755.129 9
  28788458.765    20901684.104 6  16287049.684 5
  28756252.059    -5925379.530 7  -4617163.687 4
 91  5  7  0 34  0.0200000  0  4  6 13  2 12
  28084323.930    14429881.612 6  11244093.410 6
  26603100.055        3772.168 8      2956.804 9
  28809216.994    21010760.983 6  16372044.552 4
  28748793.225    -5964586.052 7  -4647714.076 5
 91  5  7  0 34 30.0200000  0  4  6 13  2 12
  28109881.536    14564199.287 6  11348756.391 5
  26618001.538       82063.085 8     63962.720 9
  28830014.495    21120043.272 6  16457199.478 5
  28741376.961    -6003551.662 7  -4678076.738 5
 91  5  7  0 35  0.0200000  0  4  6 13  2 12
  28135525.181    14698938.595 6  11453747.899 5
  26632968.677      160731.534 8    125262.803 9
  28850853.074    21229533.129 6  16542516.156 4
  28734006.565    -6042271.212 7  -4708247.686 6
 91  5  7  0 35 30.0200000  0  4  6 13  2 12
  28161247.674    14834093.205 6  11559063.032 5
  26648011.366      239770.960 8    186851.962 9
  28871721.327    21339226.259 5  16627991.208 4
  28726691.625    -6080746.230 7  -4738228.080 6
 91  5  7  0 36  0.0200000  0  4  6 13  2 12
  28187037.918    14969659.326 6  11664698.814 5
  26663120.009      319177.838 8    248727.458 9
  28892633.049    21449121.298 6  16713623.615 3
  28719410.269    -6118975.557 7  -4768017.019 6
 91  5  7  0 36 30.0200000  0  4  6 13  2 12
  28212913.310    15105639.496 6  11770657.256 5
  26678300.294      398954.255 8    310890.921 9
  28913586.441    21559222.629 6  16799416.761 4
  28712188.566    -6156951.984 7  -4797608.881 5
 91  5  7  0 37  0.0200000  0  4  6 13  2 12
  28238868.738    15242023.834 6  11876930.596 5
  26693550.440      479089.557 8    373333.986 9
  28934577.011    21669522.154 6  16885364.313 4
  28705006.440    -6194680.546 7  -4827007.653 5
 91  5  7  0 37 30.0200000  0  4  6 13  2 12
  28264900.920    15378817.303 6  11983522.754 5
  26708870.432      559588.606 8    436060.529 9
  28955602.953    21780026.991 6  16971471.890 4
  28697874.379    -6232151.516 7  -4856205.686 6
 91  5  7  0 38  0.0200000  0  4  6 13  2 12
  28291011.341    15516026.420 6  12090438.805 6
  26724257.885      640457.719 8    499075.420 8
  28976677.765    21890746.146 6  17057746.442 5
  28690797.775    -6269353.406 7  -4885194.045 5
 91  5  7  0 38 30.0200000  0  4  6 13  2 12
  28317199.415    15653648.772 6  12197676.844 5
  26739715.777      721694.861 8    562377.101 8
  28997783.454    22001679.395 5  17144187.839 5
  28683770.939    -6306283.724 7  -4913970.771 6
 91  5  7  0 39  0.0210000  0  4  6 13  2 12
  28343467.528    15791689.663 6  12305241.016 5
  26755245.933      803302.710 8    625967.630 9
  29018936.210    22112832.860 5  17230800.804 5
  28676792.966    -6342938.153 7  -4942532.546 5
 91  5  7  0 39 30.0210000  0  4  6 13  2 12
  28369813.290    15930137.218 6  12413122.036 5
  26770846.829      885272.698 8    689840.320 8
  29040129.438    22224198.694 6  17317579.254 4
  28669871.058    -6379312.132 7  -4970875.816 5
 91  5  7  0 40  0.0210000  0  4  6 13  2 12
  28396239.996    16068995.322 6  12521322.982 5
  26786512.779      967607.012 8    753996.931 9
  29061362.837    22335781.952 6  17404527.146 4
  28663002.513    -6415402.651 7  -4998998.192 6
 91  5  7  0 40 30.0210000  0  4  6 13  2 12
  28422738.344    16208265.111 6  12629844.725 4
  26802254.882     1050306.658 8    818438.213 8
  29082637.313    22447585.848 6  17491646.962 5
  28656193.333    -6451203.424 7  -5026894.783 5
 91  5  7  0 41  0.0210000  0  4  6 13  2 12
  28449317.346    16347940.905 6  12738682.840 5
  26818053.646     1133365.530 8    883159.431 9
  29103958.251    22559607.147 5  17578936.176 3
  28649430.310    -6486715.330 7  -5054566.270 4
 91  5  7  0 41 30.0210000  0  4  6 13  2 12
  28475973.697    16488005.340 6  12847823.756 4
  26833925.256     1216766.341 8    948147.039 8
  29125316.061    22671830.477 5  17666382.799 4
  28642733.248    -6521950.558 7  -5082022.203 5
 91  5  7  0 42  0.0210000  0  4  6 13  2 12
  28502697.196    16628458.220 6  12957267.373 5
  26849866.126     1300508.557 8   1013400.716 8
  29146702.961    22784257.995 5  17753988.543 3
  28636077.255    -6556904.539 7  -5109258.953 6
 91  5  7  0 42 30.0210000  0  4  6 13  2 12
  28529497.441    16769294.884 6  13067010.061 5
  26865861.249     1384587.201 8   1078916.556 9
  29168135.118    22896886.600 5  17841751.006 3
  28629478.821    -6591576.888 7  -5136276.254 6
 91  5  7  0 43  0.0210000  0  4  6 13  2 12
  28556372.931    16910514.243 6  13177050.921 5
  26881924.733     1469001.190 8   1144693.683 8
  29189605.054    23009717.910 5  17929671.392 4
  28622935.251    -6625963.616 7  -5163070.989 6
 91  5  7  0 43 30.0210000  0  4  6 13  2 12
  28583321.878    17052121.669 6  13287394.163 5
  26898054.466     1553755.896 8   1210736.290 9
  29211122.961    23122759.311 5  18017755.466 3
  28616449.241    -6660054.451 7  -5189635.196 6
 91  5  7  0 44  0.0210000  0  4  6 13  2 12
  28610343.672    17194121.347 6  13398043.042 5
  26914249.856     1638854.971 8   1277047.265 9
  29232669.940    23236017.156 5  18106008.219 3
  28610015.695    -6693840.078 7  -5215961.538 7
 91  5  7  0 44 30.0210000  0  4  6 13  2 12
  28637440.117    17336509.966 6  13508995.027 5
  26930507.901     1724295.760 8   1343624.492 8
  29254269.994    23349490.628 5  18194428.993 3
  28603651.408    -6727318.419 7  -5242048.455 6
 91  5  7  0 45  0.0210000  0  4  6 13  2 12
  28664610.900    17479288.452 6  13620250.778 4
  26946831.297     1810078.820 8   1410468.426 8
  29275902.113    23463182.510 5  18283019.967 2
  28597339.272    -6760483.844 7  -5267891.533 6
 91  5  7  0 45 30.0210000  0  4  6 13  2 12
  28691851.841    17622460.967 6  13731813.597 5
  26963222.147     1896208.169 8   1477582.196 8
  29297575.912    23577099.305 5  18371786.199 2
  28591086.807    -6793327.061 7  -5293483.544 6
 91  5  7  0 46  0.0210000  0  4  6 13  2 12
  28719174.031    17766020.717 6  13843678.115 4
  26979672.660     1982676.661 8   1544960.243 9
  29319291.678    23691236.541 5  18460724.205 2
  28584899.090    -6825849.720 7  -5318825.770 6
 91  5  7  0 46 30.0210000  0  4  6 13  2 12
  28746560.673    17909959.019 6  13955837.610 5
  26996191.228     2069475.878 8   1612595.981 8
  29341054.813    23805587.471 5  18549828.699 2
  28578772.825    -6858055.285 7  -5343920.908 6
 91  5  7  0 47  0.0210000  0  4  6 13  2 12
  28774028.258    18054287.008 6  14068300.768 4
  27012774.248     2156616.804 8   1680497.994 9
  29362856.321    23920165.664 5  18639110.300 3
  28572705.332    -6889927.267 7  -5368756.115 7
 91  5  7  0 47 30.0210000  0  4  6 13  2 12
  28801567.494    18199008.993 6  14181070.941 4
  27029422.620     2244103.846 8   1748669.713 8
  29384716.881    24034977.720 5  18728574.127 2
  28566704.385    -6921456.461 7  -5393324.210 6
 91  5  7  0 48  0.0210000  0  4  6 13  2 12
  28829177.473    18344121.418 6  14294145.334 5
  27046133.053     2331932.990 8   1817108.003 8
  29406601.731    24150021.955 5  18818218.880 2
  28560771.486    -6952641.332 7  -5417624.004 6
 91  5  7  0 48 30.0210000  0  4  6 13  2 12
  28856870.200    18489622.984 6  14407522.974 4
  27062913.636     2420102.993 8   1885811.918 9
  29428539.648    24265299.785 5  18908045.673 1
  28554902.148    -6983477.892 7  -5441652.384 7
 91  5  7  0 49  0.0210000  0  4  6 13  2 12
  28884629.483    18635513.454 6  14521203.617 4
  27079755.373     2508614.092 8   1954781.590 9
  29450515.335    24380813.154 5  18998055.931 3
  28549098.171    -7013961.281 7  -5465405.581 7
 91  5  7  0 49 30.0210000  0  4  6 13  2 12
  28912470.311    18781784.911 6  14635181.192 5
  27096664.268     2597458.004 8   2024010.614 8
  29472544.979    24496556.515 5  19088245.442 1
  28543361.944    -7044094.010 7  -5488885.523 6
 91  5  7  0 50  0.0210000  0  4  6 13  2 12
  28940376.499    18928435.758 6  14749454.339 4
  27113633.418     2686633.401 8   2093497.938 8
  29494617.201    24612530.458 5  19178614.601 2
  28537700.657    -7073872.354 7  -5512089.324 6
 91  5  7  0 50 30.0210000  0  4  6 13  2 12
  28968353.429    19075468.905 6  14864025.896 3
  27130664.935     2776142.968 8   2163245.654 8
  29516731.094    24728740.127 5  19269167.467 3
  28532101.136    -7103288.399 7  -5535010.824 7
 91  5  7  0 51  0.0210000  0  4  6 13  2 12
  28996413.999    19222897.597 6  14978905.659 4
  27147766.288     2866000.299 8   2233264.351 8
  29538893.551    24845201.182 5  19359916.213 3
  28526577.164    -7132323.837 7  -5557635.752 7
 91  5  7  0 51 30.0210000  0  4  6 13  2 12
  29024534.536    19370712.296 6  15094085.701 4
  27164929.712     2956195.758 8   2303546.515 8
  29561097.976    24961906.294 5  19450855.121 2
  28521127.837    -7160982.836 7  -5579967.349 6
 91  5  7  0 52  0.0210000  0  4  6 13  2 12
  29052738.110    19518907.133 6  15209561.969 6
  27182156.689     3046723.633 8   2374087.705 8
  29583351.575    25078851.777 5  19541981.322 1
  28515739.366    -7189266.514 7  -5602006.488 7
 91  5  7  0 52 30.0210000  0  4  6 13  2 12
  29081010.334    19667462.924 6  15325319.993 5
  27199442.717     3137564.107 8   2444872.483 9
  29605652.229    25196020.938 5  19633281.855 2
  28510429.736    -7217188.607 7  -5623763.874 6
 91  5  7  0 53  0.0210000  0  4  6 13  2 12
  29109352.113    19816365.899 6  15441348.042 4
  27216786.611     3228704.291 8   2515890.782 9
  29627986.170    25313401.756 5  19724747.292 2
  28505178.277    -7244757.408 7  -5645245.973 7
 91  5  7  0 53 30.0210000  0  4  6 13  2 12
  29137742.763    19965624.440 6  15557653.645 3
  27234185.665     3320152.419 8   2587149.060 9
  29650370.175    25431005.160 5  19816386.189 2
  28500007.158    -7271959.289 7  -5666442.163 7
 91  5  7  0 54  0.0210000  0  4  6 13  2 12
  29166215.847    20115220.784 6  15674222.477 4
  27251644.381     3411891.103 8   2658633.736 8
  29672785.355    25548816.213 5  19908186.882 2
  28494896.591    -7298806.748 7  -5687362.176 7
 91  5  7  0 54 30.0210000  0  4  6 13  2 12
  29194744.100    20265155.394 6  15791054.895 4
  27269156.154     3503920.047 8   2730344.591 8
  29695234.414    25666837.642 5  20000151.432 2
  28489858.285    -7325294.465 7  -5708001.877 7
 91  5  7  0 55  0.0210000  0  4  6 13  2 12
  29223338.000    20415425.359 6  15908148.615 4
  27286720.993     3596237.415 8   2802280.188 8
  29717739.541    25785068.434 5  20092279.170 3
  28484884.720    -7351419.628 7  -5728359.064 6
 91  5  7  0 55 30.0210000  0  4  6 13  2 12
  29251996.065    20566030.104 6  16025503.191 5
  27304347.293     3688842.512 8   2874439.984 9
  29740283.032    25903510.805 5  20184571.777 2
  28479980.721    -7377177.654 7  -5748430.173 7
 91  5  7  0 56  0.0220000  0  4  6 13  2 12
  29280729.370    20716972.847 6  16143120.661 5
  27322026.958     3781737.061 8   2946825.336 8
  29762856.201    26022168.592 5  20277032.252 2
  28475151.961    -7402566.068 7  -5768213.292 7
 91  5  7  0 56 30.0220000  0  4  6 13  2 12
  29309508.548    20868235.740 6  16260988.069 5
  27339755.184     3874907.382 8   3019425.558 9
  29785475.845    26141028.610 5  20369650.285 3
  28470391.262    -7427585.272 7  -5787708.695 7
 91  5  7  0 57  0.0220000  0  4  6 13  2 12
  29338354.875    21019822.637 6  16379107.964 5
  27357538.866     3968354.563 8   3092241.531 9
  29808138.958    26260096.182 5  20462430.103 3
  28465699.806    -7452232.280 7  -5806914.069 6
 91  5  7  0 57 30.0220000  0  4  6 13  2 12
  29367261.466    21171732.016 5  16497479.137 4
  27375372.326     4062077.799 8   3165272.606 8
  29830832.346    26379372.230 5  20555372.336 3
  28461081.806    -7476502.986 7  -5825826.229 7
 91  5  7  0 58  0.0220000  0  4  6 13  2 12
  29396226.516    21323960.880 5  16616099.220 4
  27393259.445     4156074.102 8   3238516.441 8
  29853569.500    26498855.825 5  20648476.246 2
  28456532.456    -7500395.458 7  -5844443.676 7
 91  5  7  0 58 30.0220000  0  4  6 13  2 12
  29425258.120    21476508.230 5  16734967.540 4
  27411196.323     4250343.104 8   3311972.788 9
  29876351.030    26618548.732 5  20741743.280 2
  28452064.642    -7523905.124 7  -5862762.817 7
 91  5  7  0 59  0.0220000  0  4  6 13  2 12
  29454345.478    21629356.743 5  16854070.479 4
  27429186.267     4344867.513 8   3385628.155 7
  29899163.438    26738435.425 5  20835161.322 2
  28447658.593    -7547044.211 7  -5880793.193 8
 91  5  7  0 59 30.0220000  0  4  6 13  2 12
  29483491.599    21782507.747 5  16973409.166 3
  27447220.587     4439648.882 8   3459483.771 8
  29922015.719    26858519.512 6  20928733.171 4
  28443325.695    -7569805.751 7  -5898529.366 7
 91  5  7  1  0  0.0220000  0  4  6 13  2 12
  29512697.383    21935970.303 5  17092990.548 4
  27465308.863     4534696.347 8   3533546.697 8
  29944906.069    26978812.943 5  21022468.159 2
  28439071.044    -7592175.502 7  -5915960.262 7
 91  5  7  1  0 30.0220000  0  4  6 13  2 12
  29541953.528    22089727.220 6  17212801.349 3
  27483442.711     4629993.105 8   3607803.889 8
  29967834.800    27099301.021 5  21116354.834 3
  28434882.337    -7614165.643 7  -5933095.364 8
 91  5  7  1  1  0.0220000  0  4  6 13  2 12
  29571266.640    22243766.075 5  17332831.860 3
  27501623.325     4725526.626 8   3682245.607 8
  29990794.104    27219973.013 5  21210384.813 4
  28430769.783    -7635783.095 7  -5949940.023 7
 91  5  7  1  1 30.0220000  0  4  6 13  2 12
  29600630.112    22398082.624 6  17453078.752 3
  27519848.009     4821293.757 8   3756869.336 8
  30013795.681    27340827.631 5  21304557.065 4
  28426728.287    -7657026.772 7  -5966493.461 8
 91  5  7  1  2  0.0220000  0  4  6 13  2 12
  29630054.137    22552689.263 6  17573551.673 5
  27538113.161     4917306.953 8   3831684.784 9
  30036832.333    27461879.104 5  21398882.748 3
  28422758.432    -7677878.845 7  -5982741.757 8
 91  5  7  1  2 30.0220000  0  4  6 13  2 12
  29659524.641    22707578.472 5  17694244.747 4
  27556434.075     5013558.324 8   3906685.839 8
  30059897.167    27583122.278 5  21493357.807 4
  28418865.926    -7698341.283 7  -5998686.439 7
 91  5  7  1  3  0.0220000  0  4  6 13  2 12
  29689052.398    22862750.463 5  17815158.199 3
  27574794.566     5110048.850 8   3981873.241 8
  30083008.767    27704560.220 5  21587984.631 3
  28415053.166    -7718408.671 7  -6014323.295 7
 91  5  7  1  3 30.0220000  0  4  6 13  2 12
  29718638.318    23018204.438 6  17936291.373 4
  27593201.221     5206777.999 8   4057246.587 8
  30106156.638    27826194.126 5  21682764.136 3
  28411304.266    -7738076.553 7  -6029648.829 8
 91  5  7  1  4  0.0220000  0  4  6 13  2 12
  29748271.597    23173941.988 5  18057645.516 4
  27611656.449     5303748.388 8   4132807.910 8
  30129343.789    27948028.586 5  21777699.884 2
  28407637.801    -7757337.957 7  -6044657.649 8
 91  5  7  1  4 30.0220000  0  4  6 13  2 12
  29777957.951    23329956.662 5  18179215.524 3
  27630150.644     5400953.312 8   4208551.962 8
  30152563.913    28070058.853 5  21872788.246 2
  28404049.583    -7776194.023 7  -6059350.635 8
 91  5  7  1  5  0.0220000  0  4  6 13  2 12
  29807708.452    23486251.189 5  18301003.665 4
  27648693.708     5498395.761 8   4284481.120 8
  30175822.715    28192289.754 5  21968032.914 2
  28400542.909    -7794636.531 7  -6073721.363 8
 91  5  7  1  5 30.0220000  0  4  6 13  2 12
  29837498.827    23642839.264 5  18423020.561 4
  27667284.733     5596090.218 8   4360606.678 7
  30199125.884    28314737.871 5  22063446.884 3
  28397110.285    -7812646.455 7  -6087754.997 8
 91  5  7  1  6  0.0220000  0  4  6 13  2 12
  29867348.567    23799714.048 5  18545260.808 5
  27685920.135     5694029.627 8   4436923.089 8
  30222458.430    28437398.229 4  22159026.223 3
  28393769.101    -7830225.373 7  -6101452.785 9
 91  5  7  1  6 30.0220000  0  4  6 13  2 12
  29897259.759    23956864.257 5  18667715.712 3
  27704606.203     5792203.252 8   4513421.995 8
  30245847.638    28560262.348 4  22254764.362 2
  28390505.265    -7847379.374 7  -6114819.479 8
 91  5  7  1  7  0.0220000  0  4  6 13  2 12
  29927211.722    24114286.166 5  18790382.294 3
  27723327.643     5890607.421 8   4590100.546 8
  30269258.126    28683328.613 5  22350659.961 2
  28387323.863    -7864107.024 8  -6127853.959 9
 91  5  7  1  7 30.0220000  0  4  6 13  2 12
  29957223.043    24271976.104 5  18913257.759 4
  27742101.242     5989239.517 8   4666956.691 7
  30292725.283    28806596.281 5  22446712.510 3
  28384217.419    -7880406.540 7  -6140554.829 9
 91  5  7  1  8  0.0220000  0  4  6 13  2 12
  29987281.139    24429940.498 5  19036347.059 4
  27760912.620     6088106.655 8   4743995.998 7
  30316218.817    28930073.878 5  22542928.644 3
  28381200.904    -7896266.270 8  -6152913.008 9
 91  5  7  1  8 30.0220000  0  4  6 13  2 12
  30017390.495    24588168.131 5  19159641.488 4
  27779771.367     6187197.543 8   4821209.661 7
  30339754.929    29053752.306 5  22639301.296 3
  28378265.036    -7911691.604 8  -6164932.694 9
 91  5  7  1  9  0.0220000  0  4  6 13  2 12
  30047554.409    24746672.084 5  19283151.211 5
  27798669.979     6286525.752 8   4898608.237 8
  30363327.608    29177646.888 5  22735842.377 2
  28375416.105    -7926664.345 8  -6176599.717 9
 91  5  7  1  9 30.0220000  0  4  6 13  2 12
  30077769.889    24905446.697 5  19406871.841 3
  27817616.562     6386085.844 8   4976187.495 7
  30386950.352    29301754.557 5  22832549.453 1
  28372654.721    -7941185.018 7  -6187914.475 9
 91  5  7  1 10  0.0220000  0  4  6 13  2 12
  30108033.339    25064492.010 5  19530803.413 3
  27836607.520     6485878.518 8   5053947.997 7
  30410608.475    29426077.886 4  22929425.066 2
  28369974.272    -7955247.972 8  -6198872.573 8
 91  5  7  1 10 30.0220000  0  4  6 13  2 12
  30138354.349    25223807.348 5  19654945.360 3
  27855642.244     6585903.387 8   5131889.381 7
  30434302.870    29550618.359 5  23026469.826 2
  28367390.366    -7968848.669 8  -6209470.485 8
 91  5  7  1 11  0.0220000  0  4  6 13  2 12
  30168710.137    25383380.922 5  19779288.563 2
  27874717.731     6686149.710 8   5210003.413 8
  30458040.139    29675366.981 4  23123676.374 2
  28364887.394    -7981993.678 8  -6219713.279 8
 91  5  7  1 11 30.0220000  0  4  6 13  2 12
  30199128.275    25543198.817 5  19903822.112 4
  27893832.805     6786603.799 8   5288279.268 7
  30481822.072    29800311.487 5  23221035.486 3
  28362468.069    -7994691.410 8  -6229607.570 8
 91  5  7  1 12  0.0220000  0  4  6 13  2 12
  30229589.593    25703243.521 5  20028532.384 4
  27912984.445     6887248.381 8   5366703.593 7
  30505634.291    29925436.801 5  23318535.569 3
  28360138.387    -8006954.288 8  -6239163.004 9
 91  5  7  1 12 30.0220000  0  4  6 13  2 12
  30260085.375    25863508.919 5  20153414.641 3
  27932173.263     6988077.692 8   5445271.839 7
  30529473.181    30050739.428 4  23416173.773 2
  28357889.944    -8018782.895 8  -6248380.048 9
 91  5  7  1 13  0.0230000  0  4  6 13  2 12
  30290631.531    26023999.613 5  20278472.461 3
  27951394.454     7089095.255 8   5523986.802 7
  30553355.553    30176225.251 4  23513954.791 2
  28355717.945    -8030173.473 8  -6257255.769 8
 91  5  7  1 13 30.0230000  0  4  6 13  2 12
  30321204.967    26184695.536 5  20403690.184 3
  27970652.217     7190285.627 8   5602836.401 7
  30577274.496    30301879.008 5  23611866.575 2
  28353634.685    -8041129.485 8  -6265792.867 8
 91  5  7  1 14  0.0230000  0  4  6 13  2 12
  30351822.770    26345600.477 5  20529070.786 4
  27989940.868     7291651.343 8   5681822.650 6
  30601210.820    30427705.460 5  23709912.952 2
  28351633.869    -8051647.401 8  -6273988.586 8
 91  5  7  1 14 30.0230000  0  4  6 13  2 12
  30382480.743    26506704.661 5  20654606.624 4
  28009260.990     7393183.154 8   5760938.306 6
  30625192.419    30553697.125 5  23808088.075 2
  28349714.598    -8061731.657 8  -6281846.396 9
 91  5  7  1 15  0.0230000  0  4  6 13  2 12
  30413185.187    26668020.231 5  20780307.190 5
  28028618.290     7494893.389 8   5840193.007 6
  30649194.705    30679868.090 4  23906402.941 3
  28347879.874    -8071364.910 8  -6289352.763 9
 91  5  7  1 15 30.0230000  0  4  6 13  2 12
  30443919.313    26829556.162 5  20906179.466 3
  28048007.070     7596791.615 8   5919594.190 7
  30673241.061    30806230.142 5  24004866.685 2
  28346138.377    -8080532.792 8  -6296496.516 9
 91  5  7  1 16  0.0230000  0  4  6 13  2 12
  30474699.307    26991318.235 5  21032227.932 3
  28067433.018     7698884.786 8   5999147.282 6
  30697326.986    30932791.373 4  24103486.090 2
  28344482.919    -8089223.964 8  -6303268.807 9
 91  5  7  1 16 30.0230000  0  4  6 13  2 12
  30505532.655    27153307.732 5  21158453.613 4
  28086899.146     7801174.477 8   6078853.489 7
  30721450.682    31059555.455 4  24202263.093 3
  28342921.002    -8097432.097 8  -6309664.719 8
 91  5  7  1 17  0.0230000  0  4  6 13  2 12
  30536404.088    27315519.582 5  21284852.568 3
  28106401.239     7903656.329 8   6158709.484 6
  30745607.062    31186519.590 4  24301195.991 2
  28341451.118    -8105157.089 8  -6315684.116 9
 91  5  7  1 17 30.0230000  0  4  6 13  2 12
  30567297.099    27477948.604 5  21411420.744 3
  28125939.620     8006325.553 8   6238711.432 7
  30769814.397    31313680.944 5  24400282.549 2
  28340073.275    -8112399.185 8  -6321327.265 9
 91  5  7  1 18  0.0230000  0  4  6 13  2 12
  30598263.260    27640595.772 5  21538158.889 3
  28145510.371     8109183.808 8   6318860.690 7
  30794034.034    31441042.734 4  24499525.343 1
  28338788.668    -8119152.086 8  -6326589.223 9
 91  5  7  1 18 30.0230000  0  4  6 13  2 12
  30629252.212    27803466.253 5  21665071.036 3
  28165124.590     8212236.896 8   6399161.763 7
  30818316.326    31568612.702 4  24598930.359 3
  28337599.392    -8125405.457 8  -6331461.938 9
 91  5  7  1 19  0.0230000  0  4  6 13  2 12
  30660292.424    27966559.014 5  21792156.417 3
  28184769.094     8315484.659 8   6479614.534 7
  30842636.685    31696391.793 4  24698498.293 2
  28336503.047    -8131155.090 8  -6335942.133 9
 91  5  7  1 19 30.0230000  0  4  6 13  2 12
  30691363.208    28129866.271 5  21919408.846 3
  28204451.962     8418920.068 8   6560213.519 7
  30866990.332    31824374.428 3  24798224.847 2
  28335504.441    -8136403.532 8  -6340031.793 9
 91  5  7  1 20  0.0230000  0  4  6 13  2 12
  30722478.072    28293387.027 5  22046827.703 3
  28224172.008     8522542.911 8   6640958.566 7
  30891391.931    31952562.216 4  24898111.198 1
  28334598.470    -8141146.712 8  -6343727.750 9
 91  5  7  1 20 30.0230000  0  4  6 13  2 12
  30753636.998    28457116.623 4  22174409.269 2
  28243924.442     8626348.800 8   6721846.241 7
  30915817.524    32080952.511 4  24998155.347 2
  28333791.126    -8145384.045 8  -6347029.544 9
 91  5  7  1 21  0.0230000  0  4  6 13  2 12
  30784839.095    28621056.900 5  22302155.003 2
  28263711.340     8730340.412 8   6802878.644 7
  30940285.085    32209549.863 4  25098361.329 2
  28333084.515    -8149108.653 8  -6349931.802 9
 91  5  7  1 21 30.0230000  0  3  6 13 12
  30816063.084    28785200.485 5  22430059.143 3
  28283535.712     8834510.823 8   6884050.326 6
  28332474.132    -8152322.683 8  -6352436.238 9
 91  5  7  1 22  0.0230000  0  3  6 13 12
  30847338.935    28949537.292 5  22558113.861 2
  28303391.870     8938850.910 8   6965354.287 6
  28331958.191    -8155030.916 8  -6354546.505 9
 91  5  7  1 22 30.0230000  0  3  6 13 12
  30878654.650    29114069.493 5  22686320.835 2
  28323278.601     9043363.917 8   7046792.971 6
  28331539.987    -8157226.152 8  -6356257.048 9
